[[{"header":{"parameterUnit":"m.s-1","parameterCategory":1,"la1":30.6,"la2":28.766,"lo1":-90.7593,"lo2":-88.6598,"dy":0.0162,"dx":0.0183,"nx":116,"ny":114,"refTime":"2023-05-23T12:00:00:Z","depth":0,"parameterNumber":2,"parameterNumberName":"U-component_of_WINDS"},"data":[0.0,0.0,0.0,0.0,0.0,0.0,0.0,0.0,0.0,0.0,0.0,0.0,0.0,0.0,0.0,0.0,0.0,0.0,0.0,0.0,0.0,0.0,0.0,0.0,0.0,0.0,0.0,0.0,0.0,0.0,0.0,0.0,0.0,0.0,0.0,0.0,0.0,0.0,0.0,0.0,0.0,0.0,0.0,0.0,0.0,0.0,0.0,0.0,0.0,0.0,0.0,0.0,0.0,0.0,0.0,0.0,0.0,0.0,0.0,0.0,0.0,0.0,0.0,0.0,0.0,0.0,0.0,0.0,0.0,0.0,0.0,0.0,0.0,0.0,0.0,0.0,0.0,0.0,0.0,0.0,0.0,0.0,0.0,0.0,0.0,0.0,0.0,0.0,0.0,0.0,0.0,0.0,0.0,0.0,0.0,0.0,0.0,0.0,0.0,0.0,0.0,0.0,0.0,0.0,0.0,0.0,0.0,0.0,0.0,0.0,0.0,0.0,0.0,0.0,0.0,0.0,0.0,0.0,0.0,0.0,0.0,0.0,0.0,0.0,0.0,0.0,0.0,0.0,0.0,0.0,0.0,0.0,0.0,0.0,0.0,0.0,0.0,0.0,0.0,0.0,0.0,0.0,0.0,0.0,0.0,0.0,0.0,0.0,0.0,0.0,0.0,0.0,0.0,0.0,0.0,0.0,0.0,0.0,0.0,0.0,0.0,0.0,0.0,0.0,0.0,0.0,0.0,0.0,0.0,0.0,0.0,0.0,0.0,0.0,0.0,0.0,0.0,0.0,0.0,0.0,0.0,0.0,0.0,0.0,0.0,0.0,0.0,0.0,0.0,0.0,0.0,0.0,0.0,0.0,0.0,0.0,0.0,0.0,0.0,0.0,0.0,0.0,0.0,0.0,0.0,0.0,0.0,0.0,0.0,0.0,0.0,0.0,0.0,0.0,0.0,0.0,0.0,0.0,0.0,0.0,0.0,0.0,0.0,0.0,0.0,0.0,0.0,0.0,0.0,0.0,0.0,0.0,0.0,0.0,0.0,0.0,0.0,0.0,0.0,0.0,0.0,0.0,0.0,0.0,0.0,0.0,0.0,0.0,0.0,0.0,0.0,0.0,0.0,0.0,0.0,0.0,0.0,0.0,0.0,0.0,0.0,0.0,0.0,0.0,0.0,0.0,0.0,0.0,0.0,0.0,0.0,0.0,0.0,0.0,0.0,0.0,0.0,0.0,0.0,0.0,0.0,0.0,0.0,0.0,0.0,0.0,0.0,0.0,0.0,0.0,0.0,0.0,0.0,0.0,0.0,0.0,0.0,0.0,0.0,0.0,0.0,0.0,0.0,0.0,0.0,0.0,0.0,0.0,0.0,0.0,0.0,0.0,0.0,0.0,0.0,0.0,0.0,0.0,0.0,0.0,0.0,0.0,0.0,0.0,0.0,0.0,0.0,0.0,0.0,0.0,0.0,0.0,0.0,0.0,0.0,0.0,0.0,0.0,0.0,0.0,0.0,0.0,0.0,0.0,0.0,0.0,0.0,0.0,0.0,0.0,0.0,0.0,0.0,0.0,0.0,0.0,0.0,0.0,0.0,0.0,0.0,0.0,0.0,0.0,0.0,0.0,0.0,0.0,0.0,0.0,0.0,0.0,0.0,0.0,0.0,0.0,0.0,0.0,0.0,0.0,0.0,0.0,0.0,0.0,0.0,0.0,0.0,0.0,0.0,0.0,0.0,0.0,0.0,0.0,0.0,0.0,0.0,0.0,0.0,0.0,0.0,0.0,0.0,0.0,0.0,0.0,0.0,0.0,0.0,0.0,0.0,0.0,0.0,0.0,0.0,0.0,0.0,0.0,0.0,0.0,0.0,0.0,0.0,0.0,0.0,0.0,0.0,0.0,0.0,0.0,0.0,0.0,0.0,0.0,0.0,0.0,0.0,0.0,0.0,0.0,0.0,0.0,0.0,0.0,0.0,0.0,0.0,0.0,0.0,0.0,0.0,0.0,0.0,0.0,0.0,0.0,0.0,0.0,0.0,0.0,0.0,0.0,0.0,0.0,0.0,0.0,0.0,0.0,0.0,0.0,0.0,0.0,0.0,0.0,0.0,0.0,0.0,0.0,0.0,0.0,0.0,0.0,0.0,0.0,0.0,0.0,0.0,0.0,0.0,0.0,0.0,0.0,0.0,0.0,0.0,0.0,0.0,0.0,0.0,0.0,0.0,0.0,0.0,0.0,0.0,0.0,0.0,0.0,0.0,0.0,0.0,0.0,0.0,0.0,0.0,0.0,0.0,0.0,0.0,0.0,0.0,0.0,0.0,0.0,0.0,0.0,0.0,0.0,0.0,0.0,0.0,0.0,0.0,0.0,0.0,0.0,0.0,0.0,0.0,0.0,0.0,0.0,0.0,0.0,0.0,0.0,0.0,0.0,0.0,0.0,0.0,0.0,0.0,0.0,0.0,0.0,0.0,0.0,0.0,0.0,0.0,0.0,0.0,0.0,0.0,0.0,0.0,0.0,0.0,0.0,0.0,0.0,0.0,0.0,0.0,0.0,0.0,0.0,0.0,0.0,0.0,0.0,0.0,0.0,0.0,0.0,0.0,0.0,0.0,0.0,0.0,0.0,0.0,0.0,0.0,0.0,0.0,0.0,0.0,0.0,0.0,0.0,0.0,0.0,0.0,0.0,0.0,0.0,0.0,0.0,0.0,0.0,0.0,0.0,0.0,0.0,0.0,0.0,0.0,0.0,0.0,0.0,0.0,0.0,0.0,0.0,0.0,0.0,0.0,0.0,0.0,0.0,0.0,0.0,0.0,0.0,0.0,0.0,0.0,0.0,0.0,0.0,0.0,0.0,0.0,0.0,0.0,0.0,0.0,0.0,0.0,0.0,0.0,0.0,0.0,0.0,0.0,0.0,0.0,0.0,0.0,0.0,0.0,0.0,0.0,0.0,0.0,0.0,0.0,0.0,0.0,0.0,0.0,0.0,0.0,0.0,0.0,0.0,0.0,0.0,0.0,0.0,0.0,0.0,0.0,0.0,0.0,0.0,0.0,0.0,0.0,0.0,0.0,0.0,0.0,0.0,0.0,0.0,0.0,0.0,0.0,0.0,0.0,0.0,0.0,0.0,0.0,0.0,0.0,0.0,0.0,0.0,0.0,0.0,0.0,0.0,0.0,0.0,0.0,0.0,0.0,0.0,0.0,0.0,0.0,0.0,0.0,0.0,0.0,0.0,0.0,0.0,0.0,0.0,0.0,0.0,0.0,0.0,0.0,0.0,0.0,0.0,0.0,0.0,0.0,0.0,0.0,0.0,0.0,0.0,0.0,0.0,0.0,0.0,0.0,0.0,0.0,0.0,0.0,0.0,0.0,0.0,0.0,0.0,0.0,0.0,0.0,0.0,0.0,0.0,0.0,0.0,0.0,0.0,0.0,0.0,0.0,0.0,0.0,0.0,0.0,0.0,0.0,0.0,0.0,0.0,0.0,0.0,0.0,0.0,0.0,0.0,0.0,0.0,0.0,0.0,0.0,0.0,0.0,0.0,0.0,0.0,0.0,0.0,0.0,0.0,0.0,0.0,0.0,0.0,0.0,0.0,0.0,0.0,0.0,0.0,0.0,0.0,0.0,0.0,0.0,0.0,0.0,0.0,0.0,0.0,0.0,0.0,0.0,0.0,0.0,0.0,0.0,0.0,0.0,0.0,0.0,0.0,0.0,0.0,0.0,0.0,0.0,0.0,0.0,0.0,0.0,0.0,0.0,0.0,0.0,0.0,0.0,0.0,0.0,0.0,0.0,0.0,0.0,0.0,0.0,0.0,0.0,0.0,0.0,0.0,0.0,0.0,0.0,0.0,0.0,0.0,0.0,0.0,0.0,0.0,0.0,0.0,0.0,0.0,0.0,0.0,0.0,0.0,0.0,0.0,0.0,0.0,0.0,0.0,0.0,0.0,0.0,0.0,0.0,0.0,0.0,0.0,0.0,0.0,0.0,0.0,0.0,0.0,0.0,0.0,0.0,0.0,0.0,0.0,0.0,0.0,0.0,0.0,0.0,0.0,0.0,0.0,0.0,0.0,0.0,0.0,0.0,0.0,0.0,0.0,0.0,0.0,0.0,0.0,0.0,0.0,0.0,0.0,0.0,0.0,0.0,0.0,0.0,0.0,0.0,0.0,0.0,0.0,0.0,0.0,0.0,0.0,0.0,0.0,0.0,0.0,0.0,0.0,0.0,0.0,0.0,0.0,0.0,0.0,0.0,0.0,0.0,0.0,0.0,0.0,0.0,0.0,0.0,0.0,0.0,0.0,0.0,0.0,0.0,0.0,0.0,0.0,0.0,0.0,0.0,0.0,0.0,0.0,0.0,0.0,0.0,0.0,0.0,0.0,0.0,0.0,0.0,0.0,0.0,0.0,0.0,0.0,0.0,0.0,0.0,0.0,0.0,0.0,0.0,0.0,0.0,0.0,0.0,0.0,0.0,0.0,0.0,0.0,0.0,0.0,0.0,0.0,0.0,0.0,0.0,0.0,0.0,0.0,0.0,0.0,0.0,0.0,0.0,0.0,0.0,0.0,0.0,0.0,0.0,0.0,0.0,0.0,0.0,0.0,0.0,0.0,0.0,0.0,0.0,0.0,0.0,0.0,0.0,0.0,0.0,0.0,0.0,0.0,0.0,0.0,0.0,0.0,0.0,0.0,0.0,0.0,0.0,0.0,0.0,0.0,0.0,0.0,0.0,0.0,0.0,0.0,0.0,0.0,0.0,0.0,0.0,0.0,0.0,0.0,0.0,0.0,0.0,0.0,0.0,0.0,0.0,0.0,0.0,0.0,0.0,0.0,0.0,0.0,0.0,0.0,0.0,0.0,0.0,0.0,0.0,0.0,0.0,0.0,0.0,0.0,0.0,0.0,0.0,0.0,0.0,0.0,0.0,0.0,0.0,0.0,0.0,0.0,0.0,0.0,0.0,0.0,0.0,0.0,0.0,0.0,0.0,0.0,0.0,0.0,0.0,0.0,0.0,0.0,0.0,0.0,0.0,0.0,0.0,0.0,0.0,0.0,0.0,0.0,0.0,0.0,0.0,0.0,0.0,0.0,0.0,0.0,0.0,0.0,0.0,0.0,0.0,0.0,0.0,0.0,0.0,0.0,0.0,0.0,0.0,0.0,0.0,0.0,0.0,0.0,0.0,0.0,0.0,0.0,0.0,0.0,0.0,0.0,0.0,0.0,0.0,0.0,0.0,0.0,0.0,0.0,0.0,0.0,0.0,0.0,0.0,0.0,0.0,0.0,0.0,0.0,0.0,0.0,0.0,0.0,0.0,0.0,0.0,0.0,0.0,0.0,0.0,0.0,0.0,0.0,0.0,0.0,0.0,0.0,0.0,0.0,0.0,0.0,0.0,0.0,0.0,0.0,0.0,0.0,0.0,0.0,0.0,0.0,0.0,0.0,0.0,0.0,0.0,0.0,0.0,0.0,0.0,0.0,0.0,0.0,0.0,0.0,0.0,0.0,0.0,0.0,0.0,0.0,0.0,0.0,0.0,0.0,0.0,0.0,0.0,0.0,0.0,0.0,0.0,0.0,0.0,0.0,0.0,0.0,0.0,0.0,0.0,0.0,0.0,0.0,0.0,0.0,0.0,0.0,0.0,0.0,0.0,0.0,0.0,0.0,0.0,0.0,0.0,0.0,0.0,0.0,0.0,0.0,0.0,0.0,0.0,0.0,0.0,0.0,0.0,0.0,0.0,0.0,0.0,0.0,0.0,0.0,0.0,0.0,0.0,0.0,0.0,0.0,0.0,0.0,0.0,0.0,0.0,0.0,0.0,0.0,0.0,0.0,0.0,0.0,0.0,0.0,0.0,0.0,0.0,0.0,0.0,0.0,0.0,0.0,0.0,0.0,0.0,0.0,0.0,0.0,0.0,0.0,0.0,0.0,0.0,0.0,0.0,0.0,0.0,0.0,0.0,0.0,0.0,0.0,0.0,0.0,0.0,0.0,0.0,0.0,0.0,0.0,0.0,0.0,0.0,0.0,0.0,0.0,0.0,0.0,0.0,0.0,0.0,0.0,0.0,0.0,0.0,0.0,0.0,0.0,0.0,0.0,0.0,0.0,2.6514,0.0,0.0,0.0,0.0,0.0,0.0,0.0,0.0,0.0,0.0,0.0,0.0,0.0,0.0,0.0,0.0,0.0,0.0,0.0,0.0,0.0,0.0,0.0,0.0,0.0,0.0,0.0,0.0,0.0,0.0,0.0,0.0,0.0,0.0,0.0,0.0,0.0,0.0,0.0,2.9717,2.9967,3.0379,2.9948,2.9967,3.0398,0.0,0.0,0.0,0.0,0.0,0.0,0.0,0.0,0.0,0.0,0.0,0.0,0.0,0.0,0.0,0.0,0.0,0.0,0.0,0.0,0.0,0.0,0.0,0.0,0.0,0.0,0.0,0.0,0.0,0.0,0.0,0.0,0.0,0.0,0.0,0.0,0.0,0.0,0.0,0.0,0.0,0.0,0.0,0.0,0.0,0.0,0.0,0.0,0.0,0.0,0.0,0.0,0.0,0.0,0.0,0.0,0.0,0.0,0.0,0.0,0.0,0.0,0.0,0.0,0.0,0.0,0.0,0.0,0.0,0.0,0.0,2.6833,0.0,0.0,0.0,0.0,0.0,0.0,0.0,0.0,0.0,0.0,0.0,0.0,0.0,0.0,0.0,0.0,0.0,0.0,0.0,0.0,0.0,0.0,0.0,0.0,0.0,0.0,0.0,0.0,0.0,0.0,0.0,0.0,0.0,0.0,0.0,0.0,0.0,0.0,3.0398,3.0398,3.0398,3.0398,3.0398,3.0398,3.0398,0.0,0.0,0.0,0.0,0.0,0.0,0.0,0.0,0.0,0.0,0.0,0.0,0.0,0.0,0.0,0.0,0.0,0.0,0.0,0.0,0.0,0.0,0.0,0.0,0.0,0.0,0.0,0.0,0.0,0.0,0.0,0.0,0.0,0.0,0.0,0.0,0.0,0.0,0.0,0.0,0.0,0.0,0.0,0.0,0.0,0.0,0.0,0.0,0.0,0.0,0.0,0.0,0.0,0.0,0.0,0.0,0.0,0.0,0.0,0.0,0.0,0.0,0.0,2.9585,2.9713,2.9625,2.9249,2.9044,2.892,2.7603,2.7402,2.8007,2.8007,0.0,0.0,0.0,0.0,0.0,0.0,0.0,0.0,0.0,0.0,0.0,0.0,0.0,0.0,0.0,0.0,0.0,0.0,0.0,0.0,0.0,2.5303,2.5303,2.5303,2.5986,2.6486,0.0,0.0,0.0,0.0,0.0,0.0,0.0,3.0237,3.0294,3.0398,3.0398,3.0398,3.0398,3.0398,3.0398,3.0398,3.0398,3.0398,3.0398,0.0,0.0,0.0,0.0,0.0,0.0,0.0,0.0,0.0,0.0,0.0,0.0,0.0,0.0,0.0,0.0,0.0,0.0,0.0,0.0,0.0,0.0,0.0,0.0,0.0,0.0,0.0,0.0,0.0,0.0,0.0,0.0,0.0,0.0,0.0,0.0,0.0,0.0,0.0,0.0,0.0,3.051,3.051,0.0,0.0,0.0,0.0,0.0,0.0,0.0,0.0,0.0,0.0,0.0,0.0,0.0,3.004,3.0083,3.0155,3.0081,2.9889,2.9927,2.978,2.9434,2.9392,2.9203,2.8975,2.8773,0.0,2.8851,2.8851,0.0,0.0,0.0,0.0,0.0,0.0,0.0,0.0,0.0,0.0,0.0,0.0,0.0,0.0,0.0,0.0,0.0,0.0,0.0,0.0,0.0,2.5303,2.5495,2.5986,2.639,2.7005,2.7928,0.0,0.0,0.0,0.0,0.0,0.0,3.0398,3.0398,3.0398,3.0398,3.0398,3.0398,3.0398,3.0398,3.0398,3.0398,3.0398,3.0398,3.0398,0.0,0.0,0.0,0.0,0.0,0.0,0.0,0.0,0.0,0.0,0.0,0.0,0.0,0.0,0.0,0.0,0.0,0.0,0.0,0.0,0.0,0.0,0.0,0.0,0.0,0.0,0.0,0.0,0.0,0.0,0.0,0.0,0.0,0.0,0.0,0.0,0.0,0.0,0.0,3.053,3.0499,3.0498,3.0467,3.0448,0.0,0.0,0.0,0.0,0.0,0.0,0.0,0.0,0.0,3.0398,3.0891,3.1141,3.1141,3.1583,3.1757,3.1621,3.1522,3.1366,3.12,3.1054,3.084,3.0561,3.0561,3.0508,3.032,2.9861,2.9953,3.0356,0.0,0.0,0.0,0.0,3.0356,3.0356,0.0,0.0,0.0,0.0,0.0,0.0,0.0,0.0,0.0,0.0,0.0,0.0,2.5303,2.5303,2.5649,2.6524,2.6794,2.7544,2.8986,2.9313,0.0,0.0,0.0,0.0,3.0398,3.0398,3.0398,3.0398,3.0398,3.0513,3.0737,3.0737,3.0852,3.1044,3.1044,3.0814,3.0398,3.0398,3.0398,3.0398,0.0,0.0,0.0,0.0,0.0,0.0,0.0,0.0,0.0,0.0,0.0,0.0,0.0,0.0,0.0,0.0,0.0,0.0,0.0,0.0,0.0,0.0,0.0,0.0,0.0,0.0,0.0,0.0,0.0,0.0,0.0,0.0,0.0,0.0,0.0,0.0,0.0,3.0557,3.0529,3.0528,3.0706,3.0802,0.0,0.0,0.0,0.0,0.0,0.0,3.1044,3.1044,3.1044,3.1044,3.1679,3.2006,3.2006,3.2602,3.2865,3.2826,3.266,3.2569,3.2502,3.2294,3.209,3.189,3.189,3.1912,3.1853,3.0888,3.0852,3.1384,3.1384,3.1384,3.1384,3.1384,3.1384,3.1384,0.0,0.0,0.0,0.0,0.0,0.0,0.0,0.0,0.0,0.0,0.0,2.5303,2.5303,2.5303,2.5649,2.6524,2.7351,2.8179,2.9044,2.9871,3.034,3.0398,3.0398,3.0398,3.0398,3.0398,3.0398,3.0398,3.0398,3.0833,3.1641,3.1641,3.2045,3.2776,3.2776,3.1891,3.0398,3.0398,3.0398,3.0398,3.0398,0.0,0.0,0.0,0.0,0.0,0.0,0.0,0.0,0.0,0.0,0.0,0.0,0.0,0.0,0.0,0.0,0.0,0.0,0.0,0.0,0.0,0.0,0.0,0.0,0.0,0.0,0.0,0.0,0.0,0.0,0.0,0.0,0.0,0.0,0.0,0.0,0.0,0.0,3.0594,3.1274,0.0,0.0,0.0,0.0,3.2776,3.2776,3.2776,3.2776,3.2776,3.2776,3.2776,3.2814,3.2833,3.2833,3.2872,3.2793,3.2615,3.26,3.2469,3.2221,3.2203,3.2203,3.2184,3.2184,3.26,3.3202,3.1895,3.1347,3.1384,3.1384,3.1384,3.1384,3.1384,3.1384,3.1384,0.0,0.0,0.0,0.0,0.0,0.0,0.0,0.0,0.0,2.5303,2.5303,2.5303,2.5303,2.5303,2.589,2.7313,2.7717,2.8486,2.9852,3.0237,3.0398,3.0398,3.0398,3.0398,3.0398,3.0398,3.0679,3.1237,3.1237,3.166,3.2468,3.2468,3.2622,3.2891,3.2891,3.2564,3.2006,3.2006,3.2006,3.2006,3.2057,3.2146,0.0,0.0,0.0,0.0,0.0,0.0,0.0,0.0,0.0,0.0,0.0,0.0,0.0,0.0,0.0,0.0,0.0,0.0,0.0,0.0,0.0,0.0,0.0,0.0,0.0,0.0,0.0,0.0,0.0,0.0,0.0,0.0,0.0,0.0,0.0,0.0,0.0,3.2273,3.2522,0.0,3.2609,3.2782,3.2891,3.2891,3.2891,3.2891,3.2891,3.2891,3.2891,3.2891,3.343,3.3737,3.3737,3.4295,3.4537,3.4467,3.4467,3.4419,3.432,3.432,3.4222,3.4068,3.4068,3.413,3.4204,3.3714,3.3403,3.3173,3.3004,3.2944,3.2944,3.2944,3.2944,3.2944,0.0,0.0,0.0,0.0,0.0,0.0,0.0,0.0,0.0,2.5303,2.5303,2.5303,2.5303,2.5303,2.6005,2.7755,2.789,2.8602,3.0283,3.0398,3.0398,3.0398,3.0398,3.0398,3.0398,3.0698,3.1121,3.1698,3.1968,3.2526,3.3333,3.3333,3.3506,3.3776,3.3776,3.3776,3.3776,3.3776,3.3449,3.2891,3.2961,3.3031,3.313,0.0,0.0,0.0,0.0,0.0,0.0,0.0,0.0,0.0,0.0,0.0,0.0,0.0,0.0,0.0,0.0,0.0,0.0,0.0,0.0,0.0,0.0,0.0,0.0,0.0,0.0,0.0,0.0,0.0,0.0,0.0,0.0,0.0,0.0,0.0,3.331,3.3243,3.3498,3.3635,3.3519,3.3686,3.3795,3.3776,3.3776,3.3776,3.3776,3.3776,3.3776,3.3776,3.4334,3.4641,3.4641,3.5218,3.5493,3.5493,3.5493,3.5493,3.5493,3.5493,3.5398,3.5223,3.5223,3.5122,3.4963,3.487,3.4695,3.4489,3.4213,3.4087,3.4087,3.4087,3.4087,3.4087,0.0,0.0,0.0,0.0,0.0,0.0,0.0,2.5303,2.5303,2.5303,2.5303,2.5303,2.5303,2.5303,2.6005,2.7755,2.789,2.8602,3.0283,3.0398,3.0398,3.0398,3.0398,3.0398,3.0398,3.1256,3.1718,3.1737,3.2545,3.3391,3.4237,3.4237,3.4699,3.5493,3.5493,3.5493,3.5493,3.5493,3.4526,3.2987,3.2987,3.3013,3.3083,0.0,0.0,0.0,0.0,0.0,0.0,0.0,0.0,0.0,0.0,0.0,0.0,0.0,0.0,0.0,0.0,0.0,0.0,0.0,0.0,0.0,0.0,0.0,0.0,0.0,0.0,0.0,0.0,0.0,0.0,0.0,0.0,0.0,3.3555,3.3457,3.3457,3.3398,3.4121,3.4557,3.4376,3.5116,3.5584,3.5526,3.5493,3.5493,3.5493,3.5493,3.5493,3.5493,3.5493,3.5493,3.5493,3.5493,3.5493,3.5493,3.5493,3.5493,3.5493,3.5493,3.5493,3.5493,3.5493,3.5493,3.5479,3.5223,3.5105,3.5088,3.4812,3.4694,3.4694,3.4694,3.4694,3.4694,0.0,0.0,0.0,0.0,0.0,0.0,0.0,2.5303,2.5303,2.5303,2.5303,2.5303,2.5303,2.5303,2.6005,2.7755,2.789,2.8602,3.0283,3.0398,3.0398,3.0398,3.0398,3.0398,3.0398,3.1256,3.1987,3.2564,3.341,3.4263,3.5081,3.5081,3.5182,3.5364,3.5412,3.5427,3.5427,3.5493,3.5218,3.4795,3.4795,3.482,3.4891,0.0,0.0,0.0,0.0,0.0,0.0,0.0,0.0,0.0,0.0,0.0,0.0,0.0,0.0,0.0,0.0,0.0,0.0,0.0,0.0,0.0,0.0,0.0,0.0,0.0,0.0,0.0,0.0,0.0,0.0,0.0,0.0,3.5332,3.4473,3.4883,3.5273,3.5254,3.543,3.5524,3.5474,3.5602,3.5641,3.5584,3.5584,3.5565,3.5493,3.5493,3.5493,3.5493,3.5493,3.5493,3.5493,3.5493,3.5493,3.5493,3.5493,3.5493,3.5493,3.5493,3.5493,3.5493,3.5493,3.5493,3.5493,3.5432,3.5383,3.5335,3.4889,3.4694,3.4694,3.4694,3.4694,3.4694,0.0,0.0,0.0,0.0,0.0,0.0,0.0,2.5082,2.5303,2.5303,2.5303,2.5303,2.5303,2.5303,2.6005,2.7755,2.789,2.8602,3.0283,3.0398,3.0398,3.0398,3.0398,3.0398,3.0398,3.1583,3.2429,3.2891,3.4141,3.496,3.5412,3.5412,3.5364,3.5315,3.533,3.5364,3.5412,3.5446,3.546,3.5493,3.5493,3.5526,3.5565,3.5565,3.5603,3.5676,3.5784,3.5536,3.5156,3.5215,0.0,0.0,0.0,0.0,0.0,0.0,0.0,0.0,0.0,0.0,0.0,0.0,0.0,0.0,0.0,0.0,0.0,0.0,0.0,0.0,0.0,0.0,0.0,0.0,3.5996,3.582,3.5312,3.5684,3.5996,3.5996,3.5976,3.5937,3.5898,3.5831,3.5735,3.5637,3.5644,3.5622,3.5565,3.5545,3.5545,3.5493,3.5493,3.5493,3.5493,3.5493,3.5493,3.5493,3.5493,3.568,3.6007,3.6007,3.6199,3.6546,3.6546,3.6546,3.6546,3.6546,3.6546,0.0,0.0,0.0,0.0,0.0,3.5053,3.5016,0.0,0.0,0.0,0.0,0.0,0.0,0.0,2.4774,2.5303,2.5303,2.5303,2.5303,2.5303,2.5303,2.6005,2.7755,2.789,2.8602,3.0283,3.0398,3.0398,3.0398,3.0398,3.0398,3.0398,3.2045,3.2891,3.2891,3.4628,3.546,3.5398,3.5398,3.535,3.53,3.53,3.533,3.5398,3.5398,3.5446,3.5493,3.5493,3.5493,3.5493,3.5526,3.5545,3.5603,3.5699,3.5779,3.5897,3.5976,0.0,0.0,0.0,0.0,0.0,0.0,0.0,0.0,0.0,0.0,0.0,0.0,0.0,0.0,0.0,0.0,0.0,0.0,0.0,0.0,0.0,0.0,0.0,0.0,3.5996,3.5996,3.5996,3.5996,3.5996,3.5996,3.5996,3.5976,3.5918,3.5918,3.5851,3.5727,3.5708,3.5688,3.5618,0.0,0.0,0.0,0.0,3.5685,3.5795,3.5795,3.5795,3.5795,3.5795,3.6161,3.6853,3.6853,3.7276,3.8007,3.8007,3.8007,3.8007,3.8007,3.8007,3.7853,3.6372,3.5795,3.5795,3.5795,3.5795,3.5748,0.0,0.0,0.0,0.0,0.0,0.0,0.0,2.4774,2.5303,2.5303,2.5303,2.5303,2.5303,2.5303,2.6005,2.7755,2.789,2.8602,3.0283,3.0398,3.0398,3.0398,3.0398,3.0398,3.0398,3.2045,3.2891,3.2891,3.4581,3.5398,3.5315,3.5324,3.5273,3.5207,3.5293,3.5304,3.5315,3.5379,3.5446,3.5493,3.5493,3.5493,3.5526,3.5565,3.5565,3.5565,3.5776,3.5814,3.5768,3.5933,3.5996,3.5996,3.5996,0.0,0.0,0.0,0.0,0.0,0.0,0.0,0.0,0.0,0.0,0.0,0.0,0.0,0.0,0.0,0.0,0.0,0.0,0.0,0.0,3.5996,3.5996,3.5996,3.5996,3.5996,3.5996,3.5996,3.5996,3.5996,3.5976,3.5976,3.5957,3.5875,3.5864,3.5806,3.5698,3.5678,3.5968,3.6608,3.6628,3.6897,3.7507,3.7526,3.7526,3.7526,0.0,0.0,3.7757,3.7757,3.7834,3.8007,3.8007,3.8007,3.8007,3.8007,3.8007,3.7969,3.7642,3.7526,3.7526,3.7526,3.7526,3.7507,0.0,0.0,0.0,0.0,0.0,0.0,0.0,2.4524,2.5303,2.5341,2.5322,2.5303,2.5341,2.5746,2.6534,2.7843,2.8679,2.9506,3.034,3.0398,3.0398,3.0398,3.0398,3.0398,3.0398,3.2045,3.2897,3.2904,3.4567,3.5383,3.5304,3.5293,3.5261,3.5209,3.5245,3.5258,3.5304,3.5335,3.5398,3.546,3.5493,3.5493,3.5526,3.5584,3.5584,3.5584,3.5815,3.5854,3.5824,3.594,3.5996,3.5996,3.5996,3.5996,3.5996,0.0,0.0,0.0,0.0,0.0,0.0,0.0,0.0,0.0,0.0,0.0,0.0,0.0,0.0,3.5996,0.0,0.0,3.5996,3.5996,3.5996,3.5996,3.5996,3.5994,3.601,3.601,3.601,3.5993,3.5996,3.5996,3.6171,3.6562,3.6601,3.6735,3.7042,3.7058,3.7222,3.7588,3.7604,3.7777,3.8142,3.8142,3.8142,3.8142,3.8142,3.8373,3.8807,3.8719,3.895,3.9353,3.9283,3.9238,3.9238,3.9238,3.9238,3.9238,3.9238,3.8738,3.8007,3.8007,3.8007,3.7973,0.0,0.0,0.0,0.0,0.0,0.0,0.0,0.0,2.5159,2.539,2.537,2.5341,2.5409,2.6044,2.6891,2.793,2.9486,3.0417,3.0417,3.0398,3.0398,3.0398,3.0398,3.0398,3.0398,3.1891,3.2744,3.291,3.4414,3.5196,3.5308,3.5308,3.5258,3.5207,3.5207,3.5258,3.5308,3.532,3.5364,3.5412,3.5493,3.5493,3.5526,3.5603,3.5622,3.5636,3.5832,3.5912,3.59,3.5988,3.5996,3.5996,3.5996,3.5996,3.5996,3.5996,3.5996,0.0,0.0,0.0,0.0,0.0,0.0,0.0,0.0,0.0,3.5996,3.5996,3.5996,3.5996,3.5996,3.5996,3.5996,3.5996,3.5996,3.6055,3.623,3.6241,3.6323,3.6482,3.6364,3.6313,3.6483,3.6502,3.6795,3.7499,3.7558,3.7812,3.8418,3.8437,3.8489,3.8575,3.8559,3.8639,3.8788,3.8801,3.8782,3.8782,3.8794,3.9148,3.9829,3.9728,4.0063,4.0711,4.0615,4.0574,4.0574,4.0574,4.0574,4.0574,4.0574,3.9735,3.8513,3.8503,3.8488,3.8454,0.0,0.0,0.0,0.0,0.0,0.0,0.0,0.0,0.0,2.539,2.5428,2.5409,2.5486,2.5575,2.6301,2.796,2.9563,3.0487,3.0487,3.0417,3.0398,3.0398,3.0398,3.0398,3.0398,3.1352,3.2179,3.291,3.3794,3.4644,3.5398,3.5335,3.53,3.53,3.53,3.5335,3.5398,3.5398,3.5427,3.5493,3.5493,3.5493,3.5526,3.5641,3.5661,3.5624,3.5899,3.5956,3.59,3.5988,3.5996,3.5996,3.5996,3.5996,3.5996,3.5996,0.0,3.5996,3.5996,3.5996,3.5996,3.5996,3.5996,3.5996,0.0,0.0,3.5996,3.5996,3.5996,3.5996,3.5996,3.5996,3.5996,3.5996,3.5996,3.6269,3.7051,3.7159,3.7435,3.8219,3.7633,3.746,3.8224,3.8317,3.8358,3.8441,3.8455,3.8496,3.8574,3.8574,3.8867,3.951,3.9546,3.9864,4.0516,4.0509,4.0524,4.0524,4.0528,4.0568,4.0665,4.0645,4.0704,4.0791,4.0762,4.0771,4.0771,4.0771,4.0771,4.0771,4.0771,4.0621,4.0385,4.026,4.0219,4.0219,0.0,0.0,0.0,0.0,0.0,0.0,0.0,0.0,0.0,0.0,2.5476,2.548,2.5544,2.6009,2.7022,2.8758,2.9423,2.995,3.0467,3.0448,3.0398,3.0398,3.0398,3.0398,3.0398,3.1256,3.184,3.2141,3.3467,3.4285,3.4654,3.5085,3.5315,3.5315,3.5315,3.5315,3.533,3.5379,3.5412,3.5446,3.5474,3.5493,3.5526,3.5661,3.5693,3.5687,3.5921,3.5979,0.0,3.5991,3.5996,3.5996,3.5996,3.5997,3.5982,3.5943,3.5943,0.0,3.5856,3.5834,3.5834,0.0,3.5888,3.5937,3.5937,3.5976,3.5996,3.5996,3.5996,3.5996,3.5996,3.6406,3.6758,0.0,3.7187,3.7637,3.8008,3.8057,3.8372,3.9253,3.9025,3.8754,3.8612,3.86,3.8803,3.9313,3.9369,3.9586,4.0098,4.0117,4.0254,4.0566,4.0543,4.0662,4.0969,4.0972,4.0976,4.0964,4.0964,4.0972,4.0972,4.0933,4.0866,4.081,4.081,4.081,4.081,4.081,4.081,4.081,4.081,4.0781,4.0749,4.0649,4.0579,4.0489,0.0,0.0,0.0,0.0,0.0,0.0,0.0,0.0,0.0,0.0,0.0,2.5551,2.5621,2.6412,2.7441,2.8691,2.9097,2.9528,3.0133,3.0321,3.0417,3.0398,3.0398,3.0398,3.0398,3.1025,3.1436,3.1642,3.2833,3.355,3.3791,3.4616,3.5,3.5019,3.5249,3.5364,3.5364,3.5412,3.5427,3.5427,3.5493,3.5526,3.5545,3.5661,3.5717,3.5776,3.5945,3.5996,3.5996,3.5996,3.6007,3.5994,3.5974,3.5965,3.5957,3.5874,3.5836,3.5811,3.5728,3.5696,0.0,3.5696,3.5768,3.5851,3.5898,3.5937,3.5976,3.5996,3.6191,3.6367,3.6367,3.707,3.7656,3.7656,3.8184,3.8672,3.8926,3.896,3.9281,4.0132,4.0235,3.9984,3.9354,3.9298,3.9541,4.0175,4.0249,4.0521,4.1172,4.1171,4.117,4.117,4.1123,4.1094,4.1108,4.1099,4.1099,4.1108,4.1108,4.1108,4.1108,4.1047,4.0961,4.0887,4.0887,4.0887,4.0887,4.0887,4.0887,4.0887,4.0887,4.0871,4.0857,4.081,4.0694,4.0564,0.0,0.0,0.0,0.0,0.0,0.0,0.0,0.0,0.0,0.0,0.0,0.0,0.0,0.0,2.7012,2.707,2.8555,2.9448,2.9333,3.0071,3.0467,3.0398,3.0398,3.0398,3.0398,3.0417,3.0852,3.1698,3.1756,3.2179,3.2968,3.3833,3.4237,3.4276,3.5122,3.5493,3.5493,3.5493,3.5493,3.5493,3.5493,3.5545,3.5603,3.568,3.579,3.59,3.5965,3.5996,3.5996,0.0,3.5988,3.599,3.5932,3.59,0.0,3.5732,3.5707,3.5699,3.5694,0.0,3.5694,3.5694,3.5707,3.5742,3.5867,3.5898,3.5918,3.5996,3.668,3.7266,3.7266,3.7969,3.8555,3.8555,3.8574,3.8906,3.9746,3.9863,4.0155,4.0977,4.1049,4.1052,0.0,4.1023,4.1048,4.1068,4.1112,4.1172,4.1191,4.1142,4.1091,4.1091,4.1101,4.1103,4.1108,4.1111,4.1111,4.1108,4.1108,4.1108,4.1108,4.1108,4.1088,4.1085,4.1085,4.1085,4.1085,4.1085,4.1085,4.1085,4.1085,4.1042,4.0987,4.0987,4.0867,4.0694,0.0,0.0,0.0,0.0,0.0,0.0,0.0,0.0,0.0,0.0,0.0,0.0,0.0,0.0,0.0,0.0,2.748,2.8257,2.9363,2.9562,2.9886,3.0448,3.0417,3.0398,3.0398,3.0448,3.0602,3.0852,3.1499,3.1941,3.2186,3.3103,3.3532,3.3569,3.4447,3.4787,3.4749,3.532,3.5584,3.5584,3.5584,3.5622,3.568,3.5795,3.5853,3.5907,0.0,3.5996,3.5996,0.0,0.0,0.0,3.5911,3.5892,3.5861,3.5685,3.5598,3.5584,3.5584,3.5584,3.5584,3.5584,3.5603,3.5656,3.5757,3.6274,3.6777,3.6855,3.7559,3.8164,3.8164,3.8867,3.9453,3.9453,3.9941,4.043,4.0723,4.0762,4.0858,4.1074,4.1055,0.0,0.0,0.0,0.0,4.1093,4.1152,4.1191,4.1191,4.1142,4.1108,4.1108,4.1094,4.1094,4.1108,4.1108,4.1082,4.1035,4.1035,4.1015,4.0967,4.1068,4.1082,4.1034,4.108,4.1108,4.1108,4.1108,4.1108,4.1108,4.1108,4.1081,4.107,4.107,4.1006,4.0876,0.0,0.0,0.0,0.0,0.0,0.0,0.0,0.0,0.0,0.0,0.0,0.0,0.0,0.0,0.0,0.0,0.0,0.0,2.8496,2.8744,2.9214,3.0033,3.0021,3.0148,3.0467,3.0506,3.0513,3.0482,3.1113,3.1422,3.14,3.2299,3.2733,3.2759,3.3658,3.3986,3.3956,3.4841,3.5205,3.5238,3.5519,3.5688,3.5776,3.5872,3.5911,0.0,3.5985,3.5996,3.5995,0.0,0.0,0.0,3.5871,3.5804,3.5738,3.5603,3.5545,3.5493,3.5493,3.5493,3.5493,3.5493,3.5757,3.6026,3.6122,3.6892,3.7606,3.7675,3.8418,3.9062,3.9062,3.9785,4.0351,4.0351,4.082,4.1191,4.1191,4.1166,4.1105,4.1071,4.1016,4.0988,0.0,0.0,0.0,4.1093,4.1129,4.1146,4.1191,4.1093,4.1035,4.1054,4.1035,4.1035,4.1035,4.1035,4.1015,4.0965,4.0965,4.0932,4.0905,4.0992,4.1015,4.0965,4.1015,4.1033,4.1068,4.1068,4.1082,4.1108,4.1108,4.1108,4.1108,4.1108,4.1074,4.1011,0.0,0.0,0.0,0.0,0.0,0.0,0.0,0.0,0.0,0.0,0.0,0.0,0.0,0.0,0.0,0.0,0.0,0.0,2.6914,2.7676,2.8473,2.9212,2.9283,2.9698,3.0529,3.0595,3.0608,3.0606,3.0617,3.0608,3.0613,3.1448,3.1849,3.1888,3.2772,3.3148,3.32,3.4075,3.4449,3.4507,3.5309,3.5708,3.583,3.5888,3.5926,3.5994,3.6007,0.0,0.0,0.0,0.0,0.0,0.0,3.5611,3.5493,3.5493,3.5493,3.5493,3.5493,3.5507,3.5507,3.5565,3.6142,3.6757,3.6916,3.7693,3.8383,3.8455,3.9277,3.9961,0.0,0.0,4.1191,4.1191,4.1191,4.1191,4.119,4.1092,4.0996,0.0,0.0,0.0,0.0,0.0,0.0,4.1072,0.0,4.1057,4.119,4.1013,4.0929,4.0998,4.092,4.0901,4.0901,4.0901,4.0896,4.0896,4.0896,4.0896,4.0891,4.0901,4.0901,4.0901,4.0905,4.0932,4.0994,4.0994,4.1034,4.1091,4.1111,4.1108,4.1108,4.1108,4.1108,4.1085,0.0,0.0,0.0,0.0,0.0,0.0,0.0,0.0,0.0,0.0,0.0,0.0,0.0,0.0,0.0,0.0,0.0,0.0,2.6934,2.7148,2.7614,2.8444,2.9018,2.9392,2.9632,3.0316,3.0646,3.0606,3.0747,3.0778,3.0684,3.0992,3.1145,3.1184,3.2061,3.2393,3.2352,3.3233,3.3612,3.3684,3.4532,3.4939,3.508,3.5724,3.6001,3.6004,0.0,0.0,0.0,0.0,0.0,0.0,0.0,3.5573,3.5493,3.5493,3.5493,3.5493,3.5493,3.5501,3.5643,3.6238,3.6598,3.6958,3.7642,3.8554,3.9296,3.9348,4.0176,4.0879,0.0,0.0,0.0,4.1191,4.1191,0.0,4.1071,4.1021,0.0,4.0935,0.0,4.0849,4.0905,4.0859,0.0,0.0,4.0986,4.0999,4.1053,4.0949,4.0909,4.0922,4.0905,4.0901,4.0901,4.0844,4.0828,4.0828,4.0828,4.0827,4.0819,4.0922,4.095,4.0896,4.0944,4.0971,4.1001,4.1053,4.1074,4.1091,4.1097,4.1108,4.1108,4.1108,4.1108,4.1108,0.0,0.0,0.0,0.0,0.0,0.0,0.0,0.0,0.0,0.0,0.0,0.0,0.0,0.0,0.0,0.0,0.0,0.0,0.0,2.6387,2.6758,2.7637,2.8069,2.8476,2.8847,2.9755,3.0208,3.0157,3.066,3.0862,3.0795,3.0864,3.0898,3.0918,3.1406,3.1582,3.1562,3.2441,3.2823,0.0,0.0,3.433,3.4746,3.5234,3.5664,0.0,0.0,0.0,0.0,0.0,0.0,3.5603,3.5584,3.5545,3.5493,3.5493,0.0,3.5507,3.5501,3.5765,3.6131,3.6617,3.7343,3.8036,3.8527,3.9407,4.0134,4.0189,4.0736,0.0,4.1191,0.0,0.0,0.0,0.0,0.0,4.092,4.0877,4.0848,0.0,4.0759,0.0,4.077,4.0787,4.0831,0.0,4.0897,4.0937,4.0996,4.0906,4.0859,4.0898,4.0866,4.0852,4.0852,4.081,4.0801,4.081,4.0811,4.0789,4.0796,4.0885,4.0898,4.0858,0.0,4.0928,4.0959,4.1038,4.1072,4.1094,4.1099,4.1108,4.1108,4.1108,4.1108,4.1108,0.0,0.0,0.0,0.0,0.0,0.0,0.0,0.0,0.0,0.0,0.0,0.0,0.0,0.0,0.0,0.0,0.0,0.0,0.0,0.0,0.0,0.0,2.6934,2.7344,2.8105,2.8984,2.9473,2.9609,3.0351,3.0781,3.0898,3.0898,3.0898,3.0898,3.0898,3.0898,3.0957,3.1719,3.2031,3.2109,3.291,3.3691,3.4375,0.0,0.0,0.0,0.0,0.0,0.0,0.0,3.5661,3.5584,3.5526,3.5493,3.5493,3.5493,3.5493,3.5488,3.5502,3.6092,3.6752,3.6914,3.8132,3.933,3.945,4.0177,4.0805,4.083,0.0,4.1191,4.1191,4.1089,4.1007,4.1016,0.0,4.0818,4.079,4.0739,4.0696,4.0677,4.0641,4.0607,4.0621,4.0713,4.079,4.079,4.079,4.0848,4.0977,4.0848,4.0829,4.0868,4.0842,4.0803,4.0803,4.0808,4.0788,4.0803,4.0804,4.0796,4.08,4.0815,4.0818,4.0818,4.0818,4.0858,4.0915,4.0979,4.1041,4.1094,4.1099,4.1108,4.1108,4.1108,4.1108,4.1108,0.0,0.0,0.0,0.0,0.0,0.0,0.0,0.0,0.0,0.0,2.0781,2.1152,0.0,0.0,0.0,0.0,0.0,0.0,0.0,0.0,0.0,0.0,2.6621,2.707,2.7226,0.0,0.0,0.0,0.0,3.0195,3.0898,3.0898,3.0898,3.0898,3.0898,3.0898,3.0918,3.1055,3.1133,3.1191,3.2051,3.25,3.2715,0.0,0.0,0.0,0.0,0.0,0.0,0.0,3.5622,3.5526,3.5493,3.5493,3.5493,3.5493,3.5493,3.5488,3.5502,3.6138,3.6953,3.7607,3.8551,3.9514,4.0273,4.0639,0.0,0.0,4.1098,4.1191,4.1191,4.1185,4.1134,4.1012,0.0,0.0,0.0,0.0,4.0677,0.0,0.0,0.0,0.0,0.0,0.0,0.0,4.079,4.081,4.0829,4.081,4.081,4.081,4.0815,4.0808,4.0808,4.0804,4.0796,4.0796,4.0807,4.0807,4.0796,4.0867,4.0877,4.0877,4.0888,0.0,4.0974,4.0992,4.1045,4.1094,4.1099,4.1108,4.1108,4.1108,4.1108,4.1108,0.0,0.0,0.0,0.0,0.0,0.0,0.0,2.035,2.0378,2.0448,2.0513,2.0723,2.1172,2.1621,0.0,0.0,0.0,0.0,0.0,0.0,0.0,0.0,0.0,0.0,0.0,0.0,0.0,0.0,0.0,0.0,0.0,0.0,0.0,0.0,0.0,3.0898,3.0898,3.0898,3.0898,3.0937,3.1367,3.1797,0.0,0.0,0.0,0.0,0.0,0.0,0.0,0.0,3.5628,3.5565,3.5526,3.5493,3.5493,3.5493,3.5493,3.5488,3.5502,3.6433,3.7516,3.7896,3.8975,4.0057,4.0581,0.0,0.0,0.0,4.1116,4.1191,4.1191,0.0,0.0,0.0,0.0,0.0,0.0,0.0,0.0,0.0,0.0,0.0,0.0,0.0,0.0,0.0,4.0733,4.0759,4.079,4.079,4.0803,4.0796,4.0808,4.08,4.0804,4.0837,4.0818,4.0807,4.0839,4.0839,4.0848,4.0898,4.0908,4.0888,4.0932,4.0979,4.1,4.1035,4.1072,4.1094,4.1099,4.1108,4.1108,4.1108,4.1108,4.1108,0.0,0.0,0.0,0.0,0.0,0.0,0.0,2.0312,2.0331,2.0389,2.0453,2.0506,2.0586,2.1211,2.1699,0.0,0.0,0.0,0.0,0.0,0.0,0.0,0.0,0.0,0.0,0.0,0.0,0.0,0.0,0.0,0.0,0.0,0.0,0.0,0.0,0.0,0.0,3.0898,3.0898,0.0,0.0,0.0,0.0,0.0,0.0,0.0,0.0,0.0,0.0,0.0,3.5689,3.5622,3.5545,3.5526,3.5493,3.5493,3.5493,3.5488,3.5502,3.6708,3.8003,3.7993,3.9287,4.0581,4.0696,4.0784,0.0,0.0,4.1128,4.1191,4.1191,0.0,0.0,0.0,0.0,0.0,0.0,0.0,0.0,0.0,0.0,0.0,0.0,0.0,0.0,0.0,4.0668,4.0746,4.079,4.079,4.0803,4.0808,4.08,4.0804,4.0807,4.0877,4.0868,4.0828,4.0869,4.0898,4.0898,4.0898,4.0917,4.0924,4.0972,4.0994,4.1018,4.1066,4.1094,4.1092,4.1099,4.1108,4.1108,4.1108,4.1108,4.1108,0.0,0.0,0.0,0.0,0.0,0.0,0.0,2.0312,2.0331,2.0389,2.0418,2.0453,2.0585,2.0664,2.1035,0.0,0.0,0.0,0.0,0.0,0.0,0.0,0.0,0.0,0.0,0.0,0.0,0.0,0.0,0.0,0.0,0.0,0.0,0.0,0.0,0.0,0.0,0.0,0.0,0.0,0.0,0.0,0.0,0.0,0.0,0.0,0.0,0.0,0.0,0.0,0.0,3.568,3.5622,3.5565,3.5493,3.5493,0.0,0.0,3.5502,3.6708,3.8003,3.7993,3.9345,4.0696,4.0773,0.0,0.0,4.1143,4.119,4.1191,4.1191,4.1191,0.0,0.0,0.0,4.094,0.0,0.0,0.0,0.0,0.0,0.0,0.0,0.0,0.0,0.0,4.0746,4.079,4.079,4.079,4.079,4.0803,4.0792,4.0807,4.0807,4.0878,4.0898,4.0878,4.0907,4.0907,4.0907,4.0907,4.0932,4.1,4.0932,4.0986,0.0,4.1023,4.1054,4.1094,4.1091,4.1108,4.1108,4.1108,4.1108,4.1108,0.0,0.0,0.0,0.0,0.0,0.0,2.0312,2.0312,2.0331,2.0389,2.0408,2.0444,2.0585,2.0605,2.0742,0.0,0.0,0.0,0.0,0.0,0.0,0.0,0.0,0.0,0.0,0.0,0.0,0.0,0.0,0.0,0.0,0.0,0.0,0.0,0.0,0.0,0.0,0.0,0.0,0.0,0.0,0.0,0.0,0.0,0.0,0.0,0.0,0.0,0.0,0.0,0.0,0.0,3.5631,3.5565,0.0,0.0,3.5493,3.5507,3.5501,3.6733,3.7988,3.8003,3.935,4.0718,4.0792,0.0,4.1042,4.1179,4.1191,4.1191,4.1191,4.1191,4.1172,0.0,0.0,0.0,0.0,0.0,0.0,0.0,0.0,0.0,0.0,0.0,0.0,0.0,4.0713,4.0746,4.079,4.0796,4.0788,4.0792,4.0796,4.0818,4.0867,4.0888,4.0888,4.0907,4.0907,4.0907,4.0907,4.0907,4.0941,4.1007,4.096,4.1018,0.0,4.1073,4.1074,4.1108,4.1108,4.1108,4.1108,4.1108,4.1108,4.1108,0.0,0.0,0.0,0.0,0.0,2.0312,2.0312,2.0312,2.0331,2.0369,2.0388,2.0444,2.0566,2.0586,2.0605,2.0605,0.0,0.0,0.0,0.0,0.0,0.0,0.0,0.0,0.0,0.0,0.0,2.5703,2.5703,0.0,0.0,0.0,0.0,0.0,0.0,0.0,0.0,0.0,0.0,0.0,0.0,0.0,0.0,0.0,0.0,0.0,0.0,0.0,0.0,0.0,0.0,0.0,0.0,0.0,0.0,0.0,3.5493,3.5493,3.5493,3.6719,3.8007,3.8046,3.9407,4.0752,0.0,0.0,4.109,4.1185,4.1191,4.1191,4.1191,4.1191,4.1191,4.1191,0.0,4.1055,4.1055,0.0,0.0,0.0,0.0,0.0,0.0,0.0,0.0,4.0673,4.0687,4.0733,4.0803,4.0808,4.08,4.0804,4.0796,4.0807,4.0876,4.0897,4.0898,4.0898,4.0907,4.0907,4.0907,4.0907,4.0941,4.0987,4.0986,4.1022,0.0,4.1073,4.1073,4.1108,4.1108,4.1108,4.1108,4.1108,4.1108,4.1108,0.0,0.0,0.0,0.0,0.0,0.0,0.0,2.0312,2.0312,2.0312,2.0369,2.0425,2.0488,2.0566,2.0605,2.0605,0.0,0.0,0.0,0.0,0.0,0.0,0.0,0.0,0.0,0.0,2.5625,2.5703,2.5703,2.5703,2.5703,0.0,0.0,0.0,0.0,0.0,0.0,0.0,0.0,0.0,0.0,0.0,0.0,0.0,0.0,0.0,0.0,0.0,0.0,0.0,0.0,0.0,0.0,0.0,0.0,0.0,3.5493,3.5493,3.5493,3.6719,3.8027,3.8157,3.9503,4.0831,0.0,0.0,4.1191,4.1191,4.1191,4.1191,4.1191,4.1191,4.1191,4.1191,4.1191,0.0,4.1191,0.0,0.0,0.0,0.0,0.0,0.0,0.0,0.0,4.0607,4.0668,0.0,4.0788,4.08,4.0808,4.0803,4.0792,4.0796,4.08,4.0876,4.0907,4.0907,4.0898,4.0907,4.0907,4.0907,4.0941,4.1007,4.0932,4.0986,0.0,4.1023,4.1034,4.1108,4.1108,4.1108,4.1108,4.1108,4.1108,4.1108,0.0,0.0,0.0,0.0,0.0,0.0,0.0,2.0312,2.0331,2.0369,2.0383,2.0444,2.0565,2.0586,2.0605,2.0605,0.0,0.0,0.0,0.0,0.0,0.0,0.0,0.0,0.0,0.0,2.5625,2.5703,2.5703,2.5703,2.5703,2.5703,2.5859,0.0,0.0,0.0,0.0,0.0,0.0,0.0,0.0,0.0,0.0,0.0,0.0,0.0,0.0,0.0,0.0,0.0,0.0,0.0,0.0,0.0,0.0,0.0,0.0,0.0,3.618,3.7142,3.8161,3.8849,3.9927,4.0834,4.0969,0.0,4.1191,4.1191,4.1191,4.1191,4.1191,4.1191,4.1191,4.1191,4.1191,0.0,0.0,0.0,0.0,0.0,0.0,0.0,0.0,0.0,4.0626,4.0668,4.0733,4.079,4.0803,4.0812,4.0792,4.0808,4.08,4.0812,4.08,4.0812,4.0834,4.0837,4.0828,4.0858,4.0898,4.0898,4.0943,4.1007,4.0932,4.0986,4.1094,4.1023,4.1034,4.1108,4.1108,4.1108,4.1108,4.1108,4.1108,4.1108,0.0,0.0,0.0,0.0,0.0,0.0,0.0,2.0312,2.0312,2.0369,2.0378,2.0434,2.0529,2.0565,2.0605,2.0605,0.0,0.0,0.0,0.0,0.0,0.0,0.0,0.0,0.0,2.5381,2.5619,2.5703,2.5703,2.5703,2.5703,2.5703,2.5703,2.5723,2.6269,0.0,0.0,0.0,0.0,0.0,0.0,0.0,3.0898,0.0,0.0,0.0,0.0,0.0,0.0,0.0,0.0,0.0,0.0,0.0,0.0,0.0,3.5661,0.0,0.0,3.718,3.8272,3.8878,3.9953,0.0,0.0,0.0,4.1191,4.1191,4.1191,4.1191,4.1191,4.1191,4.1191,4.1191,4.1191,0.0,0.0,0.0,0.0,0.0,0.0,0.0,0.0,0.0,4.0646,4.0725,4.0752,4.0771,4.0815,4.0812,4.0807,4.0839,4.0846,4.0843,4.08,4.0843,4.0834,4.0807,4.0828,4.0868,4.0898,4.0898,4.0926,4.0964,4.0915,4.0955,0.0,4.1019,4.1034,4.1108,4.1108,4.1081,4.107,4.1085,4.1081,4.107,0.0,0.0,0.0,0.0,0.0,0.0,0.0,0.0,2.0312,2.0312,2.0357,2.0402,2.0418,2.0516,2.0605,2.0605,0.0,0.0,0.0,0.0,0.0,0.0,0.0,0.0,0.0,2.5085,2.5577,2.5703,2.5703,2.5703,2.5703,2.5703,2.5703,2.5703,2.5703,0.0,0.0,0.0,0.0,0.0,0.0,0.0,0.0,0.0,0.0,0.0,0.0,0.0,0.0,0.0,0.0,0.0,0.0,0.0,0.0,0.0,0.0,0.0,0.0,0.0,0.0,0.0,0.0,0.0,0.0,0.0,0.0,0.0,0.0,4.1191,4.1191,4.1191,4.1191,4.1191,0.0,0.0,0.0,0.0,0.0,0.0,0.0,0.0,0.0,0.0,4.0651,4.0803,4.0739,4.072,4.0812,4.0792,4.0839,4.089,4.0897,4.0867,4.0812,4.0867,4.0877,4.0807,4.0859,4.0907,4.0907,4.0907,4.0907,0.0,4.0917,4.0935,4.0991,4.1013,4.1034,4.1108,4.1088,4.1042,4.1019,4.107,4.1061,4.1,0.0,0.0,0.0,0.0,0.0,0.0,0.0,0.0,0.0,0.0,2.0349,2.0418,2.0479,2.0546,2.0605,0.0,0.0,0.0,0.0,0.0,0.0,0.0,0.0,0.0,0.0,2.5148,2.5626,2.5703,2.5703,2.5703,2.5703,2.5703,2.5703,2.5703,2.5703,2.668,0.0,0.0,0.0,0.0,0.0,0.0,0.0,0.0,0.0,0.0,3.2793,3.3398,0.0,0.0,0.0,0.0,0.0,0.0,0.0,0.0,3.5915,3.5911,3.5853,0.0,3.8481,3.921,4.0196,0.0,0.0,0.0,0.0,0.0,0.0,0.0,0.0,0.0,0.0,0.0,0.0,0.0,0.0,0.0,0.0,0.0,0.0,0.0,0.0,4.0733,4.0699,4.0783,4.0792,4.0781,4.0791,4.0848,4.0885,4.0898,4.0898,4.089,4.0876,4.0885,4.0878,4.0807,4.0818,4.0858,4.0898,4.0898,4.0908,4.0888,4.0937,4.0998,4.0994,4.1069,4.1092,4.1088,4.1033,4.1006,4.0994,4.1031,4.1006,4.1,0.0,0.0,0.0,0.0,0.0,0.0,0.0,0.0,0.0,0.0,0.0,0.0,0.0,0.0,0.0,0.0,0.0,0.0,0.0,0.0,0.0,0.0,0.0,0.0,2.3734,2.4976,2.5622,2.5703,2.5703,2.5703,2.5703,2.5703,2.5703,2.5723,2.6543,2.7422,0.0,0.0,0.0,0.0,3.0898,0.0,0.0,0.0,0.0,0.0,3.2383,3.3086,0.0,3.4941,3.5664,3.5996,0.0,0.0,0.0,0.0,3.5978,3.5985,3.5965,3.7161,3.856,3.9062,4.0146,4.111,0.0,0.0,0.0,0.0,0.0,0.0,0.0,0.0,0.0,0.0,0.0,0.0,0.0,0.0,0.0,0.0,0.0,0.0,0.0,0.0,4.0837,4.0935,4.0876,4.0867,4.0894,4.0909,4.0935,4.0988,4.0969,4.0915,4.0858,4.0918,4.0913,4.0848,4.0858,4.0849,4.0908,4.0908,4.0926,4.0945,4.0981,4.1007,4.1013,4.1074,4.1082,4.1052,4.1047,4.0974,4.0876,4.1006,4.098,4.094,0.0,0.0,0.0,0.0,0.0,0.0,0.0,0.0,0.0,0.0,0.0,0.0,0.0,0.0,0.0,0.0,0.0,0.0,0.0,0.0,0.0,0.0,0.0,2.3035,2.3099,2.4756,2.5632,2.5703,2.5703,2.5703,2.5703,2.5703,2.5703,2.5781,2.7519,2.8301,0.0,0.0,0.0,0.0,3.0898,0.0,0.0,0.0,0.0,0.0,0.0,0.0,0.0,3.4414,3.5273,3.5996,3.5996,0.0,0.0,0.0,0.0,0.0,3.6009,3.7266,3.8594,3.8594,3.9902,4.1191,0.0,0.0,0.0,0.0,0.0,0.0,0.0,0.0,0.0,0.0,0.0,0.0,0.0,0.0,0.0,0.0,0.0,0.0,4.1028,4.0965,4.096,4.1081,4.0974,4.093,4.1004,4.095,4.0979,4.1074,4.1023,4.0933,4.0819,4.0933,4.0979,4.0888,4.0898,4.0907,4.0907,4.0906,4.0945,4.0992,0.0,0.0,4.1011,4.1047,4.1035,4.0993,4.1025,4.0874,4.0711,4.0955,4.0948,4.0809,0.0,0.0,0.0,0.0,0.0,0.0,0.0,0.0,0.0,0.0,0.0,0.0,0.0,0.0,0.0,0.0,0.0,0.0,0.0,0.0,0.0,0.0,2.2185,2.3095,2.3107,2.4806,2.5699,2.5703,2.5703,2.5703,2.5703,2.5703,2.5703,2.5781,2.7519,2.8301,2.8418,3.0156,3.0898,3.0898,3.0898,0.0,0.0,0.0,0.0,0.0,0.0,0.0,0.0,3.4414,3.5273,3.5996,3.5996,0.0,0.0,0.0,0.0,0.0,3.6007,3.7262,3.8594,3.8594,3.9902,4.1191,0.0,0.0,0.0,0.0,0.0,0.0,0.0,0.0,0.0,0.0,0.0,0.0,0.0,0.0,0.0,0.0,0.0,0.0,4.1179,4.1052,4.0996,4.1013,4.1006,4.0986,4.0992,4.099,4.099,4.1014,4.1015,4.0955,4.0887,4.0955,4.0978,4.0898,4.0907,4.0907,4.0888,4.0964,4.0981,4.1,0.0,4.1074,4.1071,4.0959,4.0968,4.0979,4.077,4.0655,4.063,4.0801,4.0791,4.0762,0.0,0.0,0.0,0.0,0.0,0.0,0.0,0.0,0.0,0.0,0.0,0.0,0.0,0.0,0.0,0.0,0.0,0.0,0.0,0.0,0.0,2.1289,2.248,2.3139,2.3108,2.4818,2.5703,2.5703,2.5703,2.5703,2.5703,2.5703,2.5957,2.6465,2.7734,2.8555,2.9082,3.0351,3.0898,3.0898,0.0,0.0,0.0,0.0,0.0,0.0,0.0,0.0,0.0,0.0,3.4883,3.5996,3.5996,0.0,0.0,0.0,0.0,0.0,3.5996,3.7266,3.8594,3.8594,3.9902,0.0,0.0,0.0,0.0,0.0,0.0,0.0,0.0,0.0,0.0,0.0,0.0,0.0,0.0,0.0,0.0,0.0,0.0,4.1191,4.1146,4.1111,4.109,4.106,4.1048,4.1052,4.1051,4.1015,4.1015,4.1051,4.1015,4.0991,4.1003,4.1046,4.1013,4.0945,4.0943,4.0943,4.0971,4.0987,4.0998,4.1007,0.0,4.1038,4.0992,4.0921,4.0839,4.0726,4.0672,4.0636,4.063,4.084,4.0902,4.0926,0.0,0.0,0.0,0.0,0.0,0.0,0.0,0.0,0.0,0.0,0.0,0.0,0.0,0.0,0.0,0.0,0.0,0.0,0.0,0.0,2.0996,2.1855,2.2734,2.3262,2.3398,2.4902,2.5703,2.5703,2.5703,2.5703,2.5703,2.5703,2.6172,2.7031,2.791,2.8789,2.9668,3.0527,3.0898,3.0898,0.0,0.0,0.0,0.0,0.0,0.0,0.0,0.0,0.0,0.0,0.0,0.0,0.0,0.0,0.0,3.5996,3.5996,3.5996,3.5996,3.7266,3.8594,3.8594,0.0,0.0,0.0,0.0,0.0,0.0,0.0,0.0,0.0,0.0,0.0,0.0,0.0,0.0,0.0,0.0,0.0,0.0,0.0,4.1171,4.1121,4.1167,4.1168,4.1099,4.1094,4.1108,4.1108,4.1048,4.1048,4.1108,4.1045,4.1035,4.108,4.1082,4.1051,4.0991,4.1007,4.0996,4.0996,4.1003,4.0994,4.0994,4.1011,4.0974,4.0897,4.0878,4.0715,4.0506,4.0597,4.063,4.0649,4.0876,4.102,4.107,0.0,0.0,0.0,0.0,0.0,0.0,0.0,0.0,0.0,0.0,0.0,0.0,0.0,0.0,0.0,0.0,0.0,0.0,0.0,0.0,2.0996,2.1855,2.2734,2.3555,2.4297,2.5215,2.5703,2.5703,2.5703,2.5703,2.5703,2.5703,2.6172,2.7031,2.791,2.8789,2.9668,3.0527,3.0898,3.0898,3.0898,0.0,0.0,0.0,0.0,0.0,0.0,0.0,0.0,0.0,0.0,0.0,0.0,0.0,3.5996,3.5996,3.5996,3.5996,3.5996,3.7266,3.8594,3.8594,0.0,0.0,0.0,0.0,0.0,0.0,0.0,0.0,0.0,0.0,0.0,0.0,0.0,0.0,0.0,0.0,0.0,0.0,4.1191,4.1191,4.1191,4.1144,4.1101,4.1093,4.1103,4.1108,4.1108,4.1091,4.1108,4.1094,4.1105,4.1062,4.1001,4.1011,4.1007,4.0996,4.0996,4.0996,4.1003,4.1,4.1008,4.0992,4.1074,4.1019,4.0896,4.0779,4.063,4.0496,4.0425,4.0523,4.0707,4.0858,4.0953,4.102,0.0,0.0,0.0,0.0,0.0,0.0,0.0,0.0,0.0,0.0,0.0,0.0,0.0,0.0,0.0,0.0,0.0,0.0,0.0,0.0,2.1777,2.2617,2.3477,2.4336,2.5195,2.5527,2.5703,2.5703,2.5703,2.5703,2.5703,2.625,2.6973,2.7851,2.8711,2.959,3.043,3.0762,3.0898,3.0898,3.0898,3.0898,0.0,0.0,0.0,0.0,0.0,0.0,0.0,0.0,3.5019,3.5996,3.5996,3.5996,3.5996,3.5996,3.5996,3.5996,3.5996,3.7266,3.8594,3.8594,0.0,0.0,0.0,0.0,0.0,0.0,0.0,0.0,0.0,0.0,0.0,0.0,0.0,0.0,0.0,0.0,0.0,4.1144,4.117,4.1171,4.1144,4.1147,4.1147,4.1103,4.1103,4.1099,4.1111,4.1104,4.1101,4.1104,4.1094,4.1092,4.106,4.1026,4.0994,4.0999,4.1,4.1022,4.1057,4.1054,4.1069,4.1068,4.1006,4.0887,4.0776,4.0623,4.0504,4.0377,4.0441,4.0549,4.0713,4.0759,4.083,4.0888,0.0,0.0,0.0,0.0,0.0,0.0,0.0,0.0,0.0,0.0,0.0,0.0,0.0,0.0,0.0,0.0,0.0,0.0,2.0605,2.1426,2.2266,2.3066,2.3926,2.4805,2.5684,2.5703,2.5703,2.5703,2.5703,2.584,2.6113,2.6719,2.7617,2.873,2.9336,3.0078,3.0898,3.0898,3.0898,3.0898,3.0898,3.0898,0.0,0.0,0.0,0.0,0.0,0.0,0.0,0.0,3.5224,3.5966,3.5918,3.5906,3.5908,3.5957,3.5976,3.5976,3.5996,3.7266,0.0,0.0,0.0,0.0,0.0,0.0,0.0,0.0,0.0,0.0,0.0,0.0,0.0,0.0,0.0,0.0,0.0,0.0,4.1151,4.1114,4.1144,4.1147,4.1097,4.1146,4.1147,4.1097,4.1101,4.1099,4.1111,4.1101,4.1101,4.1104,4.1099,4.1093,4.108,4.1019,4.1008,4.0994,4.0992,4.1049,4.1091,4.1074,4.108,4.1085,4.0964,4.0828,4.0681,4.0564,4.0411,4.0309,4.0454,4.0564,4.0626,4.0715,4.0757,4.0781,0.0,0.0,0.0,0.0,0.0,0.0,0.0,0.0,0.0,0.0,0.0,0.0,0.0,0.0,0.0,0.0,0.0,0.0,2.0605,2.1426,2.2266,2.3086,2.3945,2.4824,2.5684,2.5703,2.5703,2.5703,2.5703,2.6152,2.6992,2.7012,2.7949,2.9609,2.9609,3.0098,3.0898,3.0898,3.0898,3.0898,3.0898,3.0898,3.0898,0.0,0.0,0.0,0.0,0.0,0.0,0.0,3.5137,3.5862,3.5732,3.5703,3.5735,3.5854,3.5898,3.5918,3.5976,3.7266,0.0,0.0,0.0,0.0,0.0,0.0,0.0,0.0,0.0,0.0,0.0,0.0,0.0,0.0,0.0,0.0,0.0,4.1133,4.1092,4.1094,4.1108,4.1094,4.1107,4.1097,4.1097,4.1107,4.1097,4.1108,4.1108,4.1108,4.1104,4.1094,4.1094,4.1066,4.1001,4.0999,4.1007,4.0998,4.0999,4.1043,4.1091,4.1029,4.1034,4.1085,4.0964,4.0828,4.0681,4.0564,4.0408,4.0306,4.045,4.0504,4.0531,4.0723,4.0757,4.0718,0.0,0.0,0.0,0.0,0.0,0.0,0.0,0.0,0.0,0.0,0.0,0.0,0.0,0.0,0.0,0.0,0.0,0.0,2.1465,2.2324,2.3164,2.3984,2.4844,2.5449,2.5684,2.5703,2.5703,2.5703,2.5703,2.6152,2.7012,2.7637,2.8516,2.9629,3.0234,3.0664,3.0898,3.0898,3.0898,3.0898,3.0794,3.0765,3.082,0.0,0.0,0.0,0.0,0.0,0.0,0.0,0.0,0.0,3.57,3.5697,3.5709,3.5756,3.5821,3.5898,3.5918,0.0,0.0,0.0,0.0,0.0,0.0,0.0,0.0,0.0,0.0,0.0,0.0,0.0,0.0,0.0,0.0,0.0,0.0,4.1101,4.1099,4.1091,4.1108,4.1091,4.1097,4.1091,4.1091,4.1097,4.1091,4.1108,4.1108,4.1108,4.1108,4.1104,4.1054,4.1029,4.0994,4.0947,4.0948,4.0994,4.0994,4.1035,4.1108,4.1085,4.1037,4.0945,4.0819,4.0681,4.0549,4.0413,4.0326,4.0288,4.0341,4.0411,4.0518,4.0573,4.0564,4.0559,0.0,0.0,0.0,0.0,0.0,0.0,0.0,0.0,0.0,0.0,0.0,0.0,0.0,0.0,0.0,0.0,0.0,0.0,0.0,2.3027,2.3887,2.4375,2.5234,2.5703,2.5703,2.5703,2.5703,2.5703,2.6055,2.666,2.7539,2.8418,2.9277,3.0137,3.0664,3.0898,3.0898,3.0898,3.0868,3.0847,3.1118,3.12,3.1268,0.0,0.0,0.0,0.0,0.0,0.0,0.0,0.0,0.0,3.5641,3.5622,3.5641,3.568,3.5757,3.5914,3.6344,0.0,0.0,0.0,0.0,0.0,0.0,0.0,0.0,0.0,0.0,0.0,0.0,0.0,0.0,0.0,0.0,0.0,0.0,4.1097,4.1108,4.1108,4.1108,4.1108,4.1108,4.1108,4.1108,4.1108,4.1108,4.1108,4.1108,4.1108,4.1108,4.1108,4.1054,4.103,4.0991,4.0953,4.0967,4.0996,4.1003,4.1047,4.1097,4.1066,4.0994,4.0898,4.0694,4.0549,4.0413,4.0328,4.0291,4.0307,4.0307,4.0379,4.0449,4.0502,4.0499,4.0511,0.0,0.0,0.0,0.0,0.0,0.0,0.0,0.0,0.0,0.0,0.0,0.0,0.0,0.0,0.0,0.0,0.0,0.0,0.0,0.0,2.4434,2.4512,2.5273,2.5703,2.5703,2.5703,2.5742,2.582,2.6602,2.7441,2.832,2.9199,3.0078,3.0898,3.0897,3.0875,3.0895,3.0955,3.0921,3.0887,3.1751,3.2045,3.2097,3.2968,0.0,0.0,0.0,0.0,0.0,0.0,0.0,0.0,3.5526,3.5493,3.5526,3.5661,3.5694,3.5921,0.0,0.0,0.0,0.0,0.0,0.0,0.0,0.0,0.0,0.0,0.0,0.0,0.0,0.0,0.0,0.0,0.0,0.0,4.1093,4.1103,4.1108,4.1108,4.1108,4.1108,4.1108,4.1108,4.1108,4.1108,4.1108,4.1108,4.1108,4.1108,4.1108,4.1108,4.1091,4.1072,4.0994,4.0991,4.0994,4.1001,4.1001,4.1035,4.1096,4.1013,4.093,4.0849,4.0588,4.0413,4.031,4.031,4.0291,4.0307,4.0307,4.0344,4.0415,4.0485,4.0502,4.0502,0.0,0.0,0.0,0.0,0.0,0.0,0.0,0.0,0.0,0.0,0.0,0.0,0.0,0.0,0.0,0.0,0.0,0.0,0.0,0.0,2.4707,2.5391,2.5605,2.5703,2.5703,2.5703,2.6035,2.6719,2.6914,2.7441,2.832,2.9199,3.0078,3.0898,3.0795,3.0742,3.0771,3.1424,3.1663,3.1712,3.249,3.2775,3.2846,3.368,3.4103,0.0,0.0,0.0,0.0,0.0,0.0,0.0,3.5493,3.5493,3.5526,3.5545,3.5565,3.5815,0.0,0.0,0.0,0.0,0.0,0.0,0.0,0.0,0.0,0.0,0.0,0.0,0.0,0.0,0.0,0.0,0.0,4.1091,4.1097,4.1094,4.1108,4.1108,4.1108,4.1108,4.1108,4.1108,4.1108,4.1108,4.1108,4.1108,4.1108,4.1108,4.1108,4.1108,4.1107,4.1073,4.0991,4.0991,4.0994,4.1001,4.1051,4.1089,4.1091,4.0974,4.0801,4.0579,4.0413,4.0328,4.031,4.031,4.0291,4.031,4.0289,4.0307,4.0325,4.0415,4.0449,4.0502,0.0,0.0,0.0,0.0,0.0,0.0,0.0,0.0,0.0,0.0,0.0,0.0,0.0,0.0,0.0,0.0,0.0,0.0,0.0,0.0,0.0,2.5684,2.5703,2.5703,2.5703,2.6113,2.6543,2.6992,2.7832,2.8476,2.8945,2.9805,3.0435,3.08,3.0743,3.091,3.1295,3.1718,3.2097,3.2493,3.3301,3.3596,3.3667,3.4507,3.4814,3.4872,3.5353,0.0,0.0,0.0,0.0,0.0,0.0,0.0,3.5526,3.5545,3.5566,3.5883,0.0,0.0,0.0,0.0,0.0,0.0,0.0,0.0,0.0,0.0,0.0,0.0,0.0,0.0,0.0,0.0,0.0,4.1108,4.1108,4.1108,4.1108,4.1108,4.1108,4.1108,4.1108,4.1108,4.1108,4.1108,4.1108,4.1108,4.1108,4.1108,4.1108,4.1108,4.1103,4.1074,4.1048,4.1048,4.1048,4.1051,4.1074,4.1035,4.0918,4.0849,4.068,4.0489,4.0363,4.031,4.031,4.031,4.0291,4.0309,4.0289,4.0307,4.0307,4.0379,4.0396,4.0396,0.0,0.0,0.0,0.0,0.0,0.0,0.0,0.0,0.0,0.0,0.0,0.0,0.0,0.0,0.0,0.0,0.0,0.0,0.0,0.0,0.0,2.5672,2.5679,2.5661,2.5661,2.6523,2.7051,2.7207,2.8809,0.0,0.0,0.0,3.0808,3.0681,3.0664,3.1109,3.1885,3.202,3.25,3.3288,3.4159,3.4461,3.4507,3.5238,3.5493,3.5493,3.5493,3.5493,3.5493,3.5493,0.0,0.0,0.0,0.0,3.5526,3.5584,3.568,3.6161,0.0,0.0,0.0,0.0,0.0,0.0,0.0,0.0,0.0,0.0,0.0,0.0,0.0,0.0,0.0,0.0,4.1108,4.1108,4.1108,4.1108,4.1108,4.1108,4.1108,4.1108,4.1108,4.1108,4.1108,4.1108,4.1108,4.1108,4.1108,4.1108,4.1108,4.1108,4.1108,4.1101,4.1094,4.1093,4.1093,4.1094,4.1073,4.094,4.071,4.0672,4.0596,4.046,4.0364,4.031,4.031,4.031,4.0291,4.0289,4.0289,4.0289,4.0308,4.0344,4.0344,4.0307,0.0,0.0,0.0,0.0,0.0,0.0,0.0,0.0,0.0,0.0,0.0,0.0,0.0,0.0,0.0,0.0,0.0,0.0,0.0,0.0,0.0,2.5605,2.5568,2.5535,2.5535,2.6438,2.7285,2.8047,0.0,0.0,0.0,0.0,0.0,3.06,0.0,3.1013,3.1859,3.2494,3.3256,3.4122,3.4993,3.532,3.5353,3.5468,3.5493,3.5493,3.5493,3.5493,3.5493,3.5493,3.5493,0.0,0.0,0.0,3.5493,3.5526,3.6007,0.0,0.0,0.0,0.0,0.0,0.0,0.0,0.0,0.0,0.0,0.0,0.0,0.0,0.0,0.0,0.0,4.1108,4.1108,4.1108,4.1108,4.1108,4.1108,4.1108,4.1108,4.1108,4.1108,4.1108,4.1108,4.1108,4.1108,4.1108,4.1108,4.1108,4.1108,4.1108,4.1108,4.1101,4.1094,4.1105,4.1105,4.1094,4.0972,4.084,4.071,4.0571,4.0454,4.0328,4.031,4.031,4.031,4.031,4.031,4.0291,4.0291,4.0291,4.0291,4.031,4.0309,4.0289,0.0,0.0,0.0,0.0,0.0,0.0,0.0,0.0,0.0,0.0,0.0,0.0,0.0,0.0,0.0,0.0,0.0,0.0,0.0,0.0,0.0,2.5543,2.5509,2.5732,2.6227,2.7149,2.8053,2.8926,0.0,0.0,0.0,3.0623,3.0593,0.0,0.0,0.0,0.0,3.3276,3.4122,3.4968,3.5353,3.5493,3.5493,3.5493,3.5493,3.5493,3.5493,3.5493,3.5493,3.5493,3.5493,3.5493,3.5493,0.0,0.0,0.0,0.0,0.0,0.0,0.0,0.0,0.0,0.0,0.0,0.0,0.0,0.0,0.0,0.0,0.0,0.0,0.0,0.0,4.1108,4.1108,4.1108,4.1108,4.1108,4.1108,4.1108,4.1108,4.1108,4.1108,4.1108,4.1108,4.1108,4.1108,4.1108,4.1108,4.1108,4.1108,4.1108,4.1108,4.1097,4.1105,4.1097,4.1097,4.1105,4.0896,4.0772,4.0679,4.0481,4.0363,4.031,4.031,4.031,4.031,4.031,4.031,4.031,4.031,4.031,4.031,4.031,4.0291,4.0234,0.0,0.0,0.0,0.0,0.0,0.0,0.0,0.0,0.0,0.0,0.0,0.0,0.0,0.0,0.0,0.0,0.0,0.0,0.0,0.0,0.0,2.5813,2.5793,2.6187,2.7061,2.8028,2.8817,0.0,0.0,0.0,3.061,3.0567,3.066,0.0,3.1513,0.0,0.0,0.0,0.0,0.0,3.5493,3.5493,3.5493,3.5493,3.5493,3.5493,3.5493,3.5493,3.5493,3.5493,3.5493,3.5493,3.5493,3.5493,0.0,0.0,0.0,0.0,0.0,0.0,0.0,0.0,0.0,0.0,0.0,0.0,0.0,0.0,0.0,0.0,0.0,0.0,4.1108,4.1108,4.1108,4.1108,4.1108,4.1108,4.1108,4.1108,4.1108,4.1108,4.1108,4.1108,4.1108,4.1108,4.1108,4.1108,4.1108,4.1108,4.1108,4.1108,4.1108,4.1108,4.1108,4.1108,4.1085,4.1051,4.0799,4.0688,4.0641,4.0411,4.031,4.031,4.031,4.0253,4.0196,4.0272,4.0253,4.0215,4.0272,4.031,4.031,4.0272,4.0253,4.0234,0.0,0.0,0.0,0.0,0.0,0.0,0.0,0.0,0.0,0.0,0.0,0.0,0.0,0.0,2.5303,2.5303,2.5303,2.532,2.5409,2.5404,2.5783,2.661,2.6572,0.0,2.7813,2.8827,2.9367,0.0,0.0,0.0,3.0683,3.0633,3.0994,3.1744,3.1705,3.216,3.2968,0.0,0.0,0.0,0.0,3.5493,0.0,3.5493,3.5493,3.5493,0.0,3.5493,3.5493,3.5493,3.5493,3.5493,3.5493,0.0,0.0,0.0,0.0,0.0,0.0,0.0,0.0,0.0,0.0,0.0,0.0,0.0,0.0,0.0,0.0,0.0,0.0,0.0,4.1108,4.1108,4.1108,4.1108,4.1108,4.1108,4.1108,4.1108,4.1108,4.1108,4.1108,4.1108,4.1108,4.1108,4.1108,4.1108,4.1108,4.1108,4.1108,4.1108,4.1108,4.1108,4.1108,4.1108,4.1046,4.0915,4.0781,4.0629,4.0511,4.0362,4.031,4.031,4.031,4.0157,3.9935,4.0215,4.0157,3.9935,4.0196,4.031,4.0291,4.0234,4.0253,4.0291,0.0,0.0,0.0,0.0,0.0,0.0,0.0,0.0,0.0,0.0,0.0,0.0,0.0,2.5303,2.5303,2.5303,2.5841,2.6198,2.6158,2.6737,2.7187,2.7467,2.7448,2.7813,2.864,2.9055,2.9555,0.0,0.0,3.0621,3.0583,3.1083,3.1468,3.1763,3.2256,3.2929,3.3795,3.4661,0.0,0.0,0.0,0.0,0.0,0.0,0.0,0.0,0.0,0.0,0.0,3.6276,3.6642,0.0,0.0,0.0,0.0,0.0,0.0,0.0,0.0,0.0,0.0,0.0,0.0,0.0,0.0,0.0,0.0,0.0,0.0,0.0,0.0,4.0998,4.1108,4.1108,4.1108,4.1108,4.1108,4.1108,4.1108,4.1108,4.1108,4.1108,4.1108,4.1108,4.1108,4.1108,4.1108,4.1108,4.1108,4.1108,4.1108,4.1108,4.1108,4.1108,4.1108,4.1018,4.0941,4.0909,4.0688,4.0549,4.0496,4.0362,4.031,4.0291,4.0118,3.9996,3.9914,4.0176,4.0138,3.9935,4.0215,4.0272,4.0234,4.0253,4.0234,4.0195,0.0,0.0,0.0,0.0,0.0,0.0,0.0,0.0,0.0,0.0,0.0,0.0,0.0,0.0,2.5851,2.6159,2.6745,2.7072,2.7044,2.7629,2.8071,2.8294,2.8294,2.8679,2.9525,2.9325,2.9629,0.0,0.0,0.0,0.0,3.1475,3.2025,3.2564,3.3103,3.366,0.0,0.0,0.0,3.5493,0.0,0.0,3.5532,0.0,0.0,0.0,0.0,0.0,0.0,0.0,0.0,0.0,0.0,0.0,0.0,0.0,0.0,0.0,0.0,0.0,0.0,0.0,0.0,0.0,0.0,0.0,0.0,0.0,0.0,0.0,4.0759,4.0926,4.1076,4.1104,4.1108,4.1108,4.1108,4.1108,4.1108,4.1108,4.1108,4.1108,4.1108,4.1108,4.1108,4.1108,4.1108,0.0,4.1108,4.1108,4.1108,4.1108,4.1108,4.1108,4.1108,4.0972,4.0875,4.0835,4.0623,4.0466,4.0441,4.0345,4.031,4.0291,4.0017,3.9848,3.9785,4.0057,3.9996,3.9785,4.0137,4.0253,4.0234,4.0234,4.0196,4.0176,0.0,0.0,0.0,0.0,0.0,0.0,0.0,0.0,0.0,2.5312,0.0,0.0,0.0,0.0,0.0,2.7832,2.7909,2.7928,2.7928,2.7948,2.8313,2.9102,2.914,2.9525,3.0379,2.9621,2.964,0.0,0.0,0.0,0.0,0.0,3.2686,3.4199,3.4218,3.4237,3.4295,0.0,3.5493,3.5493,0.0,3.5512,3.5603,0.0,0.0,0.0,3.77,3.8027,0.0,3.8046,0.0,0.0,0.0,0.0,0.0,0.0,0.0,0.0,0.0,0.0,0.0,0.0,0.0,0.0,0.0,0.0,0.0,0.0,0.0,0.0,4.0688,4.0856,4.1007,4.1074,4.1108,4.1108,4.1111,4.1111,4.1111,4.1111,4.1111,4.1108,4.1108,4.1108,4.1108,4.1108,4.1108,4.1108,4.1108,4.1108,4.1108,4.1108,4.1108,4.1108,4.1088,4.0967,4.0816,4.0679,4.0557,4.0425,4.031,4.031,4.031,4.0272,4.0017,3.9739,3.9532,3.9785,3.9739,3.9575,4.0017,4.0253,4.0272,4.0157,4.0195,4.0291,0.0,0.0,0.0,0.0,0.0,0.0,0.0,0.0,0.0,0.0,0.0,0.0,2.7505,2.7544,2.764,2.7871,2.8429,2.8775,2.8775,2.9352,2.9813,3.0025,3.0044,3.016,3.0379,3.0179,3.0198,3.0417,0.0,0.0,3.1756,3.2968,0.0,0.0,3.4853,3.5141,3.5161,3.5411,0.0,0.0,3.6142,3.6026,0.0,0.0,0.0,0.0,0.0,3.8411,3.8931,0.0,3.9335,3.9796,0.0,0.0,0.0,0.0,0.0,0.0,4.0489,0.0,0.0,0.0,0.0,0.0,0.0,0.0,0.0,0.0,0.0,4.0588,4.0668,4.075,4.0798,4.0871,4.1008,4.1094,4.1103,4.1103,4.1103,4.1103,4.1101,4.1097,4.1111,4.1108,4.1108,0.0,4.1108,4.1108,4.1108,4.1108,4.1108,4.1108,4.1047,4.1,4.0967,4.0772,4.0648,4.0544,4.0419,4.0344,4.031,4.031,4.031,4.0272,3.9826,3.9693,3.9804,3.987,3.987,3.9807,4.0157,4.0253,4.0234,4.0234,4.0215,4.0157,0.0,0.0,0.0,0.0,0.0,0.0,2.5965,2.6579,2.7025,0.0,0.0,0.0,2.8352,2.8736,2.8948,2.8948,2.9371,2.964,2.964,3.0121,3.0398,3.0398,3.0398,3.0398,3.0398,3.0398,3.0571,3.0948,3.1448,3.2064,3.2756,3.3737,3.4391,0.0,0.0,0.0,0.0,0.0,0.0,0.0,3.6507,0.0,0.0,3.8027,3.8238,0.0,0.0,0.0,3.9796,3.9796,4.0104,0.0,0.0,0.0,0.0,0.0,0.0,0.0,0.0,0.0,0.0,0.0,0.0,0.0,4.0356,4.0406,0.0,0.0,4.0406,4.0519,4.0602,4.0673,4.072,4.0757,4.0888,4.1,4.1043,4.1051,4.1072,4.113,4.1129,4.1105,4.1091,4.1094,4.1097,4.1111,4.1094,4.1088,4.1057,4.1003,4.0972,4.0972,4.094,4.091,4.0852,4.0665,4.0544,4.0487,4.0372,4.029,4.031,4.0177,4.0118,4.0098,3.9575,3.9551,3.9892,3.9785,3.9785,3.9914,4.0118,4.0234,4.0234,4.0234,4.0176,4.0137,0.0,0.0,0.0,0.0,2.5855,2.6235,0.0,0.0,2.77,0.0,2.8091,2.8448,2.9137,2.9917,3.0436,3.0533,3.0533,3.0571,3.0667,3.0679,3.0679,3.0679,3.0679,3.0679,3.0679,3.0679,3.1064,3.1833,3.1929,3.2737,3.4199,3.4295,3.4757,3.5493,0.0,0.0,0.0,0.0,0.0,3.6853,3.6853,3.7315,0.0,0.0,3.9373,3.9411,4.02,4.0489,4.0489,4.0489,4.0489,0.0,0.0,0.0,0.0,0.0,4.0489,0.0,0.0,0.0,0.0,0.0,0.0,0.0,4.0195,4.0339,4.0422,0.0,0.0,4.0489,4.0489,4.06,4.0677,4.0677,4.0735,4.0829,4.0968,4.0988,4.1014,4.1131,4.109,4.1064,4.1062,4.1072,4.1074,4.1062,4.1072,4.1031,4.0979,4.0857,4.0801,4.081,4.0791,4.0801,4.0791,4.0591,4.0496,4.0482,4.0372,4.029,4.0253,4.0001,3.9878,3.9829,3.9324,3.9383,3.9892,3.9556,3.9647,3.9975,4.0077,4.0176,4.0272,4.0137,4.0117,4.0137,0.0,0.0,0.0,0.0,2.68,2.6992,0.0,0.0,0.0,0.0,2.9384,2.9889,0.0,3.0171,3.0679,3.1391,3.1448,3.1718,3.2372,3.241,3.241,3.241,3.241,3.241,3.241,3.241,3.2506,3.2679,3.3372,3.3872,3.4218,3.493,3.5353,3.5493,0.0,0.0,0.0,0.0,0.0,3.7757,3.7757,0.0,3.8161,3.9681,3.9854,3.9411,4.02,4.0489,4.0489,4.0489,4.0489,4.0489,0.0,0.0,0.0,0.0,0.0,0.0,0.0,0.0,0.0,0.0,0.0,0.0,4.0422,4.0473,4.0489,0.0,4.0473,4.0489,4.0489,4.0508,4.0543,4.0543,4.0562,4.0626,4.081,4.0848,4.0857,4.0877,4.0871,4.0866,4.087,4.0855,4.0867,4.085,4.0855,4.0849,4.0848,4.081,4.0789,4.081,4.0752,4.0693,4.0655,4.0549,4.046,4.0427,4.0396,4.0233,3.9981,3.9901,3.9791,3.9575,3.9245,3.9383,3.987,3.9305,3.9551,4.0215,4.0253,4.0253,4.0196,4.0017,3.9892,3.9879,0.0,0.0,0.0,0.0,2.7434,2.768,2.8222,0.0,0.0,0.0,0.0,0.0,0.0,0.0,0.0,3.2053,3.2225,3.2468,3.2872,3.2891,3.2891,3.2891,3.2891,3.2891,3.2891,3.3333,3.3545,3.3545,3.441,3.4853,3.4853,3.5295,3.5493,0.0,0.0,0.0,0.0,0.0,3.7853,3.8642,3.8642,0.0,3.9335,4.0181,4.0239,3.995,4.0354,4.0489,4.0489,4.0489,4.0489,0.0,0.0,4.0489,4.0489,0.0,4.0489,4.0489,0.0,0.0,0.0,4.0489,0.0,0.0,0.0,4.0406,4.0457,4.0339,4.0425,4.0489,4.0489,4.0489,4.0489,4.0489,4.0389,4.0394,4.0623,4.072,4.0761,4.08,4.0797,4.0804,4.08,4.0796,4.0803,4.08,4.0778,4.0752,4.0752,4.0694,4.0655,4.0655,4.0617,4.0577,4.054,4.0511,4.0466,4.0449,4.027,4.0101,3.9901,3.9754,3.9566,3.9298,3.9156,3.9245,3.9477,3.9165,3.9401,3.9911,3.9848,3.9848,3.9829,3.9693,3.9863,4.0209,0.0,0.0,0.0,0.0,2.8026,2.8334,2.9196,2.946,0.0,0.0,0.0,0.0,0.0,0.0,0.0,0.0,0.0,3.3218,0.0,0.0,3.341,3.341,3.341,3.341,3.341,3.4083,3.4449,3.4449,3.5161,3.5493,3.5493,3.5493,0.0,0.0,0.0,0.0,0.0,0.0,0.0,3.9296,0.0,3.9912,4.0489,4.0489,4.0489,4.0489,4.0489,4.0489,4.0489,4.0489,4.0489,4.0489,4.0489,4.0489,0.0,0.0,0.0,0.0,0.0,0.0,0.0,0.0,0.0,4.0438,0.0,0.0,0.0,0.0,0.0,0.0,0.0,4.0489,0.0,0.0,0.0,0.0,0.0,4.0504,0.0,4.0735,4.0636,4.0584,4.0672,4.0672,4.0672,4.0672,4.0646,4.0658,4.0658,4.0562,4.0489,4.0489,4.0489,4.0489,4.0489,4.0515,4.0502,4.0499,4.0158,3.9943,3.9819,3.9599,3.932,3.9036,3.9073,3.9101,3.9101,3.9045,3.9165,3.9408,3.9427,3.9452,3.9496,3.9544,3.9978,4.0595,2.7805,2.8246,0.0,0.0,2.8847,2.8906,2.9021,2.9651,0.0,0.0,0.0,0.0,0.0,0.0,0.0,0.0,0.0,0.0,3.5161,0.0,0.0,3.5199,3.5199,3.5199,3.5199,3.5315,3.5353,3.5353,3.5449,3.5493,3.5493,3.5493,0.0,0.0,3.6661,0.0,0.0,0.0,3.92,0.0,4.0065,4.0412,0.0,4.0489,4.0489,4.0489,4.0489,4.0489,4.0489,0.0,4.0489,4.0489,0.0,4.0489,4.0489,4.0489,0.0,0.0,0.0,0.0,0.0,0.0,4.0489,0.0,0.0,0.0,4.0489,4.0457,0.0,4.0489,4.0489,0.0,0.0,0.0,0.0,0.0,3.9527,4.0046,4.0543,4.0543,4.0043,3.9838,4.0139,4.0177,4.0177,4.0177,4.0392,4.0508,4.0508,4.0508,4.0489,4.0489,4.0489,4.0489,4.0489,4.0515,4.0499,4.0508,4.0157,3.9861,3.9622,3.9529,3.9216,3.875,3.9007,3.9101,3.9073,3.8851,3.8892,3.9183,3.9401,3.9452,3.9469,4.0011,4.0234,4.0473,2.8576,2.8778,0.0,0.0,0.0,2.9714,2.9714,0.0,0.0,0.0,0.0,0.0,0.0,0.0,0.0,0.0,0.0,3.5122,0.0,0.0,0.0,3.5493,3.5207,3.519,3.5493,3.5354,3.5335,3.5493,3.5493,3.5493,3.5512,3.5988,0.0,0.0,3.7757,0.0,3.8815,0.0,3.9988,0.0,0.0,0.0,0.0,4.0489,4.0489,4.0489,4.0489,4.0489,4.0489,0.0,4.0489,0.0,0.0,0.0,0.0,0.0,0.0,0.0,0.0,0.0,0.0,0.0,0.0,0.0,4.0489,0.0,4.0489,0.0,0.0,0.0,0.0,0.0,0.0,0.0,4.0161,0.0,0.0,0.0,4.012,0.0,0.0,0.0,4.0101,4.0101,4.0022,3.9819,4.0101,4.0176,3.9984,4.0157,4.0286,4.0286,4.0286,4.0286,4.0286,4.0081,3.9983,3.9965,3.9626,3.9505,3.9529,3.9345,3.9165,3.8921,3.9045,3.8989,3.8851,3.875,3.878,3.8881,3.9007,3.9036,3.9016,3.928,3.9644,4.0142,2.9659,0.0,0.0,0.0,0.0,0.0,0.0,0.0,0.0,0.0,0.0,0.0,3.3956,3.4508,0.0,0.0,3.5273,3.5493,0.0,0.0,3.5289,0.0,0.0,0.0,0.0,3.5304,3.5419,3.5834,3.5834,3.5949,3.6199,3.6776,3.718,0.0,0.0,3.9411,3.9662,0.0,0.0,4.0489,4.0489,4.0489,4.0489,4.0489,4.0489,4.0489,4.0489,4.0489,4.0489,4.0489,4.0489,0.0,4.0489,0.0,0.0,0.0,0.0,0.0,4.0489,0.0,0.0,0.0,0.0,0.0,0.0,0.0,0.0,0.0,0.0,0.0,0.0,0.0,4.0431,0.0,0.0,4.0081,0.0,3.9792,0.0,0.0,0.0,0.0,0.0,4.0061,3.9943,3.9622,3.9901,3.9943,3.9622,3.9819,3.9943,3.9943,3.9943,3.9943,3.9943,3.9731,3.9599,3.9599,3.9264,3.9205,3.9383,3.92,3.9045,3.8989,3.9073,3.895,3.8707,3.8707,3.8707,3.8707,3.8707,3.8707,3.8726,3.8946,3.9405,3.9987,3.1311,3.0705,0.0,0.0,0.0,0.0,0.0,0.0,0.0,0.0,0.0,0.0,0.0,0.0,0.0,0.0,0.0,3.5493,3.5493,0.0,3.5493,0.0,0.0,3.5493,0.0,0.0,3.5878,3.6661,3.6661,3.7084,3.7911,3.795,3.8411,3.9219,0.0,3.9719,4.045,4.0489,4.0489,4.0489,4.0489,4.0489,4.0489,0.0,4.0489,4.0489,4.0489,0.0,0.0,4.0489,4.0489,0.0,0.0,0.0,0.0,0.0,0.0,0.0,0.0,0.0,0.0,4.0489,0.0,0.0,0.0,0.0,4.0489,0.0,0.0,0.0,4.0489,4.0489,4.0239,0.0,0.0,0.0,0.0,0.0,0.0,0.0,0.0,0.0,0.0,3.9901,3.9943,0.0,3.9901,3.9943,3.9622,3.9599,3.9622,3.9622,3.9622,3.9622,3.9622,3.9599,3.9599,3.9599,3.9264,3.908,3.9125,3.9119,3.895,3.8738,3.9007,3.895,3.8707,3.8707,3.8707,3.8707,3.8707,3.8707,3.8799,3.957,3.9863,4.012,0.0,0.0,0.0,0.0,0.0,0.0,0.0,3.3385,0.0,0.0,0.0,0.0,0.0,3.4944,3.5138,0.0,0.0,3.5493,3.5493,3.5818,0.0,0.0,0.0,3.6797,0.0,0.0,0.0,0.0,0.0,0.0,3.8007,3.8584,3.9008,0.0,0.0,4.0239,0.0,0.0,0.0,0.0,0.0,4.0489,4.0489,0.0,4.0489,4.0489,4.0489,4.0489,0.0,4.0489,4.0489,4.0489,4.0489,4.0489,4.0489,4.0489,4.0489,4.0489,0.0,0.0,4.0489,4.0489,0.0,0.0,0.0,0.0,0.0,0.0,0.0,0.0,0.0,0.0,0.0,0.0,0.0,0.0,0.0,0.0,0.0,0.0,0.0,0.0,0.0,0.0,0.0,0.0,3.9275,3.9308,3.9008,3.9171,3.9264,3.9264,3.9264,3.9264,3.9264,3.91,3.8998,3.8998,3.8902,3.8913,3.9091,3.8921,3.8881,3.895,3.8881,3.878,3.8707,3.8707,3.8707,3.8707,3.8707,3.8707,3.8726,3.9019,3.9111,3.9184,3.2247,0.0,0.0,0.0,0.0,0.0,0.0,0.0,0.0,0.0,3.4292,0.0,3.4813,0.0,3.5577,0.0,3.6108,3.6392,3.6392,3.6715,0.0,3.7147,3.7385,0.0,0.0,0.0,0.0,0.0,0.0,3.8441,0.0,0.0,0.0,0.0,0.0,4.0489,4.0489,0.0,4.0489,0.0,0.0,4.0489,0.0,0.0,4.0489,4.0489,0.0,4.0489,4.0489,4.0489,4.0489,4.0489,4.0489,4.0489,4.0489,4.0489,4.0489,4.0489,4.0489,4.0489,0.0,4.0489,4.0489,0.0,4.0489,0.0,4.0489,0.0,0.0,0.0,0.0,0.0,0.0,0.0,0.0,0.0,0.0,3.9294,0.0,0.0,0.0,0.0,0.0,0.0,3.9171,3.8855,3.8999,3.8971,0.0,3.8855,3.8961,3.8961,3.8961,3.8961,3.8961,3.8773,3.8707,3.8707,3.8707,3.881,3.895,3.878,3.8792,3.895,3.878,3.8707,3.8707,3.8707,3.8707,3.8707,3.8707,3.8707,3.8707,3.8707,3.8891,3.9129,0.0,0.0,0.0,0.0,3.3293,0.0,0.0,0.0,3.4218,0.0,3.4586,3.4888,3.5202,3.5923,3.6485,3.6743,3.7526,3.8007,3.8007,3.8046,0.0,0.0,3.8104,3.8123,3.8123,0.0,0.0,0.0,0.0,0.0,0.0,0.0,0.0,0.0,4.0372,0.0,4.0489,4.0489,4.0489,4.0489,4.0489,4.0489,4.0489,4.0489,4.0489,4.0489,4.0489,4.0489,4.0489,4.0489,4.0489,4.0489,4.0489,4.0489,4.0489,4.0489,4.0489,4.0489,4.0508,4.0508,4.0489,4.0508,4.0489,0.0,0.0,0.0,4.0489,0.0,0.0,0.0,0.0,0.0,0.0,0.0,0.0,0.0,0.0,0.0,0.0,0.0,0.0,0.0,0.0,0.0,3.9389,3.9053,3.9026,3.8915,0.0,3.8658,3.8707,3.8658,3.8676,3.8707,3.8707,3.8707,3.8707,3.8707,3.8707,3.8707,3.8707,3.8707,3.8707,3.8707,3.8707,3.8707,3.8707,3.8707,3.8707,3.8707,3.8707,3.8707,3.8707,3.8707,3.9184,3.9827,3.3807,3.3807,3.3733,0.0,3.366,3.3807,0.0,0.0,0.0,0.0,3.5703,3.6247,3.7168,3.7433,3.7583,3.7661,3.7873,0.0,0.0,0.0,0.0,3.8969,3.9527,3.9854,3.9854,3.9854,0.0,4.0181,0.0,0.0,4.0101,0.0,0.0,0.0,0.0,0.0,4.0489,4.0489,4.0489,4.0489,4.0495,4.0495,4.0489,0.0,4.0511,4.0489,4.0495,4.0511,4.0489,4.0495,4.0511,4.0489,4.0489,4.0489,4.0489,4.0489,4.0489,4.0508,4.062,4.0581,4.0508,4.062,4.0581,4.0489,0.0,0.0,0.0,0.0,0.0,0.0,0.0,0.0,0.0,0.0,0.0,0.0,0.0,0.0,0.0,3.8707,0.0,0.0,0.0,3.8554,3.83,3.8223,3.8209,3.8044,3.7596,0.0,3.8515,3.8099,3.8496,3.8707,3.8707,3.8707,3.8707,3.8707,3.8707,3.8707,3.8707,3.8707,3.8707,3.8707,3.8707,3.8707,3.8707,3.8707,3.8707,3.8707,3.8707,3.8707,3.8707,3.8707,3.8836,3.9019,3.3807,0.0,0.0,3.4321,0.0,0.0,3.4604,0.0,0.0,3.6557,3.6877,0.0,3.7935,3.8334,3.8565,3.8565,3.8892,0.0,3.9084,0.0,0.0,3.9815,4.0258,4.0489,4.0489,4.0489,0.0,4.0489,0.0,0.0,4.0101,0.0,0.0,0.0,0.0,4.0489,0.0,4.0489,4.0489,4.0489,4.0511,4.0492,0.0,4.0499,4.0499,4.0495,4.0466,4.0482,4.0495,4.0466,4.0466,4.046,4.0495,4.0519,4.0545,4.0504,4.0549,4.0598,4.0673,4.06,4.0543,4.0696,4.0658,4.06,4.06,4.06,4.0581,0.0,4.0489,4.0489,0.0,0.0,0.0,0.0,0.0,0.0,0.0,0.0,0.0,0.0,3.8415,0.0,0.0,3.8032,3.7685,3.7859,3.7893,3.7685,3.7228,0.0,3.8465,3.7911,3.8415,3.8707,3.8707,3.8707,3.8707,3.8707,3.8707,3.8707,3.8707,3.8707,3.8707,3.8707,3.8707,3.8707,3.8707,3.8707,3.8707,3.8707,3.8707,3.8707,3.8707,3.8707,3.8707,3.8707,0.0,0.0,0.0,0.0,0.0,0.0,0.0,3.6603,0.0,3.7717,0.0,3.82,3.8315,3.8988,3.945,3.9469,0.0,4.0489,4.0508,4.0489,4.0489,4.0489,4.0489,4.0489,4.0489,4.0489,4.0489,0.0,0.0,0.0,0.0,0.0,0.0,0.0,0.0,0.0,0.0,4.0489,4.0489,4.0489,4.0508,4.0489,4.0508,4.0499,4.0502,4.0502,4.0415,4.0432,4.0485,4.0415,4.0398,4.0415,4.0485,4.0534,4.0577,4.053,4.0615,4.0713,4.0733,4.0631,4.0588,4.0776,4.0771,4.0709,4.0714,4.0718,4.0688,4.0543,4.0543,4.0508,4.0489,0.0,0.0,0.0,0.0,0.0,0.0,0.0,0.0,0.0,0.0,0.0,0.0,3.7861,3.7433,3.779,3.779,3.7578,3.702,0.0,3.8285,3.7825,3.8318,3.8627,3.8707,3.8707,3.8707,3.8707,3.8707,3.8707,3.8707,3.8707,3.8707,3.8707,3.8707,3.8707,3.8707,3.8707,3.8707,3.8707,3.8707,3.8707,3.8707,3.8707,3.8707,3.8707,0.0,0.0,0.0,0.0,0.0,3.7754,3.7868,3.7676,3.7794,3.8574,3.8917,3.9335,3.9988,4.02,4.0281,4.0287,4.0415,0.0,0.0,0.0,0.0,4.0489,4.0489,4.0489,4.0489,4.0489,4.0489,0.0,0.0,0.0,0.0,0.0,0.0,0.0,0.0,0.0,4.0489,4.0489,0.0,4.0489,4.0495,4.0495,4.0489,4.043,4.0449,4.0466,4.0362,4.0362,4.0415,4.0396,4.0398,4.0415,4.0415,4.0504,4.059,4.0596,4.0672,4.081,4.0916,4.0854,4.0781,4.0934,4.0878,4.0785,4.079,4.0779,4.0759,4.0669,4.0658,4.0639,4.0508,0.0,0.0,0.0,0.0,0.0,0.0,0.0,0.0,0.0,0.0,3.8216,0.0,0.0,3.7649,3.736,3.7323,3.6904,3.5924,0.0,3.7414,0.0,3.7808,3.8249,0.0,0.0,3.8707,3.8707,3.8707,3.8707,3.8707,3.8707,3.8707,3.8707,3.8707,3.8707,3.8707,3.8707,3.8707,3.8707,3.8707,3.8707,3.8707,3.8707,3.8707,3.8707,0.0,0.0,0.0,0.0,0.0,0.0,0.0,3.9184,3.9246,3.9668,3.9845,4.0065,4.045,4.0489,4.0492,4.0502,4.0499,4.0515,4.0502,4.0499,4.0511,4.0489,4.0489,4.0489,4.0489,4.0489,4.0489,4.0489,0.0,0.0,4.0321,0.0,0.0,0.0,0.0,4.0489,0.0,0.0,0.0,4.0489,4.0499,4.0499,4.0495,4.0396,4.0379,4.0396,4.0325,4.0326,4.0346,4.0346,4.0345,4.036,4.0438,4.053,4.0672,4.0696,4.0801,4.0929,4.0984,4.0908,4.084,4.1019,4.0986,4.0903,4.0894,4.0906,4.0865,4.0765,4.0714,4.0658,4.0508,4.0489,0.0,0.0,0.0,0.0,0.0,0.0,0.0,0.0,0.0,0.0,0.0,0.0,0.0,0.0,0.0,0.0,0.0,0.0,3.7058,0.0,0.0,0.0,3.83,0.0,3.8707,3.8707,3.8707,3.8707,3.8707,3.8707,3.8707,3.8707,3.8707,3.8707,3.8707,3.8707,3.8707,3.8707,3.8707,3.8707,3.8707,3.8707,3.8707,3.8707,0.0,3.7184,0.0,0.0,3.8852,0.0,3.9943,4.0232,4.0441,4.0489,4.0489,4.0489,4.0489,4.0489,4.0492,4.0466,4.0502,4.0502,4.0449,4.0466,4.0499,4.0492,4.0489,4.0489,4.0489,4.0489,4.0489,0.0,0.0,0.0,0.0,0.0,0.0,0.0,0.0,0.0,0.0,0.0,4.0489,4.0489,4.0495,4.0499,4.0502,4.0379,4.0307,4.0307,4.0289,4.0309,4.0291,4.031,4.0327,4.0356,4.0472,4.0609,4.0742,4.08,4.0914,4.1031,4.1013,4.094,4.0909,4.1052,4.1058,4.1031,4.1013,4.1018,4.0982,4.0867,4.0777,4.0677,4.0562,4.0508,0.0,0.0,0.0,0.0,0.0,0.0,0.0,0.0,0.0,0.0,3.8707,0.0,0.0,0.0,0.0,0.0,3.565,0.0,0.0,0.0,0.0,3.772,3.8065,0.0,3.8596,3.8707,3.8707,3.8707,3.8707,3.8707,3.8707,3.8707,3.8707,3.8707,3.8707,3.8707,3.8707,3.8707,3.8707,3.8707,3.8707,3.8707,3.8707,3.8707,0.0,0.0,0.0,0.0,0.0,0.0,3.9599,3.9922,4.0213,4.0473,4.0489,4.0489,4.0489,4.0489,4.0476,4.0396,4.0449,4.0449,4.0325,4.0432,4.0502,4.0502,4.0492,4.0489,4.0489,4.0489,4.0489,0.0,0.0,4.0489,0.0,0.0,0.0,0.0,0.0,0.0,0.0,4.0489,4.0489,4.0489,4.0489,4.0495,4.0502,4.0415,4.0362,4.0307,4.0291,4.0309,4.0289,4.031,4.0377,4.0481,4.0511,4.0688,4.0875,4.0882,4.0978,4.1085,4.1081,4.1081,4.1081,4.1108,4.1108,4.1085,4.1081,4.1081,4.1076,4.0993,4.0836,4.0696,4.0677,4.0581,4.0489,0.0,0.0,0.0,0.0,0.0,3.9414,3.9099,0.0,0.0,0.0,3.8267,0.0,0.0,3.7433,0.0,0.0,0.0,0.0,3.7114,3.6764,3.721,3.8627,3.8183,3.8216,3.8707,3.8707,3.8707,3.8707,3.8707,3.8707,3.8707,3.8707,3.8707,3.8707,3.8707,3.8707,3.8707,3.8707,3.8707,3.8707,3.8707,3.8707,3.8707,0.0,0.0,0.0,0.0,0.0,0.0,0.0,3.9712,3.9922,4.0213,4.0389,4.0508,4.0495,4.0492,4.0476,4.0415,4.0432,4.0415,4.0362,4.0379,4.0432,4.0502,4.0499,4.0511,4.0489,4.0489,4.0489,0.0,0.0,0.0,0.0,0.0,0.0,0.0,0.0,4.0489,4.0489,4.0489,4.0489,4.0489,4.0511,4.0499,4.0502,4.0379,4.0325,4.0307,4.031,4.0291,4.0309,4.0375,4.045,4.0496,4.0591,4.0742,4.0922,4.1008,4.1055,4.1108,4.1108,4.1108,4.1108,4.1108,4.1108,4.1108,4.1108,4.1108,4.1081,4.1061,4.0894,4.0754,4.072,4.0583,4.0489,4.0489,0.0,0.0,0.0,0.0,0.0,3.9133,0.0,3.8707,0.0,3.8515,0.0,0.0,0.0,0.0,0.0,0.0,0.0,3.719,0.0,3.7323,3.8216,3.835,3.8496,3.8707,3.8707,3.8707,3.8707,3.8609,3.859,3.859,3.8658,3.8707,3.8707,3.8707,3.8707,3.8707,3.8707,3.8707,3.8707,3.8707,3.8707,3.8707,3.8707,0.0,3.8855,0.0,3.9063,3.9212,3.9552,3.9599,3.9735,4.0157,4.0392,4.0495,4.0502,4.0479,4.0444,4.0379,4.0362,4.0362,4.0363,4.0326,4.0342,4.0485,4.0502,0.0,4.0489,4.0489,4.0489,4.0489,4.0489,0.0,0.0,0.0,0.0,0.0,4.0489,4.0489,4.0489,4.0489,4.0489,4.0489,4.0495,4.0482,4.0449,4.0362,4.0326,4.029,4.0291,4.031,4.0328,4.0454,4.0506,4.0524,4.0665,4.0827,4.0972,4.1022,4.1078,4.1108,4.1108,4.1108,4.1108,4.1108,4.1108,4.1108,4.1108,4.1108,4.1085,4.1074,4.0894,4.0718,4.0707,4.0598,4.0489,4.0489,0.0,0.0,0.0,3.9943,0.0,3.9289,3.899,3.8773,3.8707,3.8546,0.0,0.0,0.0,0.0,0.0,0.0,0.0,0.0,0.0,0.0,3.8132,3.8332,3.8528,3.8658,3.8658,3.8627,3.8627,3.8752,3.894,3.9191,3.9292,3.9342,3.9405,3.931,3.926,3.926,3.9144,3.9177,3.926,3.926,3.9342,3.9423,3.8707,3.8923,3.9008,3.8732,3.8905,3.9212,3.9552,3.9599,3.9821,4.0422,4.0495,4.0502,4.0502,4.0432,4.0379,4.0307,4.0307,4.0308,4.031,4.029,4.0325,0.0,0.0,4.0499,4.0489,4.0489,4.0489,4.0489,0.0,0.0,4.0489,0.0,4.0489,4.0489,4.0489,4.0489,4.0489,4.0489,4.0489,4.0489,4.0489,4.046,4.0415,4.0398,4.0364,4.031,4.031,4.031,4.0328,4.0454,4.0511,4.0521,4.0665,4.0875,4.1062,4.0935,4.1008,4.1108,4.1108,4.1108,4.1108,4.1108,4.1108,4.1108,4.1108,4.1108,4.1078,4.1006,4.0781,4.0614,4.0681,4.06,4.0489,4.0489,0.0,0.0,0.0,4.025,0.0,3.9622,3.9289,3.8999,3.8719,3.8216,0.0,0.0,0.0,0.0,0.0,0.0,0.0,3.7859,3.7433,0.0,3.8676,3.8183,3.8132,3.851,3.851,3.8478,3.8419,3.9158,3.9958,4.0771,4.0771,4.0891,4.106,4.0719,4.058,4.0526,4.022,4.0293,4.058,4.058,4.0771,4.1075,3.8933,3.9036,3.9152,3.9275,3.9383,3.9481,3.9576,3.9599,3.9735,4.012,4.012,4.0158,4.0342,4.0379,4.0379,0.0,4.0307,4.0307,0.0,4.0309,4.0327,4.0398,4.0415,4.0447,4.0489,4.0489,4.0489,4.0489,0.0,0.0,0.0,4.0489,4.0489,4.0489,4.0489,4.0489,4.0489,4.0489,4.0489,4.0489,4.0495,4.0482,4.0449,4.0379,4.0326,4.029,4.0291,4.031,4.0327,4.0568,4.0636,4.0665,4.0781,4.0894,4.0978,4.1022,4.1078,4.1108,4.1108,4.1108,4.1081,4.0983,4.1027,4.1081,4.0983,4.1027,4.1085,4.1074,4.0897,4.0739,4.0761,4.0621,4.0495,4.0489,4.0489,0.0,4.0489,0.0,3.9982,3.9645,3.9289,3.8999,3.8719,3.8546,0.0,0.0,0.0,0.0,0.0,0.0,0.0,0.0,3.7964,0.0,3.8707,3.8546,3.8496,3.8658,3.8541,3.8446,3.8322,3.8609,3.8882,3.9085,3.9134,3.9232,3.9328,3.9213,3.9064,3.8896,3.8793,3.8793,3.8896,3.8896,3.9134,3.9551,3.9216,3.9358,3.9462,3.9552,3.9709,3.9775,3.9735,3.9735,3.984,4.012,4.0101,4.0101,4.027,4.0326,0.0,4.029,4.029,4.029,4.029,4.031,4.0328,4.0362,4.0398,4.043,4.0511,4.0508,0.0,4.0489,4.0489,4.0508,4.0511,4.0508,4.0508,4.0511,4.0511,4.0511,4.0511,4.0511,4.0495,4.046,4.0482,4.0495,4.0489,4.0422,4.0419,4.0446,4.0392,4.0411,4.0473,4.0596,4.0667,4.0718,4.0801,4.0809,4.0835,4.0922,4.0998,4.1008,4.0967,4.0998,4.0998,4.0859,4.0929,4.0994,4.0922,4.0882,4.0875,4.0863,4.0749,4.064,4.0642,4.0559,4.0495,4.0511,4.0508,4.0489,4.0489,0.0,4.0139,0.0,0.0,0.0,0.0,3.8762,3.8707,0.0,0.0,0.0,0.0,0.0,3.805,3.8676,3.8382,3.835,3.8707,3.8707,3.8658,3.8609,3.8496,3.8532,3.8658,3.8538,3.8667,3.8974,3.8832,3.8883,3.9005,3.8883,3.8743,3.8582,3.8489,3.8508,3.8618,3.8761,3.9041,3.9483,3.9508,3.9791,3.9901,0.0,3.988,4.0101,4.0042,4.0022,4.012,4.0362,4.0325,4.0307,4.0307,4.0291,4.031,4.031,0.0,0.0,4.031,4.031,4.031,4.0307,4.0362,4.0432,4.0502,4.0511,4.0489,4.0489,4.0508,4.0492,4.0499,4.0492,4.0511,4.0499,4.0502,4.0502,4.0502,4.0502,4.0449,4.0415,4.0466,4.0485,4.0496,4.0524,4.0584,4.0676,4.0563,4.059,4.0667,4.0549,4.0596,4.0687,4.0707,4.0707,4.0703,4.0699,4.0781,4.0855,4.0742,4.0781,4.0866,4.0731,4.0781,4.0882,4.0882,4.0679,4.0501,4.0505,4.045,4.0396,4.0413,4.046,4.0492,4.0499,4.0495,4.0489,4.0489,4.0489,4.0389,0.0,0.0,0.0,3.9133,3.8855,3.8707,0.0,0.0,0.0,0.0,0.0,3.8707,3.8707,3.8707,3.8707,3.8707,3.8707,3.864,3.851,3.8387,3.864,3.9227,3.8811,3.9109,3.992,3.9532,3.9554,3.9753,3.9532,3.9405,3.9382,3.9161,3.9168,3.9446,3.9843,4.0201,4.0527,0.0,0.0,3.9982,4.0158,4.0271,4.0325,4.0307,4.0307,4.0307,4.0325,4.0307,4.0289,4.031,4.0291,4.031,4.031,4.031,4.031,4.031,4.031,4.031,4.0307,4.0362,4.0432,4.0502,4.0499,4.0499,4.0499,4.0447,4.0508,4.0648,4.0492,4.0492,4.0568,4.0527,4.0466,4.0432,4.0485,4.0449,4.0396,4.0481,4.0431,4.037,4.0559,4.0604,4.0563,4.0629,4.061,4.0549,4.063,4.0667,4.0692,4.0703,4.0703,4.0703,4.0699,4.0731,4.0742,4.0721,4.0731,4.0742,4.0721,4.0712,4.0762,4.0762,4.071,4.0653,4.0645,4.0557,4.0481,4.054,4.0438,4.0375,4.0476,4.0495,4.0495,4.0489,4.0511,4.0394,0.0,3.9754,3.9408,3.9125,3.8855,3.8707,0.0,0.0,3.8707,3.8707,3.8707,3.8707,3.8707,3.8707,3.8707,3.8707,3.8707,3.864,3.851,3.8433,3.857,3.8923,3.8683,3.8581,3.8518,3.8977,3.9053,3.8872,3.9341,3.9545,3.9557,3.9494,3.9494,3.954,3.9678,3.9935,4.0291,4.0059,4.008,4.0139,4.0325,4.0379,4.0379,4.0362,4.0362,4.0344,4.029,4.0309,4.0291,4.031,4.031,4.031,4.031,4.031,4.031,4.031,4.031,4.0291,4.0309,4.0326,4.0379,4.0396,4.0432,4.0449,4.0449,4.0476,4.05,4.0515,4.0568,4.0577,4.0557,4.0511,4.0485,4.0434,4.0411,4.0398,4.0363,4.0386,4.0403,4.0422,4.0557,4.0591,4.0597,4.0591,4.0597,4.0577,4.0526,4.0596,4.0674,4.0559,4.0574,4.0596,4.0554,4.0563,4.0604,4.0535,4.0563,4.0597,4.061,4.0557,4.0535,4.0578,4.0557,4.0506,4.0506,4.0481,4.0473,4.045,4.0422,4.0427,4.0495,4.0495,4.0511,4.0489,4.0492,4.0444,4.0304,3.9861,3.9481,3.9339,3.8942,3.8707,3.8707,3.8707,0.0,3.8707,3.8707,3.8707,3.8707,3.8707,3.8707,3.8707,3.8707,3.8528,3.8231,3.8364,3.8267,3.7998,3.8241,3.8183,3.7847,3.7992,3.8174,3.8377,3.8572,3.8835,3.9143,3.9287,3.9329,3.9329,3.9534,3.9718,3.995,4.031,4.0309,4.0289,4.0289,4.0344,4.0381,4.0307,4.0289,4.029,4.0291,4.031,4.031,4.031,4.031,4.031,4.031,4.031,4.031,4.031,4.031,4.031,4.031,4.029,4.0307,4.0307,4.0377,4.0411,4.0411,4.0554,4.0549,4.0403,4.0665,4.069,4.0559,4.0546,4.0538,4.0482,4.0386,4.0325,4.0327,4.0358,4.0419,4.0492,4.053,4.061,4.0665,4.0557,4.059,4.0649,4.0411,4.0492,4.0635,4.0381,4.0379,4.0457,4.0346,4.0381,4.0444,4.0328,4.0396,4.0504,4.0466,4.0411,4.0344,4.0454,4.0377,4.031,4.0291,4.0345,4.0379,4.0325,4.0408,4.0492,4.0537,4.0495,4.0508,4.0527,0.0,4.0508,4.0489,4.0004,3.9645,3.9599,3.9073,3.8732,3.8707,3.8707,3.8707,3.8707,3.8707,3.8707,3.8707,3.8707,3.8707,3.8707,3.8707,3.8433,3.7893,3.8249,3.7931,3.7097,3.7707,3.7795,3.7456,3.7177,3.7427,3.7991,3.772,3.8025,3.8639,3.8921,3.9094,3.9225,3.9588,3.9823,3.9952,4.031,4.0291,4.0291,4.0291,4.031,4.031,4.0291,4.0291,4.0291,4.031,4.031,4.031,4.031,4.031,4.031,4.031,4.031,4.031,4.031,4.031,4.031,4.031,4.029,4.0307,4.0307,4.0431,4.0482,4.0482,4.0629,4.0771,4.0882,4.0762,4.0762,4.0837,4.0771,4.0667,4.05,4.0472,4.0457,4.0481,4.0591,4.0565,4.0521,4.0742,4.0701,4.053,4.0629,4.0623,4.0521,4.0481,4.05,4.0504,4.0364,4.0379,4.0457,4.0346,4.031,4.0328,4.031,4.0394,4.0485,4.0344,4.0411,4.0438,4.0344,4.031,4.0291,4.0308,4.0307,4.0362,4.0449,4.0449,4.0468,4.0627,4.0572,4.0553,4.0642,0.0,4.0515,4.0489,4.0176,3.984,3.9622,3.9257,3.8933,3.8719,3.8707,3.8707,3.8707,3.8707,3.8707,3.8707,3.8707,3.8707,3.8707,3.8707,3.8433,3.7893,3.7929,3.7735,3.7436,3.749,3.7291,3.6944,3.7496,3.7539,3.7291,3.7866,3.8339,3.8755,3.8964,3.9451,4.0115,4.0305,4.0735,4.1279,4.031,4.031,4.031,4.031,4.031,4.031,4.031,4.031,4.031,4.031,4.031,4.031,4.031,4.031,4.031,4.031,4.031,4.031,4.031,4.031,4.031,4.031,4.0272,4.0271,4.0339,4.0412,4.0496,4.061,4.0732,4.0829,4.0839,4.0898,4.0906,4.0902,4.0866,4.0801,4.0723,4.0641,4.0604,4.0604,4.0597,4.061,4.061,4.0584,4.053,4.0511,4.0496,4.0438,4.0394,4.0394,4.0377,4.0381,4.031,4.0327,4.0381,4.031,4.031,4.031,4.031,4.0345,4.0379,4.031,4.0345,4.0379,4.031,4.031,4.0291,4.0291,4.0308,4.0325,4.0379,4.0432,4.0485,4.0592,4.0534,4.0515,4.0572,4.0534,4.0495,4.0444,4.0043,3.9712,3.9529,3.9044,3.8748,3.859,3.859,3.8609,3.8707,3.8707,3.8658,3.859,3.859,3.8496,3.8267,3.8234,3.7826,3.7097,3.736,3.7136,3.6498,3.7154,3.7185,3.6806,3.7144,3.7407,3.7534,3.7587,3.8019,3.8762,3.9355,3.9931,4.0447,4.0937,4.1306,4.1604,4.0138,4.0157,4.0196,4.0253,4.0291,4.0272,4.0272,4.0291,4.031,4.031,4.031,4.031,4.031,4.031,4.031,4.031,4.031,4.031,4.031,4.0291,4.0291,4.0291,4.0234,4.0289,4.0406,4.0472,4.0578,4.0738,4.0871,4.0879,4.0791,4.1,4.1056,4.0957,4.0953,4.0918,4.0896,4.0781,4.0751,4.0718,4.0604,4.061,4.0657,4.0441,4.0394,4.0438,4.0327,4.031,4.031,4.031,4.031,4.031,4.031,4.031,4.031,4.031,4.031,4.031,4.031,4.031,4.031,4.031,4.031,4.031,4.031,4.031,4.031,4.031,4.029,4.0307,4.0342,4.0432,4.0485,4.0537,0.0,4.0511,4.0537,4.0515,4.046,4.0342,3.9943,3.9599,3.9333,3.8886,3.8566,3.851,3.851,3.8541,3.8658,3.8658,3.8578,3.8364,3.8364,3.8132,3.7755,3.7703,3.7248,3.6416,3.6803,3.6522,3.5639,3.661,3.684,3.6502,3.6502,3.6941,3.7601,3.7206,3.7473,3.8315,3.9344,3.9878,4.0202,4.106,4.1446,4.1604,3.9687,3.9731,3.9835,4.0157,4.0253,4.0272,4.0234,4.0253,4.031,4.031,4.031,4.031,4.031,4.031,4.031,4.031,4.031,4.031,4.031,4.0253,4.0196,4.0196,4.0251,4.0336,4.0406,4.0641,4.0801,4.0896,4.1013,4.1086,4.1061,4.1091,4.1086,4.1089,4.1081,4.102,4.0888,4.0896,4.0894,4.0874,4.0749,4.0696,4.0668,4.0549,4.0408,4.031,4.0291,4.031,4.031,4.031,4.031,4.031,4.031,4.031,4.031,4.031,4.031,4.031,4.031,4.031,4.031,4.031,4.031,4.031,4.031,4.031,4.0291,4.0289,4.0307,4.0342,4.0466,4.0432,4.0468,4.0662,0.0,0.0,4.0662,4.0572,4.0413,4.0158,4.0022,3.9712,3.9072,3.898,3.8828,3.8523,3.851,3.8491,3.851,3.864,3.8465,3.798,3.7877,3.7667,3.7266,3.7266,3.696,3.6374,3.6457,3.6182,3.5622,3.5718,3.5735,3.5707,3.5707,3.6146,3.6857,3.6852,3.6881,3.7166,3.8281,3.8814,3.9077,4.0166,4.1007,4.1604,3.9358,3.9383,3.95,3.9829,3.9914,3.9996,4.0176,4.0215,4.0253,4.0272,4.031,4.031,4.031,4.031,4.031,4.031,4.0253,4.0234,4.0234,4.0176,4.0137,4.0077,4.0099,4.0158,4.0283,4.0486,4.069,4.0848,4.1013,4.1111,4.11,4.11,4.1095,4.1097,4.096,4.0945,4.1003,4.0762,4.0713,4.082,4.0604,4.0559,4.0626,4.0434,4.0394,4.0408,4.0327,4.031,4.031,4.031,4.031,4.031,4.031,4.031,4.0291,4.0253,4.0234,4.0234,4.0195,4.0234,4.031,4.031,4.031,4.031,4.031,4.031,4.031,4.0291,4.0308,4.0326,4.0364,4.0381,4.0435,4.0504,0.0,4.0502,4.0504,4.0499,4.0358,4.002,3.9838,3.9529,3.8924,3.873,3.8566,3.8446,3.8446,3.8446,3.851,3.8483,3.8119,3.736,3.7266,3.7076,3.6724,3.6661,3.6392,3.5898,3.5898,3.5783,3.5622,3.5622,3.5622,3.5622,3.5622,3.5791,3.6096,3.6586,3.691,3.7081,3.8014,3.887,3.9633,4.0079,4.0806,4.1604,3.9125,3.9099,3.9171,3.958,3.9604,3.9651,3.9975,4.0017,4.0098,4.0215,4.0234,4.0234,4.0234,4.0234,4.0234,4.0234,4.0215,4.0176,4.0176,4.0117,4.0057,3.9996,4.0058,4.012,4.0211,4.0444,4.0626,4.0801,4.1,4.1095,4.1109,4.1109,4.1097,4.1059,4.091,4.0894,4.0949,4.0682,4.0618,4.069,4.0448,4.0434,4.0526,4.0341,4.0344,4.0425,4.0327,4.031,4.031,4.031,4.031,4.031,4.031,4.0291,4.0253,4.0215,4.0176,4.0157,4.0117,4.0157,4.0234,4.0253,4.0272,4.031,4.031,4.031,4.031,4.031,4.0309,4.0327,4.0328,4.0364,4.0381,4.0415,4.0432,4.0396,4.0251,4.0267,4.012,3.9679,3.9451,3.9178,3.8759,3.8491,3.8401,3.8415,3.8382,3.835,3.8281,3.8034,3.7542,3.6825,3.6781,3.6539,3.6139,3.6114,3.5915,3.5622,3.5622,3.5622,3.5622,3.5622,3.5622,3.5622,3.5622,3.5757,3.6028,3.6397,3.6797,3.7191,3.8031,3.8772,3.9451,4.0162,4.0769,4.1244,3.898,3.8868,3.8905,3.9502,3.9371,3.9275,3.9575,3.9647,3.9785,4.0057,4.0096,4.0096,4.0096,4.0096,4.0117,4.0117,4.0117,4.0117,4.0096,4.0036,3.9996,3.9996,4.0139,4.0195,4.0211,4.0532,4.0721,4.0801,4.1003,4.111,4.111,4.111,4.1059,4.1006,4.1006,4.0894,4.071,4.071,4.0614,4.048,4.0345,4.0332,4.0396,4.0252,4.0253,4.031,4.031,4.031,4.031,4.031,4.031,4.031,4.031,4.0253,4.0196,4.0196,4.0157,4.0117,4.0096,4.0096,4.0117,4.0176,4.0253,4.031,4.031,4.031,4.0291,4.0289,4.0309,4.031,4.0381,4.0346,4.0328,4.0485,4.0379,4.0195,3.9927,3.9823,3.9599,3.9044,3.8886,3.873,3.8523,3.8368,3.8354,3.8478,3.8368,3.8138,3.7826,3.7285,3.6825,3.6416,3.6374,3.6139,3.5622,3.5622,3.5622,3.5622,3.5622,3.5622,3.5622,3.5622,3.5622,3.5622,3.5622,3.6062,3.6726,3.6219,3.6489,3.7253,3.8221,3.8268,3.8055,4.0343,4.0829,4.0412,3.8446,3.8382,3.8446,3.8836,3.8818,3.8886,3.9197,3.9275,3.9327,3.9451,3.9675,3.9826,3.9826,3.9975,4.0117,4.0117,4.0057,4.0015,3.9954,3.9933,3.9933,3.9933,3.9975,4.006,4.0195,4.0296,4.0458,4.0721,4.084,4.0941,4.1032,4.1032,4.0937,4.0791,4.0791,4.0707,4.0546,4.0408,4.0329,4.0277,4.0139,4.01,4.012,4.0177,4.0215,4.0234,4.0272,4.031,4.031,4.031,4.031,4.0291,4.0253,4.0234,4.0176,4.0098,4.0057,4.0036,3.9954,3.9975,4.0057,4.0176,4.0234,4.0253,4.0291,4.031,4.031,4.031,4.0253,4.0253,4.0328,4.0291,4.0252,4.0362,4.0177,3.9963,3.9842,3.9671,3.9414,3.8915,3.8915,3.8789,3.8401,3.8401,3.8433,3.8354,3.807,3.7685,3.7248,3.7038,3.6741,3.6326,3.6326,3.6071,3.5622,3.5622,3.5622,3.5622,3.5622,3.5622,3.5622,3.5622,3.5622,3.5622,3.5622,3.5496,3.5404,3.5841,3.5927,3.5938,3.7085,3.7903,3.8435,3.902,3.9876,4.0678,3.8354,3.8274,3.8274,3.851,3.846,3.8473,3.8733,3.8839,3.8924,3.9044,3.9275,3.9421,3.9421,3.9561,3.9656,3.9656,3.9739,3.9826,3.9889,3.9889,3.9889,3.9889,3.9889,3.9975,4.008,4.023,4.0408,4.0616,4.078,4.0924,4.0991,4.0921,4.082,4.0707,4.0636,4.0516,4.0329,4.023,4.0139,4.0042,3.9977,3.9975,3.9996,4.0098,4.0138,4.0196,4.0253,4.0291,4.031,4.031,4.0272,4.0253,4.0215,4.0157,4.0098,4.0017,3.9911,3.9804,3.9758,3.9675,3.9632,3.9724,3.9873,4.0017,4.0077,4.0078,4.0059,4.0099,4.006,4.0021,4.0059,3.9918,3.9838,3.9922,3.9775,3.9599,3.9462,3.9333,3.9072,3.8658,3.8658,3.8597,3.8401,3.8368,3.8271,3.8018,3.7667,3.7283,3.6741,3.6498,3.6266,3.6045,3.6045,3.5871,3.5622,3.5622,3.5622,3.5622,3.5622,3.5622,3.5622,3.5622,3.5622,3.5577,3.5379,3.5115,3.4802,3.4857,3.4897,3.5013,3.5953,3.6934,3.7852,3.8343,3.8969,3.9611,3.851,3.8336,3.8241,3.8415,3.8186,3.8034,3.8231,3.8378,3.8535,3.8781,3.8896,3.8952,3.8952,3.898,3.898,3.9008,3.9313,3.9623,3.9889,3.9889,3.9889,3.9889,3.9889,3.9889,3.9889,4.0267,4.0462,4.0511,4.0798,4.0943,4.0943,4.078,4.0665,4.0655,4.0535,4.0334,4.0081,4.0139,4.0021,3.9804,3.9867,3.9933,3.9996,3.9996,4.0077,4.0176,4.0196,4.0253,4.0291,4.0291,4.0234,4.0138,4.0157,4.0038,3.9914,3.9914,3.9675,3.9458,3.9458,3.9216,3.9008,3.9099,3.9371,3.9628,3.9717,3.9702,3.9687,3.9754,3.969,3.9664,3.9664,3.9408,3.9231,3.9383,3.9308,3.9197,3.8924,3.8828,3.8658,3.8322,3.8241,3.8274,3.8446,3.8322,3.802,3.7505,3.7303,3.6882,3.6259,3.5827,3.5622,3.5622,3.5622,3.5622,3.5622,3.556,3.5532,3.5532,3.5577,3.5577,3.547,3.5577,3.5577,3.5424,3.4975,3.4738,3.456,3.3598,3.363,3.4355,3.4848,3.5597,3.6542,3.7986,3.8135,3.7782,3.8153,3.8086,3.8036,3.802,3.7951,3.7916,3.7985,3.807,3.8153,3.8183,3.8442,3.8628,3.8688,3.8828,3.8952,3.9008,3.9313,3.9623,3.9889,3.9889,3.9889,3.9889,3.9889,3.9889,3.9826,3.9958,4.0195,4.0511,4.0408,4.0438,4.0623,4.0563,4.0462,4.03,4.0329,4.0175,3.9873,3.9982,3.996,3.9804,3.9826,3.9848,3.9933,3.9975,4.0017,4.0057,4.0176,4.0196,4.0215,4.0215,4.0038,3.9804,3.9758,3.9537,3.9282,3.9223,3.9189,3.9109,3.9109,3.9082,3.9027,3.9146,3.9008,3.8933,3.9249,3.9377,3.9383,3.9333,3.9282,3.9257,3.9308,3.9205,3.9178,3.9308,3.9125,3.8952,3.8828,3.8628,3.8415,3.8241,3.8241,3.8274,3.8274,3.8225,3.7933,3.7303,3.7076,3.662,3.5783,3.5667,3.5622,3.5622,3.5622,3.5622,3.5622,3.5178,3.4975,3.4975,3.5424,3.5178,3.4382,3.5224,3.5131,3.4366,3.4673,3.4317,3.3547,3.3287,3.3081,3.2975,3.4036,3.4606,3.499,3.6509,3.7242,3.765,3.7985,3.7933,3.7916,3.781,3.7792,3.781,3.7739,3.7828,3.7845,3.7845,3.807,3.8238,3.8252,3.8346,3.8486,3.8663,3.8839,3.9117,3.9585,3.9609,3.9675,3.9867,3.9848,3.9826,3.9758,3.98,3.996,4.03,4.0281,4.0312,4.0442,4.0383,4.0285,4.0139,4.0082,3.996,3.9773,3.9829,3.9766,3.967,3.9758,3.9804,3.9826,3.9911,3.9892,3.9826,3.9892,3.9829,3.9724,3.9724,3.9585,3.9421,3.9371,3.9223,3.9063,3.9008,3.8915,3.8818,3.8818,3.87,3.8646,3.8695,3.859,3.8572,3.898,3.9027,3.9008,3.898,3.8924,3.8924,3.8896,3.877,3.8711,3.8857,3.873,3.8597,3.8597,3.8478,3.8322,3.8225,3.8225,3.8156,3.788,3.7756,3.745,3.6821,3.6701,3.6333,3.5667,3.5622,3.5622,3.5622,3.5622,3.547,3.5224,3.4927,3.4512,3.4053,3.456,3.4529,3.4036,3.4577,3.4529,3.3986,3.402,3.37,3.3198,3.2933,3.2641,3.2468,3.3395,3.3994,3.4397,3.5262,3.612,3.6926,3.7864,3.7864,3.781,3.7703,3.7667,3.7667,3.7613,3.7649,3.7703,3.7703,3.781,3.7864,3.7899,3.7899,3.8002,3.8277,3.8291,3.8554,3.9178,3.9275,3.9421,3.9693,3.9758,3.9758,3.9708,3.9708,3.9807,4.0041,4.0156,4.0243,4.0296,4.0176,4.01,4.0021,3.987,3.975,3.9693,3.9703,3.9618,3.957,3.9712,3.9758,3.9717,3.9781,3.9712,3.9575,3.9532,3.9371,3.9178,3.9178,3.9099,3.9017,3.9017,3.8952,3.8857,3.8857,3.8718,3.8541,3.8541,3.8387,3.8192,3.8225,3.8241,3.8354,3.8732,3.8707,3.8628,3.8628,3.8628,3.8597,3.8523,3.8354,3.8241,3.8368,3.8354,3.8322,3.8368,3.8322,3.8274,3.8225,3.8192,3.802,3.7596,3.734,3.6999,3.6367,3.6367,3.6139,3.5622,3.5622,3.5622,3.5622,3.5515,3.5224,3.4816,3.4625,3.4119,3.3355,3.3614,3.3732,3.3716,3.3935,3.3869,3.3732,3.3339,3.3145,3.3039,3.2586,3.2398,3.2437,3.2895,3.3455,3.4045,3.4279,3.5054,3.598,3.7757,3.7721,3.7703,3.7613,3.7613,3.7613,3.7577,3.7649,3.7703,3.7703,3.7703,3.7757,3.7899,3.7899,3.8002,3.8277,3.8291,3.8449,3.882,3.9154,3.9305,3.9376,3.9575,3.9708,3.9717,3.9717,3.975,3.9829,3.9873,3.9854,3.9876,3.9851,3.9826,3.9758,3.9746,3.9717,3.9693,3.9626,3.9626,3.9693,3.9698,3.975,3.9762,3.9551,3.9477,3.9483,3.9249,3.9152,3.9125,3.9125,3.8924,3.8658,3.8658,3.851,3.8322,3.8322,3.8289,3.8241,3.8241,3.8225,3.8225,3.8274,3.8241,3.8241,3.8372,3.8354,3.8322,3.8256,3.8274,3.8256,3.8241,3.8207,3.8207,3.8289,3.8307,3.8307,3.8289,3.8307,3.8274,3.8225,3.8192,3.8054,3.7703,3.7559,3.7152,3.6416,3.6326,3.6114,3.5622,3.5622,3.5622,3.5622,3.5178,3.488,3.4769,3.3903,3.3563,3.3869,3.3018,3.2602,3.2656,3.3578,3.3475,3.2656,3.3039,3.2949,3.2492,3.2453,3.2398,3.2398,3.2492,3.2554,3.2764,3.355,3.4379,3.5169,3.7649,3.7649,3.7649,3.7631,3.7577,3.7577,3.7577,3.7613,3.7649,3.7649,3.7649,3.7649,3.7739,3.7739,3.7792,3.7879,3.7913,3.8065,3.8449,3.8603,3.877,3.8961,3.9253,3.9401,3.9362,3.9552,3.9674,3.975,3.975,3.9731,3.9735,3.9735,3.9731,3.9679,3.9717,3.9669,3.9645,3.9406,3.9309,3.9309,3.921,3.9146,3.9136,3.9109,3.9045,3.8905,3.8688,3.8597,3.8597,3.8597,3.8491,3.8387,3.8387,3.8307,3.8192,3.8192,3.8192,3.8192,3.8192,3.8192,3.8225,3.8259,3.8207,3.8225,3.8259,3.8241,3.8259,3.8225,3.8192,3.8192,3.8192,3.8192,3.8207,3.8307,3.8274,3.8241,3.8307,3.8274,3.8241,3.8192,3.7774,3.7431,3.7264,3.6764,3.6291,3.5985,3.5915,3.5827,3.5622,3.5622,3.5622,3.5622,3.5379,3.4975,3.4382,3.3869,3.3459,3.3108,3.2656,3.2547,3.2841,3.3002,3.2857,3.2382,3.2641,3.2641,3.2398,3.2398,3.2398,3.2398,3.2398,3.2398,3.253,3.3352,3.3913,3.4384]},{"header":{"parameterUnit":"m.s-1","parameterCategory":1,"la1":30.6,"la2":28.766,"lo1":-90.7593,"lo2":-88.6598,"dy":0.0162,"dx":0.0183,"nx":116,"ny":114,"refTime":"2023-05-23T12:00:00:Z","depth":0,"parameterNumber":3,"parameterNumberName":"V-component_of_WINDS"},"data":[0.0,0.0,0.0,0.0,0.0,0.0,0.0,0.0,0.0,0.0,0.0,0.0,0.0,0.0,0.0,0.0,0.0,0.0,0.0,0.0,0.0,0.0,0.0,0.0,0.0,0.0,0.0,0.0,0.0,0.0,0.0,0.0,0.0,0.0,0.0,0.0,0.0,0.0,0.0,0.0,0.0,0.0,0.0,0.0,0.0,0.0,0.0,0.0,0.0,0.0,0.0,0.0,0.0,0.0,0.0,0.0,0.0,0.0,0.0,0.0,0.0,0.0,0.0,0.0,0.0,0.0,0.0,0.0,0.0,0.0,0.0,0.0,0.0,0.0,0.0,0.0,0.0,0.0,0.0,0.0,0.0,0.0,0.0,0.0,0.0,0.0,0.0,0.0,0.0,0.0,0.0,0.0,0.0,0.0,0.0,0.0,0.0,0.0,0.0,0.0,0.0,0.0,0.0,0.0,0.0,0.0,0.0,0.0,0.0,0.0,0.0,0.0,0.0,0.0,0.0,0.0,0.0,0.0,0.0,0.0,0.0,0.0,0.0,0.0,0.0,0.0,0.0,0.0,0.0,0.0,0.0,0.0,0.0,0.0,0.0,0.0,0.0,0.0,0.0,0.0,0.0,0.0,0.0,0.0,0.0,0.0,0.0,0.0,0.0,0.0,0.0,0.0,0.0,0.0,0.0,0.0,0.0,0.0,0.0,0.0,0.0,0.0,0.0,0.0,0.0,0.0,0.0,0.0,0.0,0.0,0.0,0.0,0.0,0.0,0.0,0.0,0.0,0.0,0.0,0.0,0.0,0.0,0.0,0.0,0.0,0.0,0.0,0.0,0.0,0.0,0.0,0.0,0.0,0.0,0.0,0.0,0.0,0.0,0.0,0.0,0.0,0.0,0.0,0.0,0.0,0.0,0.0,0.0,0.0,0.0,0.0,0.0,0.0,0.0,0.0,0.0,0.0,0.0,0.0,0.0,0.0,0.0,0.0,0.0,0.0,0.0,0.0,0.0,0.0,0.0,0.0,0.0,0.0,0.0,0.0,0.0,0.0,0.0,0.0,0.0,0.0,0.0,0.0,0.0,0.0,0.0,0.0,0.0,0.0,0.0,0.0,0.0,0.0,0.0,0.0,0.0,0.0,0.0,0.0,0.0,0.0,0.0,0.0,0.0,0.0,0.0,0.0,0.0,0.0,0.0,0.0,0.0,0.0,0.0,0.0,0.0,0.0,0.0,0.0,0.0,0.0,0.0,0.0,0.0,0.0,0.0,0.0,0.0,0.0,0.0,0.0,0.0,0.0,0.0,0.0,0.0,0.0,0.0,0.0,0.0,0.0,0.0,0.0,0.0,0.0,0.0,0.0,0.0,0.0,0.0,0.0,0.0,0.0,0.0,0.0,0.0,0.0,0.0,0.0,0.0,0.0,0.0,0.0,0.0,0.0,0.0,0.0,0.0,0.0,0.0,0.0,0.0,0.0,0.0,0.0,0.0,0.0,0.0,0.0,0.0,0.0,0.0,0.0,0.0,0.0,0.0,0.0,0.0,0.0,0.0,0.0,0.0,0.0,0.0,0.0,0.0,0.0,0.0,0.0,0.0,0.0,0.0,0.0,0.0,0.0,0.0,0.0,0.0,0.0,0.0,0.0,0.0,0.0,0.0,0.0,0.0,0.0,0.0,0.0,0.0,0.0,0.0,0.0,0.0,0.0,0.0,0.0,0.0,0.0,0.0,0.0,0.0,0.0,0.0,0.0,0.0,0.0,0.0,0.0,0.0,0.0,0.0,0.0,0.0,0.0,0.0,0.0,0.0,0.0,0.0,0.0,0.0,0.0,0.0,0.0,0.0,0.0,0.0,0.0,0.0,0.0,0.0,0.0,0.0,0.0,0.0,0.0,0.0,0.0,0.0,0.0,0.0,0.0,0.0,0.0,0.0,0.0,0.0,0.0,0.0,0.0,0.0,0.0,0.0,0.0,0.0,0.0,0.0,0.0,0.0,0.0,0.0,0.0,0.0,0.0,0.0,0.0,0.0,0.0,0.0,0.0,0.0,0.0,0.0,0.0,0.0,0.0,0.0,0.0,0.0,0.0,0.0,0.0,0.0,0.0,0.0,0.0,0.0,0.0,0.0,0.0,0.0,0.0,0.0,0.0,0.0,0.0,0.0,0.0,0.0,0.0,0.0,0.0,0.0,0.0,0.0,0.0,0.0,0.0,0.0,0.0,0.0,0.0,0.0,0.0,0.0,0.0,0.0,0.0,0.0,0.0,0.0,0.0,0.0,0.0,0.0,0.0,0.0,0.0,0.0,0.0,0.0,0.0,0.0,0.0,0.0,0.0,0.0,0.0,0.0,0.0,0.0,0.0,0.0,0.0,0.0,0.0,0.0,0.0,0.0,0.0,0.0,0.0,0.0,0.0,0.0,0.0,0.0,0.0,0.0,0.0,0.0,0.0,0.0,0.0,0.0,0.0,0.0,0.0,0.0,0.0,0.0,0.0,0.0,0.0,0.0,0.0,0.0,0.0,0.0,0.0,0.0,0.0,0.0,0.0,0.0,0.0,0.0,0.0,0.0,0.0,0.0,0.0,0.0,0.0,0.0,0.0,0.0,0.0,0.0,0.0,0.0,0.0,0.0,0.0,0.0,0.0,0.0,0.0,0.0,0.0,0.0,0.0,0.0,0.0,0.0,0.0,0.0,0.0,0.0,0.0,0.0,0.0,0.0,0.0,0.0,0.0,0.0,0.0,0.0,0.0,0.0,0.0,0.0,0.0,0.0,0.0,0.0,0.0,0.0,0.0,0.0,0.0,0.0,0.0,0.0,0.0,0.0,0.0,0.0,0.0,0.0,0.0,0.0,0.0,0.0,0.0,0.0,0.0,0.0,0.0,0.0,0.0,0.0,0.0,0.0,0.0,0.0,0.0,0.0,0.0,0.0,0.0,0.0,0.0,0.0,0.0,0.0,0.0,0.0,0.0,0.0,0.0,0.0,0.0,0.0,0.0,0.0,0.0,0.0,0.0,0.0,0.0,0.0,0.0,0.0,0.0,0.0,0.0,0.0,0.0,0.0,0.0,0.0,0.0,0.0,0.0,0.0,0.0,0.0,0.0,0.0,0.0,0.0,0.0,0.0,0.0,0.0,0.0,0.0,0.0,0.0,0.0,0.0,0.0,0.0,0.0,0.0,0.0,0.0,0.0,0.0,0.0,0.0,0.0,0.0,0.0,0.0,0.0,0.0,0.0,0.0,0.0,0.0,0.0,0.0,0.0,0.0,0.0,0.0,0.0,0.0,0.0,0.0,0.0,0.0,0.0,0.0,0.0,0.0,0.0,0.0,0.0,0.0,0.0,0.0,0.0,0.0,0.0,0.0,0.0,0.0,0.0,0.0,0.0,0.0,0.0,0.0,0.0,0.0,0.0,0.0,0.0,0.0,0.0,0.0,0.0,0.0,0.0,0.0,0.0,0.0,0.0,0.0,0.0,0.0,0.0,0.0,0.0,0.0,0.0,0.0,0.0,0.0,0.0,0.0,0.0,0.0,0.0,0.0,0.0,0.0,0.0,0.0,0.0,0.0,0.0,0.0,0.0,0.0,0.0,0.0,0.0,0.0,0.0,0.0,0.0,0.0,0.0,0.0,0.0,0.0,0.0,0.0,0.0,0.0,0.0,0.0,0.0,0.0,0.0,0.0,0.0,0.0,0.0,0.0,0.0,0.0,0.0,0.0,0.0,0.0,0.0,0.0,0.0,0.0,0.0,0.0,0.0,0.0,0.0,0.0,0.0,0.0,0.0,0.0,0.0,0.0,0.0,0.0,0.0,0.0,0.0,0.0,0.0,0.0,0.0,0.0,0.0,0.0,0.0,0.0,0.0,0.0,0.0,0.0,0.0,0.0,0.0,0.0,0.0,0.0,0.0,0.0,0.0,0.0,0.0,0.0,0.0,0.0,0.0,0.0,0.0,0.0,0.0,0.0,0.0,0.0,0.0,0.0,0.0,0.0,0.0,0.0,0.0,0.0,0.0,0.0,0.0,0.0,0.0,0.0,0.0,0.0,0.0,0.0,0.0,0.0,0.0,0.0,0.0,0.0,0.0,0.0,0.0,0.0,0.0,0.0,0.0,0.0,0.0,0.0,0.0,0.0,0.0,0.0,0.0,0.0,0.0,0.0,0.0,0.0,0.0,0.0,0.0,0.0,0.0,0.0,0.0,0.0,0.0,0.0,0.0,0.0,0.0,0.0,0.0,0.0,0.0,0.0,0.0,0.0,0.0,0.0,0.0,0.0,0.0,0.0,0.0,0.0,0.0,0.0,0.0,0.0,0.0,0.0,0.0,0.0,0.0,0.0,0.0,0.0,0.0,0.0,0.0,0.0,0.0,0.0,0.0,0.0,0.0,0.0,0.0,0.0,0.0,0.0,0.0,0.0,0.0,0.0,0.0,0.0,0.0,0.0,0.0,0.0,0.0,0.0,0.0,0.0,0.0,0.0,0.0,0.0,0.0,0.0,0.0,0.0,0.0,0.0,0.0,0.0,0.0,0.0,0.0,0.0,0.0,0.0,0.0,0.0,0.0,0.0,0.0,0.0,0.0,0.0,0.0,0.0,0.0,0.0,0.0,0.0,0.0,0.0,0.0,0.0,0.0,0.0,0.0,0.0,0.0,0.0,0.0,0.0,0.0,0.0,0.0,0.0,0.0,0.0,0.0,0.0,0.0,0.0,0.0,0.0,0.0,0.0,0.0,0.0,0.0,0.0,0.0,0.0,0.0,0.0,0.0,0.0,0.0,0.0,0.0,0.0,0.0,0.0,0.0,0.0,0.0,0.0,0.0,0.0,0.0,0.0,0.0,0.0,0.0,0.0,0.0,0.0,0.0,0.0,0.0,0.0,0.0,0.0,0.0,0.0,0.0,0.0,0.0,0.0,0.0,0.0,0.0,0.0,0.0,0.0,0.0,0.0,0.0,0.0,0.0,0.0,0.0,0.0,0.0,0.0,0.0,0.0,0.0,0.0,0.0,0.0,0.0,0.0,0.0,0.0,0.0,0.0,0.0,0.0,0.0,0.0,0.0,0.0,0.0,0.0,0.0,0.0,0.0,0.0,0.0,0.0,0.0,0.0,0.0,0.0,0.0,0.0,0.0,0.0,0.0,0.0,0.0,0.0,0.0,0.0,0.0,0.0,0.0,0.0,0.0,0.0,0.0,0.0,0.0,0.0,0.0,0.0,0.0,0.0,0.0,0.0,0.0,0.0,0.0,0.0,0.0,0.0,0.0,0.0,0.0,0.0,0.0,0.0,0.0,0.0,0.0,0.0,0.0,0.0,0.0,0.0,0.0,0.0,0.0,0.0,0.0,0.0,0.0,0.0,0.0,0.0,0.0,0.0,0.0,0.0,0.0,0.0,0.0,0.0,0.0,0.0,0.0,0.0,0.0,0.0,0.0,0.0,0.0,0.0,0.0,0.0,0.0,0.0,0.0,0.0,0.0,0.0,0.0,0.0,0.0,0.0,0.0,0.0,0.0,0.0,0.0,0.0,0.0,0.0,0.0,0.0,0.0,0.0,0.0,0.0,0.0,0.0,0.0,0.0,0.0,0.0,0.0,0.0,0.0,0.0,0.0,0.0,0.0,0.0,0.0,0.0,0.0,0.0,0.0,0.0,0.0,0.0,0.0,0.0,0.0,0.0,0.0,0.0,0.0,0.0,0.0,0.0,0.0,0.0,0.0,0.0,0.0,0.0,0.0,0.0,0.0,0.0,0.0,0.0,0.0,0.0,0.0,0.0,0.0,0.0,0.0,0.0,0.0,0.0,0.0,0.0,0.0,0.0,0.0,0.0,0.0,0.0,0.0,0.0,0.0,0.0,0.0,0.0,0.0,0.0,0.0,0.0,0.0,0.0,0.0,0.0,0.0,0.0,0.0,0.0,0.0,0.0,0.0,0.0,0.0,0.0,0.0,0.0,0.0,0.0,0.0,0.0,0.0,0.0,0.0,0.0,0.0,0.0,0.0,0.0,0.0,0.0,0.0,0.0,0.0,0.0,0.0,0.0,0.0,0.0,0.0,0.0,0.0,0.0,0.0,0.0,0.0,0.0,0.0,0.0,0.0,0.0,0.0,0.0,0.9324,0.0,0.0,0.0,0.0,0.0,0.0,0.0,0.0,0.0,0.0,0.0,0.0,0.0,0.0,0.0,0.0,0.0,0.0,0.0,0.0,0.0,0.0,0.0,0.0,0.0,0.0,0.0,0.0,0.0,0.0,0.0,0.0,0.0,0.0,0.0,0.0,0.0,0.0,0.0,0.524,0.5284,0.5425,0.5281,0.5284,0.5428,0.0,0.0,0.0,0.0,0.0,0.0,0.0,0.0,0.0,0.0,0.0,0.0,0.0,0.0,0.0,0.0,0.0,0.0,0.0,0.0,0.0,0.0,0.0,0.0,0.0,0.0,0.0,0.0,0.0,0.0,0.0,0.0,0.0,0.0,0.0,0.0,0.0,0.0,0.0,0.0,0.0,0.0,0.0,0.0,0.0,0.0,0.0,0.0,0.0,0.0,0.0,0.0,0.0,0.0,0.0,0.0,0.0,0.0,0.0,0.0,0.0,0.0,0.0,0.0,0.0,0.0,0.0,0.0,0.0,0.0,0.0,0.9766,0.0,0.0,0.0,0.0,0.0,0.0,0.0,0.0,0.0,0.0,0.0,0.0,0.0,0.0,0.0,0.0,0.0,0.0,0.0,0.0,0.0,0.0,0.0,0.0,0.0,0.0,0.0,0.0,0.0,0.0,0.0,0.0,0.0,0.0,0.0,0.0,0.0,0.0,0.5428,0.5428,0.5428,0.5428,0.5428,0.5428,0.5428,0.0,0.0,0.0,0.0,0.0,0.0,0.0,0.0,0.0,0.0,0.0,0.0,0.0,0.0,0.0,0.0,0.0,0.0,0.0,0.0,0.0,0.0,0.0,0.0,0.0,0.0,0.0,0.0,0.0,0.0,0.0,0.0,0.0,0.0,0.0,0.0,0.0,0.0,0.0,0.0,0.0,0.0,0.0,0.0,0.0,0.0,0.0,0.0,0.0,0.0,0.0,0.0,0.0,0.0,0.0,0.0,0.0,0.0,0.0,0.0,0.0,0.0,0.0,0.7035,0.7962,0.8285,0.9716,1.0428,1.0598,1.0047,0.9973,1.0194,1.0194,0.0,0.0,0.0,0.0,0.0,0.0,0.0,0.0,0.0,0.0,0.0,0.0,0.0,0.0,0.0,0.0,0.0,0.0,0.0,0.0,0.0,0.4519,0.4519,0.4519,0.4582,0.467,0.0,0.0,0.0,0.0,0.0,0.0,0.0,0.5332,0.5342,0.5428,0.5428,0.5428,0.5428,0.5428,0.5428,0.5428,0.5428,0.5428,0.5428,0.0,0.0,0.0,0.0,0.0,0.0,0.0,0.0,0.0,0.0,0.0,0.0,0.0,0.0,0.0,0.0,0.0,0.0,0.0,0.0,0.0,0.0,0.0,0.0,0.0,0.0,0.0,0.0,0.0,0.0,0.0,0.0,0.0,0.0,0.0,0.0,0.0,0.0,0.0,0.0,0.0,0.422,0.5243,0.0,0.0,0.0,0.0,0.0,0.0,0.0,0.0,0.0,0.0,0.0,0.0,0.0,0.5432,0.5304,0.5453,0.5847,0.649,0.6772,0.7632,0.9139,0.9338,0.9913,1.0618,1.0544,0.0,1.0501,1.0501,0.0,0.0,0.0,0.0,0.0,0.0,0.0,0.0,0.0,0.0,0.0,0.0,0.0,0.0,0.0,0.0,0.0,0.0,0.0,0.0,0.0,0.4519,0.4553,0.4582,0.4653,0.4762,0.4925,0.0,0.0,0.0,0.0,0.0,0.0,0.5428,0.5428,0.5428,0.5428,0.5428,0.5428,0.5428,0.5428,0.5428,0.5428,0.5428,0.5428,0.5428,0.0,0.0,0.0,0.0,0.0,0.0,0.0,0.0,0.0,0.0,0.0,0.0,0.0,0.0,0.0,0.0,0.0,0.0,0.0,0.0,0.0,0.0,0.0,0.0,0.0,0.0,0.0,0.0,0.0,0.0,0.0,0.0,0.0,0.0,0.0,0.0,0.0,0.0,0.0,0.4495,0.4831,0.5309,0.5372,0.5369,0.0,0.0,0.0,0.0,0.0,0.0,0.0,0.0,0.0,0.5428,0.5447,0.5491,0.5491,0.5569,0.5814,0.6218,0.67,0.7313,0.8069,0.8539,0.9282,1.0226,1.0226,1.0505,1.1035,1.0868,1.0902,1.1049,0.0,0.0,0.0,0.0,1.1049,1.1049,0.0,0.0,0.0,0.0,0.0,0.0,0.0,0.0,0.0,0.0,0.0,0.0,0.4519,0.4519,0.458,0.4677,0.4724,0.4857,0.5111,0.5169,0.0,0.0,0.0,0.0,0.5428,0.5428,0.5428,0.5428,0.5428,0.5449,0.542,0.542,0.544,0.5474,0.5474,0.5433,0.5428,0.5428,0.5428,0.5428,0.0,0.0,0.0,0.0,0.0,0.0,0.0,0.0,0.0,0.0,0.0,0.0,0.0,0.0,0.0,0.0,0.0,0.0,0.0,0.0,0.0,0.0,0.0,0.0,0.0,0.0,0.0,0.0,0.0,0.0,0.0,0.0,0.0,0.0,0.0,0.0,0.0,0.484,0.5246,0.4767,0.5138,0.55,0.0,0.0,0.0,0.0,0.0,0.0,0.5474,0.5474,0.5474,0.5474,0.5586,0.5644,0.5644,0.5749,0.5943,0.6158,0.6793,0.722,0.7429,0.8127,0.8824,0.9522,0.9522,0.9985,1.0735,1.1014,1.1229,1.1423,1.1423,1.1423,1.1423,1.1423,1.1423,1.1423,0.0,0.0,0.0,0.0,0.0,0.0,0.0,0.0,0.0,0.0,0.0,0.4519,0.4519,0.4519,0.458,0.4677,0.4823,0.4969,0.5121,0.5267,0.5418,0.5428,0.5428,0.5428,0.5428,0.5428,0.5428,0.5428,0.5428,0.5437,0.5579,0.5579,0.565,0.5779,0.5779,0.5623,0.5428,0.5428,0.5428,0.5428,0.5428,0.0,0.0,0.0,0.0,0.0,0.0,0.0,0.0,0.0,0.0,0.0,0.0,0.0,0.0,0.0,0.0,0.0,0.0,0.0,0.0,0.0,0.0,0.0,0.0,0.0,0.0,0.0,0.0,0.0,0.0,0.0,0.0,0.0,0.0,0.0,0.0,0.0,0.0,0.3013,0.4535,0.0,0.0,0.0,0.0,0.5779,0.5779,0.5779,0.5779,0.5779,0.5779,0.5779,0.5786,0.5789,0.5789,0.5796,0.6226,0.7007,0.7078,0.7571,0.8333,0.8403,0.8403,0.8473,0.8473,0.8659,0.9052,1.0672,1.141,1.1423,1.1423,1.1423,1.1423,1.1423,1.1423,1.1423,0.0,0.0,0.0,0.0,0.0,0.0,0.0,0.0,0.0,0.4519,0.4519,0.4519,0.4519,0.4519,0.4565,0.4816,0.4887,0.5023,0.5264,0.5332,0.5428,0.5428,0.5428,0.5428,0.5428,0.5428,0.541,0.5508,0.5508,0.5583,0.5725,0.5725,0.5752,0.58,0.58,0.5742,0.5644,0.5644,0.5644,0.5644,0.558,0.5524,0.0,0.0,0.0,0.0,0.0,0.0,0.0,0.0,0.0,0.0,0.0,0.0,0.0,0.0,0.0,0.0,0.0,0.0,0.0,0.0,0.0,0.0,0.0,0.0,0.0,0.0,0.0,0.0,0.0,0.0,0.0,0.0,0.0,0.0,0.0,0.0,0.0,0.2894,0.4498,0.0,0.5823,0.5854,0.58,0.58,0.58,0.58,0.58,0.58,0.58,0.58,0.5895,0.5949,0.5949,0.6047,0.6245,0.6622,0.6622,0.6768,0.7061,0.7061,0.743,0.8022,0.8022,0.8431,0.9165,0.9827,1.0452,1.1099,1.1768,1.1991,1.1991,1.1991,1.1991,1.1991,0.0,0.0,0.0,0.0,0.0,0.0,0.0,0.0,0.0,0.4519,0.4519,0.4519,0.4519,0.4519,0.4585,0.4894,0.4918,0.5043,0.5408,0.5428,0.5428,0.5428,0.5428,0.5428,0.5428,0.5413,0.5488,0.5589,0.5637,0.5735,0.5878,0.5878,0.5908,0.5956,0.5956,0.5956,0.5956,0.5956,0.5898,0.58,0.5738,0.5676,0.5321,0.0,0.0,0.0,0.0,0.0,0.0,0.0,0.0,0.0,0.0,0.0,0.0,0.0,0.0,0.0,0.0,0.0,0.0,0.0,0.0,0.0,0.0,0.0,0.0,0.0,0.0,0.0,0.0,0.0,0.0,0.0,0.0,0.0,0.0,0.0,0.3134,0.196,0.3004,0.4428,0.5835,0.6016,0.5959,0.5956,0.5956,0.5956,0.5956,0.5956,0.5956,0.5956,0.6054,0.6108,0.6108,0.621,0.6338,0.6338,0.6338,0.6338,0.6338,0.6338,0.6641,0.7326,0.7326,0.7706,0.8313,0.8694,0.9216,0.989,1.087,1.1323,1.1323,1.1323,1.1323,1.1323,0.0,0.0,0.0,0.0,0.0,0.0,0.0,0.4519,0.4519,0.4519,0.4519,0.4519,0.4519,0.4519,0.4585,0.4894,0.4918,0.5043,0.5408,0.5428,0.5428,0.5428,0.5428,0.5428,0.5428,0.5511,0.5593,0.5596,0.5739,0.5888,0.6037,0.6037,0.6118,0.6338,0.6338,0.6338,0.6338,0.6338,0.6088,0.5817,0.5817,0.5895,0.5833,0.0,0.0,0.0,0.0,0.0,0.0,0.0,0.0,0.0,0.0,0.0,0.0,0.0,0.0,0.0,0.0,0.0,0.0,0.0,0.0,0.0,0.0,0.0,0.0,0.0,0.0,0.0,0.0,0.0,0.0,0.0,0.0,0.0,0.0,0.0,0.0,0.0,0.0,0.1509,0.5445,0.6113,0.6274,0.6264,0.6338,0.6338,0.6338,0.6338,0.6338,0.6338,0.6338,0.6338,0.6338,0.6338,0.6338,0.6338,0.6338,0.6338,0.6338,0.6338,0.6338,0.6338,0.6338,0.6338,0.6416,0.7326,0.7783,0.7859,0.8922,0.9296,0.9296,0.9296,0.9296,0.9296,0.0,0.0,0.0,0.0,0.0,0.0,0.0,0.4519,0.4519,0.4519,0.4519,0.4519,0.4519,0.4519,0.4585,0.4894,0.4918,0.5043,0.5408,0.5428,0.5428,0.5428,0.5428,0.5428,0.5428,0.5511,0.564,0.5742,0.5891,0.6119,0.6423,0.6423,0.6521,0.6714,0.6563,0.6486,0.6486,0.6338,0.621,0.6135,0.6135,0.6218,0.6152,0.0,0.0,0.0,0.0,0.0,0.0,0.0,0.0,0.0,0.0,0.0,0.0,0.0,0.0,0.0,0.0,0.0,0.0,0.0,0.0,0.0,0.0,0.0,0.0,0.0,0.0,0.0,0.0,0.0,0.0,0.0,0.0,0.0,0.0,0.0,0.0,0.0,0.0,0.0465,0.1549,0.445,0.6285,0.6274,0.6274,0.6271,0.6338,0.6338,0.6338,0.6338,0.6338,0.6338,0.6338,0.6338,0.6338,0.6338,0.6338,0.6338,0.6338,0.6338,0.6338,0.6338,0.6338,0.6338,0.6338,0.6567,0.6718,0.6868,0.8618,0.9296,0.9296,0.9296,0.9296,0.9296,0.0,0.0,0.0,0.0,0.0,0.0,0.0,0.4423,0.4519,0.4519,0.4519,0.4519,0.4519,0.4519,0.4585,0.4894,0.4918,0.5043,0.5408,0.5428,0.5428,0.5428,0.5428,0.5428,0.5428,0.5569,0.5718,0.58,0.602,0.6322,0.6563,0.6563,0.6714,0.6865,0.6788,0.6714,0.6563,0.649,0.6412,0.6338,0.6338,0.6264,0.6271,0.6271,0.6278,0.597,0.3524,0.1474,0.0,0.0,0.0,0.0,0.0,0.0,0.0,0.0,0.0,0.0,0.0,0.0,0.0,0.0,0.0,0.0,0.0,0.0,0.0,0.0,0.0,0.0,0.0,0.0,0.0,0.0,0.0,0.0,0.0,0.0,0.0,0.0,0.0,0.0,0.0,0.2192,0.3992,0.4929,0.5805,0.6281,0.6271,0.6268,0.6268,0.6338,0.6338,0.6338,0.6338,0.6338,0.6338,0.6338,0.6338,0.6291,0.6349,0.6349,0.6383,0.6444,0.6444,0.6444,0.6444,0.6444,0.6444,0.0,0.0,0.0,0.0,0.0,0.8012,0.8084,0.0,0.0,0.0,0.0,0.0,0.0,0.0,0.4368,0.4519,0.4519,0.4519,0.4519,0.4519,0.4519,0.4585,0.4894,0.4918,0.5043,0.5408,0.5428,0.5428,0.5428,0.5428,0.5428,0.5428,0.565,0.58,0.58,0.6184,0.6412,0.6641,0.6641,0.6791,0.6942,0.6942,0.6788,0.6641,0.6641,0.649,0.6338,0.6338,0.6338,0.6338,0.6264,0.6268,0.6278,0.6295,0.3761,0.0313,0.0078,0.0,0.0,0.0,0.0,0.0,0.0,0.0,0.0,0.0,0.0,0.0,0.0,0.0,0.0,0.0,0.0,0.0,0.0,0.0,0.0,0.0,0.0,0.0,0.0,0.0,0.0,0.0,0.0,0.0,0.0,0.0,0.0,0.0,0.0,0.0782,0.2577,0.4543,0.5652,0.596,0.0,0.0,0.0,0.0,0.6373,0.6312,0.6312,0.6312,0.6312,0.6312,0.6376,0.6498,0.6498,0.6573,0.6702,0.6702,0.6702,0.6702,0.6702,0.6702,0.6675,0.6413,0.6312,0.6312,0.6312,0.6312,0.6464,0.0,0.0,0.0,0.0,0.0,0.0,0.0,0.4368,0.4519,0.4519,0.4519,0.4519,0.4519,0.4519,0.4585,0.4894,0.4918,0.5043,0.5408,0.5428,0.5428,0.5428,0.5428,0.5428,0.5428,0.565,0.58,0.58,0.6331,0.6641,0.6865,0.7026,0.7176,0.7403,0.718,0.7022,0.6865,0.6637,0.649,0.6338,0.6338,0.6338,0.6264,0.6271,0.6271,0.6271,0.6308,0.4636,0.2266,0.0549,0.0,0.0,0.0,0.0,0.0,0.0,0.0,0.0,0.0,0.0,0.0,0.0,0.0,0.0,0.0,0.0,0.0,0.0,0.0,0.0,0.0,0.0,0.0,0.0,0.0,0.0,0.0,0.0,0.0,0.0,0.0,0.0,0.0,0.0,0.0157,0.0548,0.1017,0.1955,0.3595,0.5332,0.6342,0.6537,0.6541,0.6589,0.6614,0.6617,0.6617,0.6617,0.0,0.0,0.6658,0.6658,0.6671,0.6702,0.6702,0.6702,0.6702,0.6702,0.6702,0.6695,0.6637,0.6617,0.6617,0.6617,0.6617,0.6614,0.0,0.0,0.0,0.0,0.0,0.0,0.0,0.4324,0.4519,0.4525,0.4522,0.4519,0.4525,0.4482,0.4619,0.4847,0.5057,0.5203,0.5418,0.5428,0.5428,0.5428,0.5428,0.5428,0.5428,0.565,0.5875,0.595,0.6407,0.6718,0.7022,0.718,0.7334,0.7484,0.7411,0.7253,0.7022,0.6868,0.6641,0.6412,0.6338,0.6338,0.6264,0.6274,0.6274,0.6274,0.6315,0.5599,0.424,0.1098,0.0,0.0,0.0,0.0,0.0,0.0,0.0,0.0,0.0,0.0,0.0,0.0,0.0,0.0,0.0,0.0,0.0,0.0,0.0,0.0,0.0,0.0,0.0,0.0,0.0,0.0,0.0,0.0393,0.0629,0.0629,0.0629,0.0471,0.0079,0.0157,0.0237,0.0,0.0,0.0481,0.1455,0.2591,0.3666,0.4782,0.604,0.6661,0.6725,0.6725,0.6725,0.6725,0.6725,0.6421,0.58,0.6479,0.6518,0.6233,0.6662,0.6919,0.6919,0.6919,0.6919,0.6919,0.6919,0.6831,0.6702,0.6702,0.6702,0.6781,0.0,0.0,0.0,0.0,0.0,0.0,0.0,0.0,0.4436,0.4477,0.4473,0.4525,0.448,0.4241,0.4259,0.4799,0.5199,0.5432,0.5432,0.5428,0.5428,0.5428,0.5428,0.5428,0.5428,0.5623,0.5847,0.6025,0.6378,0.6762,0.7103,0.7103,0.7253,0.7403,0.7403,0.7253,0.7103,0.6945,0.6714,0.6563,0.6338,0.6338,0.6264,0.6278,0.6281,0.6203,0.5355,0.5608,0.5686,0.1414,0.0,0.0,0.0,0.0,0.0,0.0,0.0,0.0,0.0,0.0,0.0,0.0,0.0,0.0,0.0,0.0,0.0,0.0,0.0,0.0,0.0,0.0,0.0,0.0,0.0,0.0,0.0,0.0791,0.1348,0.1274,0.127,0.103,0.0318,0.0398,0.0401,0.0245,0.0082,0.0,0.0,0.0,0.0756,0.2444,0.4393,0.5602,0.6057,0.5972,0.5969,0.5969,0.6144,0.5763,0.4802,0.5849,0.5987,0.545,0.6251,0.6517,0.6517,0.6517,0.6517,0.6517,0.6517,0.656,0.6531,0.6703,0.6787,0.6867,0.0,0.0,0.0,0.0,0.0,0.0,0.0,0.0,0.0,0.4477,0.4484,0.448,0.4494,0.3254,0.3113,0.4742,0.5213,0.5376,0.5376,0.5432,0.5428,0.5428,0.5428,0.5428,0.5428,0.5528,0.5674,0.5803,0.6187,0.6421,0.6641,0.6868,0.6942,0.6942,0.6942,0.6868,0.6641,0.6641,0.6486,0.6338,0.6338,0.6338,0.6264,0.6285,0.6288,0.5802,0.2038,0.3146,0.5686,0.1414,0.0,0.0,0.0,0.0,0.0,0.0,0.0,0.0,0.0,0.0,0.0,0.0,0.0,0.0,0.0,0.0,0.0,0.0,0.0,0.0,0.0,0.0,0.0,0.0,0.0,0.0,0.0,0.0811,0.1389,0.1335,0.1314,0.1226,0.1168,0.0502,0.0335,0.1091,0.0419,0.0,0.0,0.0,0.0085,0.0345,0.0604,0.1741,0.3901,0.3544,0.3367,0.3367,0.417,0.4532,0.4364,0.4541,0.4548,0.4467,0.4554,0.4645,0.4645,0.4645,0.4645,0.4645,0.4645,0.5078,0.5946,0.6737,0.7092,0.7092,0.0,0.0,0.0,0.0,0.0,0.0,0.0,0.0,0.0,0.0,0.3694,0.3524,0.4389,0.2333,0.1239,0.2011,0.3482,0.4677,0.5372,0.5369,0.5428,0.5428,0.5428,0.5428,0.5428,0.5511,0.5686,0.5885,0.6127,0.6432,0.6579,0.682,0.6865,0.6865,0.6865,0.6865,0.6788,0.6637,0.6563,0.649,0.6335,0.6338,0.6264,0.6288,0.5494,0.4066,0.1097,0.1099,0.0,0.0628,0.0,0.0,0.0,-0.165,-0.3702,-0.3698,-0.3698,0.0,-0.2115,-0.18,-0.18,0.0,-0.0861,0.0,0.0,0.0,0.0,0.0,0.0,0.0,0.0,0.0,0.0,0.0,0.0,0.0,0.0,0.083,0.1424,0.1371,0.1192,0.1099,0.1264,0.1011,0.0677,0.0515,0.0687,0.0518,0.0,0.0,0.0,0.0,0.0531,0.1331,0.2326,0.1878,0.1789,0.2057,0.2416,0.2596,0.2596,0.3401,0.3935,0.4289,0.4289,0.4289,0.4289,0.4289,0.4289,0.4289,0.4289,0.4556,0.5003,0.5894,0.6609,0.7139,0.0,0.0,0.0,0.0,0.0,0.0,0.0,0.0,0.0,0.0,0.0,0.2968,0.3203,0.1326,0.0,0.0,0.1589,0.343,0.5245,0.5415,0.5432,0.5428,0.5428,0.5428,0.5428,0.5471,0.5614,0.5793,0.6011,0.6218,0.6415,0.6572,0.6645,0.6649,0.6692,0.6714,0.6714,0.6563,0.6486,0.6486,0.6338,0.6264,0.6268,0.6288,0.5338,0.3602,0.0941,0.0,0.0,0.0,-0.0786,-0.1729,-0.1728,-0.3859,-0.6179,-0.5602,-0.5836,-0.5993,-0.4387,-0.3988,0.0,-0.3988,-0.2815,-0.1409,-0.0235,0.0,0.0,0.0,0.0,0.0,0.0,0.0,0.0,0.0,0.0,0.0,0.0,0.0595,0.1114,0.1401,0.1229,0.1134,0.1288,0.1201,0.0863,0.0263,0.0615,0.0707,0.0,0.0269,0.0359,0.0359,0.0897,0.1256,0.1436,0.1076,0.1076,0.1436,0.1436,0.1436,0.1436,0.2331,0.3044,0.3487,0.3487,0.3487,0.3487,0.3487,0.3487,0.3487,0.3487,0.3666,0.4024,0.465,0.5719,0.6697,0.0,0.0,0.0,0.0,0.0,0.0,0.0,0.0,0.0,0.0,0.0,0.0,0.0,0.0,0.0,0.0,0.0062,0.1608,0.5172,0.537,0.5372,0.5428,0.5428,0.5428,0.5428,0.5432,0.544,0.5589,0.5599,0.5674,0.5813,0.5966,0.6037,0.6044,0.6193,0.6338,0.6338,0.6338,0.6338,0.6338,0.6338,0.6268,0.6278,0.6291,0.623,0.5686,0.1492,0.0,0.0,0.0,-0.2753,-0.6103,-0.6094,-0.6169,0.0,-0.3834,-0.4701,-0.6295,-0.6213,0.0,-0.6213,-0.6213,-0.6136,-0.5023,-0.0939,0.0,0.0,0.0,0.0,0.0,0.0,0.0,0.0,0.0,0.0,0.0,0.0,0.0,0.035,0.1252,0.1433,0.1344,0.0,0.0985,0.0717,0.0717,0.0269,0.0,0.0,0.0898,0.1345,0.1345,0.0987,0.0897,0.1436,0.1346,0.1346,0.1436,0.1436,0.1436,0.1436,0.1436,0.1435,0.1524,0.1524,0.1524,0.1524,0.1524,0.1524,0.1524,0.1524,0.2061,0.2956,0.2956,0.4115,0.5719,0.0,0.0,0.0,0.0,0.0,0.0,0.0,0.0,0.0,0.0,0.0,0.0,0.0,0.0,0.0,0.0,0.0,0.0493,0.1732,0.4089,0.5404,0.5369,0.5432,0.5428,0.5428,0.5369,0.5396,0.544,0.5483,0.556,0.5748,0.5837,0.5988,0.6222,0.6307,0.6291,0.6284,0.6307,0.6274,0.6274,0.6274,0.6281,0.6291,0.6312,0.6322,0.5767,0.0,0.0,0.0,0.0,0.0,0.0,-0.6332,-0.6329,-0.6162,-0.5413,-0.5718,-0.6274,-0.6274,-0.6274,-0.6274,-0.6274,-0.6278,-0.5967,-0.447,-0.198,0.0,0.0,0.0,0.0,0.0,0.0,0.0,0.0,0.0,0.0,0.0,0.0,0.0357,0.1255,0.0,0.0,0.0,0.0,0.0,0.0269,0.009,0.0,0.0,0.0898,0.1436,0.1436,0.1256,0.1256,0.1436,0.1436,0.0986,0.0179,0.0179,-0.0179,-0.0894,0.0717,0.0986,0.0269,0.1076,0.1436,0.1436,0.1436,0.1436,0.1436,0.1436,0.1614,0.1883,0.1883,0.2688,0.4026,0.0,0.0,0.0,0.0,0.0,0.0,0.0,0.0,0.0,0.0,0.0,0.0,0.0,0.0,0.0,0.0,0.0,0.0,0.0,0.2199,0.4041,0.5363,0.5429,0.5384,0.5372,0.5379,0.5106,0.442,0.5067,0.5117,0.4623,0.4683,0.4819,0.5042,0.5105,0.5155,0.5226,0.5987,0.6287,0.6213,0.5467,0.5652,0.6308,0.6325,0.6332,0.0,0.1492,0.0,-0.0236,0.0,0.0,0.0,-0.5361,-0.5671,-0.6302,-0.6278,-0.6268,-0.6338,-0.6338,-0.6338,-0.6338,-0.6338,-0.6305,-0.6352,-0.6369,-0.3634,-0.0903,-0.0164,0.0,0.0,0.0,0.0,0.0,0.0,0.0,0.0,0.0,-0.1438,-0.1974,-0.0538,-0.1791,-0.1969,0.0,0.0,0.0,0.0269,-0.0538,-0.0718,-0.0,-0.0179,-0.0179,0.0179,0.0179,0.0179,0.0179,0.0179,-0.0268,-0.0983,-0.0983,-0.1429,-0.2054,-0.0537,-0.0268,-0.0983,-0.0179,0.0358,0.0717,0.0717,0.0986,0.1436,0.1436,0.1436,0.1436,0.1436,0.1793,0.2598,0.0,0.0,0.0,0.0,0.0,0.0,0.0,0.0,0.0,0.0,0.0,0.0,0.0,0.0,0.0,0.0,0.0,0.0,0.0,0.0,0.1555,0.4954,0.5229,0.5237,0.5246,0.5326,0.4506,0.2678,0.4303,0.437,0.2813,0.2682,0.2576,0.258,0.2795,0.2973,0.3051,0.5092,0.6074,0.6084,0.4101,0.4384,0.5996,0.6006,0.6012,0.546,0.1415,0.0,0.0,0.0,0.0,0.0,0.0,-0.4688,-0.6338,-0.6338,-0.6338,-0.6338,-0.6338,-0.6261,-0.6261,-0.6271,-0.6373,-0.6481,-0.6592,-0.4879,-0.2684,-0.0419,0.0,0.0,0.0,0.0,0.0,0.0,0.0,-0.009,-0.0359,-0.4228,-0.6218,0.0,0.0,0.0,0.0,0.0,0.0,0.0448,0.0,-0.2152,-0.0359,-0.2239,-0.2952,-0.2149,-0.2145,-0.2144,-0.2144,-0.2144,-0.2233,-0.2233,-0.2233,-0.2233,-0.2322,-0.2144,-0.2144,-0.2144,-0.2054,-0.1429,-0.0447,-0.0358,0.0269,0.1345,0.1346,0.1436,0.1436,0.1436,0.1436,0.1524,0.0,0.0,0.0,0.0,0.0,0.0,0.0,0.0,0.0,0.0,0.0,0.0,0.0,0.0,0.0,0.0,0.0,0.0,0.0,0.0,0.0422,0.1366,0.2666,0.3414,0.3376,0.4734,0.4512,0.2678,0.1813,0.249,0.4654,0.1963,0.068,0.068,0.077,0.0778,0.0847,0.1378,0.3459,0.6243,0.5701,0.3904,0.1608,0.1638,0.1572,0.1493,0.0,0.0,0.0,0.0,0.0,0.0,0.0,-0.5873,-0.6338,-0.6338,-0.6338,-0.6338,-0.6338,-0.618,-0.6045,-0.639,-0.6371,-0.6351,-0.6637,-0.6279,-0.4651,-0.0773,0.0,0.0,0.0,0.0,0.0,0.0,0.0,0.0,-0.477,-0.6314,0.0,-0.4032,0.0,-0.4654,-0.2412,-0.3575,0.0,0.0,-0.2686,-0.3317,-0.4224,-0.3673,-0.322,-0.3041,-0.2412,-0.2144,-0.2144,-0.3035,-0.3482,-0.3482,-0.3482,-0.3931,-0.4741,-0.2772,-0.2325,-0.3129,-0.2056,-0.1431,-0.1074,-0.0358,0.009,0.0448,0.1166,0.1436,0.1436,0.1436,0.1436,0.1436,0.0,0.0,0.0,0.0,0.0,0.0,0.0,0.0,0.0,0.0,0.0,0.0,0.0,0.0,0.0,0.0,0.0,0.0,0.0,0.0,0.0,0.0,0.098,0.1492,0.1512,0.2538,0.251,0.1515,0.0468,0.101,0.2965,0.0943,0.0,0.0,0.0,0.0,0.0,0.0,0.1361,0.0,0.0,0.21,0.0,0.0,0.0,0.0,0.0,0.0,0.0,0.0,0.0,-0.6278,-0.6274,-0.6268,-0.6338,-0.6338,0.0,-0.6261,-0.618,-0.6146,-0.6208,-0.6374,-0.6417,-0.6536,-0.6793,-0.686,-0.5909,-0.2282,-0.0711,0.0,0.0,0.0,0.0,0.0,0.0,0.0,-0.5206,-0.6474,-0.6653,0.0,-0.5819,0.0,-0.4105,-0.5008,-0.5285,0.0,-0.4208,-0.4574,-0.567,-0.4842,-0.4385,-0.4389,-0.3935,-0.3664,-0.3664,-0.4289,-0.4559,-0.465,-0.4469,-0.4828,-0.5552,-0.3937,-0.3578,-0.4204,0.0,-0.2683,-0.2147,-0.1164,-0.0448,0.009,0.1076,0.1436,0.1436,0.1436,0.1436,0.1436,0.0,0.0,0.0,0.0,0.0,0.0,0.0,0.0,0.0,0.0,0.0,0.0,0.0,0.0,0.0,0.0,0.0,0.0,0.0,0.0,0.0,0.0,0.0,0.0,0.0,0.0,0.0,0.0,0.0,0.0,0.0,0.0,0.0,0.0,0.0,0.0,0.0,0.0,0.0,0.0,0.0,0.0,0.0,0.0,0.0,0.0,0.0,0.0,0.0,0.0,-0.6288,-0.6274,-0.6264,-0.6338,-0.6338,-0.6338,-0.6338,-0.6257,-0.5941,-0.6202,-0.6398,-0.626,-0.6552,-0.6847,-0.6956,-0.6994,-0.6554,-0.4472,0.0,0.0,0.0,-0.3414,-0.6403,-0.6956,0.0,-0.402,-0.4107,-0.5816,-0.7084,-0.7081,-0.671,-0.6432,-0.6343,-0.5994,-0.5733,-0.5733,-0.5733,-0.5741,-0.5668,-0.5741,-0.5738,-0.5744,-0.5649,-0.5644,-0.5644,-0.5463,-0.546,-0.5644,-0.5191,-0.5099,-0.5371,-0.5102,-0.4921,-0.4921,-0.4921,-0.4204,-0.313,-0.2148,-0.1075,0.009,0.1076,0.1436,0.1436,0.1436,0.1436,0.1436,0.0,0.0,0.0,0.0,0.0,0.0,0.0,0.0,0.0,0.0,0.0,0.0,0.0,0.0,0.0,0.0,0.0,0.0,0.0,0.0,0.0,0.0,0.0,0.0,0.0,0.0,0.0,0.0,0.0,0.0,0.0,0.0,0.0,0.0,0.0,0.0,0.0,0.0,0.0,0.0,0.0,0.0,0.0,0.0,0.0,0.0,0.0,0.0,0.0,0.0,-0.6281,-0.6264,-0.6338,-0.6338,-0.6338,-0.6338,-0.6338,-0.6257,-0.5941,-0.6047,-0.6267,-0.6378,-0.6538,-0.6701,-0.7011,-0.7074,0.0,0.0,-0.3054,0.0,0.0,-0.0719,-0.2516,-0.6496,0.0,0.0,0.0,0.0,-0.7081,0.0,0.0,0.0,0.0,0.0,0.0,0.0,-0.5733,-0.5735,-0.5738,-0.5735,-0.5735,-0.5735,-0.5555,-0.5463,-0.5463,-0.5191,-0.5099,-0.5099,-0.501,-0.501,-0.5099,-0.4837,-0.4748,-0.4748,-0.4478,0.0,-0.2865,-0.1879,-0.0896,0.009,0.1076,0.1436,0.1436,0.1436,0.1436,0.1436,0.0,0.0,0.0,0.0,0.0,0.0,0.0,0.3588,0.3182,0.2014,0.0761,0.0,0.0,0.0,0.0,0.0,0.0,0.0,0.0,0.0,0.0,0.0,0.0,0.0,0.0,0.0,0.0,0.0,0.0,0.0,0.0,0.0,0.0,0.0,0.0,0.0,0.0,0.0,0.0,0.0,0.0,0.0,0.0,0.0,0.0,0.0,0.0,0.0,0.0,0.0,-0.5404,-0.6271,-0.6264,-0.6338,-0.6338,-0.6338,-0.6338,-0.6257,-0.5941,-0.6179,-0.6447,-0.6427,-0.661,-0.6883,-0.7064,0.0,0.0,0.0,-0.3326,0.0,0.0,0.0,0.0,0.0,0.0,0.0,0.0,0.0,0.0,0.0,0.0,0.0,0.0,0.0,0.0,0.0,-0.5997,-0.5819,-0.5733,-0.5733,-0.5644,-0.5552,-0.5463,-0.5371,-0.5191,-0.4924,-0.4921,-0.501,-0.4743,-0.4743,-0.4835,-0.4569,-0.448,-0.4478,-0.3851,-0.3315,-0.2777,-0.1254,-0.0448,0.009,0.1076,0.1436,0.1436,0.1436,0.1436,0.1436,0.0,0.0,0.0,0.0,0.0,0.0,0.0,0.3581,0.3585,0.3595,0.1744,0.0268,0.0045,0.0,0.0,0.0,0.0,0.0,0.0,0.0,0.0,0.0,0.0,0.0,0.0,0.0,0.0,0.0,0.0,0.0,0.0,0.0,0.0,0.0,0.0,0.0,0.0,0.0,0.0,0.0,0.0,0.0,0.0,0.0,0.0,0.0,0.0,0.0,0.0,0.0,-0.454,-0.6281,-0.6268,-0.6264,-0.6338,-0.6338,-0.6338,-0.6257,-0.5941,-0.6308,-0.6615,-0.6443,-0.6751,-0.7064,-0.7084,-0.5641,0.0,0.0,-0.2606,0.0,0.0,0.0,0.0,0.0,0.0,0.0,0.0,0.0,0.0,0.0,0.0,0.0,0.0,0.0,0.0,0.0,-0.6169,-0.5908,-0.5733,-0.5733,-0.5644,-0.5463,-0.5371,-0.5191,-0.501,-0.4748,-0.4656,-0.4832,-0.4476,-0.4389,-0.4569,-0.4389,-0.421,-0.3941,-0.3405,-0.2867,-0.215,-0.0806,-0.009,0.0359,0.1076,0.1436,0.1436,0.1436,0.1436,0.1436,0.0,0.0,0.0,0.0,0.0,0.0,0.0,0.3581,0.3585,0.3595,0.2462,0.1206,0.0135,0.0,0.0,0.0,0.0,0.0,0.0,0.0,0.0,0.0,0.0,0.0,0.0,0.0,0.0,0.0,0.0,0.0,0.0,0.0,0.0,0.0,0.0,0.0,0.0,0.0,0.0,0.0,0.0,0.0,0.0,0.0,0.0,0.0,0.0,0.0,0.0,0.0,0.0,-0.6291,-0.6281,-0.6271,-0.6338,-0.6338,0.0,0.0,-0.5941,-0.6308,-0.6615,-0.6443,-0.6761,-0.7084,-0.7098,0.0,0.0,-0.1527,-0.027,0.0,0.0,0.0,0.0,0.0,0.0,-0.2146,0.0,0.0,0.0,0.0,0.0,0.0,0.0,0.0,0.0,0.0,-0.5908,-0.5733,-0.5733,-0.5733,-0.5733,-0.5644,-0.528,-0.501,-0.501,-0.4567,-0.4389,-0.4387,-0.43,-0.43,-0.43,-0.43,-0.3851,-0.3047,-0.3851,-0.2686,0.0,-0.0985,-0.0269,0.1256,0.1345,0.1436,0.1436,0.1436,0.1436,0.1436,0.0,0.0,0.0,0.0,0.0,0.0,0.3581,0.3581,0.3585,0.3595,0.2551,0.134,0.0135,0.0,0.0,0.0,0.0,0.0,0.0,0.0,0.0,0.0,0.0,0.0,0.0,0.0,0.0,0.0,0.0,0.0,0.0,0.0,0.0,0.0,0.0,0.0,0.0,0.0,0.0,0.0,0.0,0.0,0.0,0.0,0.0,0.0,0.0,0.0,0.0,0.0,0.0,0.0,-0.5883,-0.6271,0.0,0.0,-0.6338,-0.6261,-0.618,-0.6394,-0.6698,-0.6615,-0.685,-0.6723,-0.528,0.0,-0.5768,-0.0988,0.0,0.0,0.0,0.0,0.0,0.0,0.0,0.0,0.0,0.0,0.0,0.0,0.0,0.0,0.0,0.0,0.0,0.0,-0.5994,-0.5908,-0.5733,-0.5552,-0.546,-0.528,-0.5099,-0.4921,-0.4837,-0.4659,-0.4478,-0.43,-0.43,-0.43,-0.43,-0.43,-0.3762,-0.2957,-0.3314,-0.215,0.0,-0.0358,0.0179,0.1436,0.1436,0.1436,0.1436,0.1436,0.1436,0.1436,0.0,0.0,0.0,0.0,0.0,0.3581,0.3581,0.3581,0.3585,0.3592,0.2549,0.134,0.0135,0.0,0.0,0.0,0.0,0.0,0.0,0.0,0.0,0.0,0.0,0.0,0.0,0.0,0.0,0.0,0.0,0.0,0.0,0.0,0.0,0.0,0.0,0.0,0.0,0.0,0.0,0.0,0.0,0.0,0.0,0.0,0.0,0.0,0.0,0.0,0.0,0.0,0.0,0.0,0.0,0.0,0.0,0.0,-0.6338,-0.6338,-0.6338,-0.6474,-0.6702,-0.6709,-0.686,-0.6637,0.0,0.0,-0.4047,-0.0719,0.0,0.0,0.0,0.0,0.0,0.0,0.0,0.0,0.0,0.0,0.0,0.0,0.0,0.0,0.0,0.0,0.0,-0.626,-0.6171,-0.5997,-0.5644,-0.5463,-0.5371,-0.5191,-0.5099,-0.501,-0.4928,-0.475,-0.4569,-0.4389,-0.43,-0.43,-0.43,-0.43,-0.3762,-0.2956,-0.3226,-0.206,0.0,-0.0269,0.0269,0.1436,0.1436,0.1436,0.1436,0.1436,0.1436,0.1436,0.0,0.0,0.0,0.0,0.0,0.0,0.0,0.3581,0.3581,0.3581,0.2546,0.1339,0.0134,0.0,0.0,0.0,0.0,0.0,0.0,0.0,0.0,0.0,0.0,0.0,0.0,0.0,0.0,0.0,0.0,0.0,0.0,0.0,0.0,0.0,0.0,0.0,0.0,0.0,0.0,0.0,0.0,0.0,0.0,0.0,0.0,0.0,0.0,0.0,0.0,0.0,0.0,0.0,0.0,0.0,0.0,0.0,-0.6338,-0.6338,-0.6338,-0.6474,-0.6705,-0.6642,-0.6877,-0.7108,0.0,0.0,-0.009,-0.0,0.0,0.0,0.0,0.0,0.0,0.0,0.0,0.0,0.0,0.0,0.0,0.0,0.0,0.0,0.0,0.0,0.0,-0.6432,-0.6169,0.0,-0.546,-0.5371,-0.5463,-0.5644,-0.528,-0.5099,-0.5371,-0.4928,-0.4661,-0.4661,-0.4389,-0.43,-0.43,-0.43,-0.3762,-0.2957,-0.3851,-0.2686,0.0,-0.0985,-0.0269,0.1436,0.1436,0.1436,0.1436,0.1436,0.1436,0.1436,0.0,0.0,0.0,0.0,0.0,0.0,0.0,0.3581,0.3585,0.3592,0.3274,0.2239,0.0224,0.0,0.0,0.0,0.0,0.0,0.0,0.0,0.0,0.0,0.0,0.0,0.0,0.0,0.0,0.0,0.0,0.0,0.0,0.0,0.0,0.0,0.0,0.0,0.0,0.0,0.0,0.0,0.0,0.0,0.0,0.0,0.0,0.0,0.0,0.0,0.0,0.0,0.0,0.0,0.0,0.0,0.0,0.0,0.0,0.0,-0.638,-0.6549,-0.6729,-0.6763,-0.57,-0.5104,-0.6764,0.0,0.0,0.0,0.0,0.0,0.0,0.0,0.0,0.0,0.0,0.0,0.0,0.0,0.0,0.0,0.0,0.0,0.0,0.0,-0.6435,-0.6169,-0.5997,-0.5733,-0.5644,-0.5282,-0.528,-0.5463,-0.5371,-0.5282,-0.5371,-0.5282,-0.5104,-0.4924,-0.4832,-0.4746,-0.4569,-0.4569,-0.3942,-0.2957,-0.3851,-0.2686,-0.009,-0.0985,-0.0269,0.1436,0.1436,0.1436,0.1436,0.1436,0.1436,0.1436,0.0,0.0,0.0,0.0,0.0,0.0,0.0,0.3581,0.3581,0.3592,0.3182,0.2328,0.0851,0.0269,0.0,0.0,0.0,0.0,0.0,0.0,0.0,0.0,0.0,0.0,0.0,-0.2109,-0.0559,0.0,0.0,0.0,0.0,0.0,0.0,0.0,0.0,0.0,0.0,0.0,0.0,0.0,0.0,0.0,0.0,0.0,0.0,0.0,0.0,0.0,0.0,0.0,0.0,0.0,0.0,0.0,0.0,0.0,-0.6288,0.0,0.0,-0.6556,-0.6662,-0.6593,-0.5793,0.0,0.0,0.0,0.0,0.0,0.0,0.0,0.0,0.0,0.0,0.0,0.0,0.0,0.0,0.0,0.0,0.0,0.0,0.0,0.0,0.0,-0.6438,-0.6177,-0.6,-0.573,-0.5555,-0.5282,-0.501,-0.4743,-0.5015,-0.5196,-0.5371,-0.5196,-0.5104,-0.501,-0.4832,-0.4656,-0.4569,-0.4569,-0.4121,-0.3494,-0.403,-0.2864,0.0,-0.1164,-0.0269,0.1436,0.1436,0.1614,0.1883,0.1524,0.1614,0.1883,0.0,0.0,0.0,0.0,0.0,0.0,0.0,0.0,0.3581,0.3581,0.2635,0.1875,0.1697,0.0672,0.0,0.0,0.0,0.0,0.0,0.0,0.0,0.0,0.0,0.0,0.0,-0.308,-0.1564,0.0,0.0,0.0,0.0,0.0,0.0,0.0,0.0,0.0,0.0,0.0,0.0,0.0,0.0,0.0,0.0,0.0,0.0,0.0,0.0,0.0,0.0,0.0,0.0,0.0,0.0,0.0,0.0,0.0,0.0,0.0,0.0,0.0,0.0,0.0,0.0,0.0,0.0,0.0,0.0,0.0,0.0,0.0,0.0,0.0,0.0,0.0,0.0,0.0,0.0,0.0,0.0,0.0,0.0,0.0,0.0,0.0,-0.6529,-0.6189,-0.6088,-0.5813,-0.5282,-0.528,-0.4743,-0.3667,-0.4208,-0.4837,-0.5282,-0.4837,-0.4748,-0.501,-0.4565,-0.43,-0.43,-0.43,-0.43,0.0,-0.421,-0.3132,-0.1431,-0.1343,-0.0269,0.1436,0.1435,0.2061,0.2778,0.1883,0.2062,0.2777,0.0,0.0,0.0,0.0,0.0,0.0,0.0,0.0,0.0,0.0,0.336,0.2462,0.0626,0.0179,0.0,0.0,0.0,0.0,0.0,0.0,0.0,0.0,0.0,0.0,0.0,-0.4152,-0.2637,0.0,0.0,0.0,0.0,0.0,0.0,0.0,0.0,0.0,0.0,0.0,0.0,0.0,0.0,0.0,0.0,0.0,0.0,0.0,0.0,0.0,0.0,0.0,0.0,0.0,0.0,0.0,0.0,0.0,-0.3775,-0.6332,-0.6322,0.0,-0.4384,-0.6386,-0.6997,0.0,0.0,0.0,0.0,0.0,0.0,0.0,0.0,0.0,0.0,0.0,0.0,0.0,0.0,0.0,0.0,0.0,0.0,0.0,0.0,-0.5997,-0.5539,-0.6186,-0.528,-0.4556,-0.4287,-0.4113,-0.3937,-0.3578,-0.3578,-0.3667,-0.4026,-0.3937,-0.4206,-0.501,-0.4921,-0.4746,-0.4569,-0.4569,-0.448,-0.4297,-0.3582,-0.2508,-0.1342,-0.0627,0.0359,0.1435,0.224,0.2688,0.2867,0.2599,0.2688,0.2777,0.0,0.0,0.0,0.0,0.0,0.0,0.0,0.0,0.0,0.0,0.0,0.0,0.0,0.0,0.0,0.0,0.0,0.0,0.0,0.0,0.0,0.0,0.0,0.0,-0.4078,-0.4348,-0.3033,0.0,0.0,0.0,0.0,0.0,0.0,0.0,0.0,0.0,0.0,0.0,0.0,0.0,0.0,0.0,0.0,0.0,0.0,0.0,0.0,0.0,0.0,0.0,0.0,0.0,0.0,0.0,0.0,0.0,-0.1649,-0.3862,-0.5777,-0.407,-0.2021,-0.3503,-0.3866,-0.3145,0.0,0.0,0.0,0.0,0.0,0.0,0.0,0.0,0.0,0.0,0.0,0.0,0.0,0.0,0.0,0.0,0.0,0.0,0.0,0.0,-0.4924,-0.6483,-0.4928,-0.3486,-0.2591,-0.322,-0.3132,-0.1969,-0.2326,-0.313,-0.4204,-0.358,-0.3849,-0.4835,-0.4746,-0.4654,-0.448,-0.448,-0.4121,-0.3492,-0.3045,-0.197,-0.0447,0.0,0.0986,0.2241,0.2331,0.3135,0.4026,0.2688,0.2776,0.3312,0.0,0.0,0.0,0.0,0.0,0.0,0.0,0.0,0.0,0.0,0.0,0.0,0.0,0.0,0.0,0.0,0.0,0.0,0.0,0.0,0.0,0.0,0.0,-0.3237,-0.3607,-0.3755,-0.2581,0.0,0.0,0.0,0.0,0.0,0.0,0.0,0.0,0.0,0.0,0.0,0.0,0.0,0.0,0.0,0.0,0.0,0.0,0.0,0.0,0.0,0.0,0.0,0.0,0.0,0.0,0.0,0.0,0.0,0.0,0.0,-0.4342,-0.2688,0.0,0.0,0.0,0.0,0.0,0.0,0.0,0.0,0.0,0.0,0.0,0.0,0.0,0.0,0.0,0.0,0.0,0.0,0.0,0.0,0.0,0.0,-0.5584,-0.4125,-0.3764,-0.5773,-0.4036,-0.2324,-0.0984,-0.2325,-0.2148,-0.009,-0.0985,-0.2593,-0.4741,-0.3401,-0.3315,-0.4659,-0.4389,-0.43,-0.43,-0.4119,-0.3492,-0.2597,0.0,0.0,0.0626,0.0806,0.1792,0.3136,0.2689,0.3846,0.545,0.2864,0.2953,0.4109,0.0,0.0,0.0,0.0,0.0,0.0,0.0,0.0,0.0,0.0,0.0,0.0,0.0,0.0,0.0,0.0,0.0,0.0,0.0,0.0,0.0,0.0,-0.0339,-0.1514,-0.3556,-0.168,-0.0449,0.0,0.0,0.0,0.0,0.0,0.0,0.0,0.0,0.0,0.0,0.0,0.0,0.0,0.0,0.0,0.0,0.0,0.0,0.0,0.0,0.0,0.0,0.0,0.0,0.0,0.0,0.0,0.0,0.0,0.0,0.0,-0.0786,-0.0488,0.0,0.0,0.0,0.0,0.0,0.0,0.0,0.0,0.0,0.0,0.0,0.0,0.0,0.0,0.0,0.0,0.0,0.0,0.0,0.0,0.0,0.0,-0.0988,-0.0448,-0.0089,-0.0447,-0.0895,-0.0894,-0.0537,-0.0715,-0.0715,-0.0358,-0.0268,-0.1341,-0.3487,-0.2236,-0.2506,-0.4389,-0.43,-0.43,-0.4297,-0.3494,-0.3045,-0.2777,0.0,-0.009,0.0538,0.2147,0.2955,0.3315,0.4825,0.5714,0.5891,0.4559,0.4467,0.4554,0.0,0.0,0.0,0.0,0.0,0.0,0.0,0.0,0.0,0.0,0.0,0.0,0.0,0.0,0.0,0.0,0.0,0.0,0.0,0.0,0.0,0.0,0.0,-0.0505,-0.1616,-0.0542,0.0,0.0,0.0,0.0,0.0,0.0,0.0,0.0,0.0,0.0,0.0,0.0,0.0,0.0,0.0,0.0,0.0,0.0,0.0,0.0,0.0,0.0,0.0,0.0,0.0,0.0,0.0,0.0,0.0,0.0,0.0,0.0,0.0,0.0,0.0,0.0,0.0,0.0,0.0,0.0,0.0,0.0,0.0,0.0,0.0,0.0,0.0,0.0,0.0,0.0,0.0,0.0,0.0,0.0,0.0,0.018,0.0718,0.0448,0.0538,0.1075,0.0717,0.0448,0.0537,0.0089,0.0089,0.0537,0.0179,-0.0626,-0.2059,-0.1523,-0.2239,-0.4123,-0.3942,-0.3942,-0.3855,-0.2956,-0.2149,-0.1522,0.0,0.1164,0.2597,0.331,0.4202,0.5181,0.5445,0.5711,0.5891,0.4383,0.3758,0.3491,0.0,0.0,0.0,0.0,0.0,0.0,0.0,0.0,0.0,0.0,0.0,0.0,0.0,0.0,0.0,0.0,0.0,0.0,0.0,0.0,0.0,0.0,0.0,0.0,0.0,0.0,0.0,0.0,0.0,0.0,0.0,0.0,0.0,0.0,0.0,0.0,0.0,0.0,0.0,0.0,0.0,0.0,0.0,0.0,0.0,0.0,0.0,0.0,0.0,0.0,0.0,0.0,0.0,0.0,0.0,0.0,0.0,0.0,0.0,0.0,0.0,0.0,0.0,0.0,0.0,0.0,0.0,0.0,0.0,0.0,0.0,0.0,0.0,0.0,0.0,0.0,0.0,0.0,0.0,0.0,0.0,0.0269,0.0987,0.0629,0.0539,0.1076,0.1256,0.1436,0.1436,0.0717,0.0717,0.1436,0.0896,-0.0,-0.1076,-0.0986,-0.1882,-0.3857,-0.3678,-0.3587,-0.3587,-0.2418,-0.1342,-0.0447,0.0626,0.2237,0.4208,0.4206,0.527,0.6688,0.5977,0.5891,0.5894,0.4026,0.3048,0.2602,0.0,0.0,0.0,0.0,0.0,0.0,0.0,0.0,0.0,0.0,0.0,0.0,0.0,0.0,0.0,0.0,0.0,0.0,0.0,0.0,0.0,0.0,0.0,0.0,0.0,0.0,0.0,0.0,0.0,0.0,0.0,0.0,0.0,0.0,0.0,0.0,0.0,0.0,0.0,0.0,0.0,0.0,0.0,0.0,0.0,0.0,0.0,0.0,0.0,0.0,0.0,0.0,0.0,0.0,0.0,0.0,0.0,0.0,0.0,0.0,0.0,0.0,0.0,0.0,0.0,0.0,0.0,0.0,0.0,0.0,0.0,0.0,0.0,0.0,0.0,0.0,0.0,0.0,0.0,0.0,0.0,0.0,0.009,0.0808,0.0987,0.0179,0.0897,0.1436,0.1436,0.1345,0.1436,0.1794,0.1974,0.0986,-0.1074,-0.0626,-0.1522,-0.3587,-0.3587,-0.3587,-0.3497,-0.17,-0.0805,-0.0537,0.1255,0.2778,0.4028,0.4917,0.5891,0.6868,0.7492,0.7054,0.5902,0.4204,0.3403,0.3048,0.0,0.0,0.0,0.0,0.0,0.0,0.0,0.0,0.0,0.0,0.0,0.0,0.0,0.0,0.0,0.0,0.0,0.0,0.0,0.0,0.0,0.0,0.0,0.0,0.0,0.0,0.0,0.0,0.0,0.0,0.0,0.0,0.0,0.0,0.0,0.0,0.0,0.0,0.0,0.0,0.0,0.0,0.0,0.0,0.0,0.0,0.0,0.0,0.0,0.0,0.0,0.0,0.0,0.0,0.0,0.0,0.0,0.0,0.0,0.0,0.0,0.0,0.0,0.0,0.0,0.0,0.0,0.0,0.0,0.0,0.0,0.0,0.0,0.0,0.0,0.0,0.0,0.0,0.0,0.0808,0.0359,0.0269,0.0808,0.0628,0.0628,0.0897,0.0897,0.1076,0.1346,0.1525,0.1615,0.1525,0.1256,0.0359,-0.1075,-0.1522,-0.2238,-0.3317,-0.2777,-0.2419,-0.2152,-0.0269,0.0627,0.0717,0.2688,0.4117,0.5097,0.6071,0.7051,0.7848,0.7404,0.6786,0.5994,0.4914,0.4472,0.4478,0.0,0.0,0.0,0.0,0.0,0.0,0.0,0.0,0.0,0.0,0.0,0.0,0.0,0.0,0.0,0.0,0.0,0.0,0.0,0.0,0.0,0.0,0.0,0.0,0.0,0.0,0.0,0.0,0.0,0.0,0.0,0.0,0.0,0.0,0.0,0.0,0.0,0.0,0.0,0.0,0.0,0.0,0.0,0.0,0.0,0.0,0.0,0.0,0.0,0.0,0.1461,0.1885,0.1176,0.094,0.0862,0.0157,0.0,0.0,0.0,0.0,0.0,0.0,0.0,0.0,0.0,0.0,0.0,0.0,0.0,0.0,0.0,0.0,0.0,0.0,0.0,0.0,0.0,0.0,0.0359,0.1256,0.0808,0.0628,0.1166,0.0718,0.0628,0.1166,0.0987,0.1076,0.1346,0.1615,0.1615,0.1525,0.1076,0.0179,-0.1076,-0.1701,-0.2329,-0.2867,-0.1879,-0.1433,-0.1345,0.0179,0.1076,0.1524,0.3494,0.4832,0.5808,0.6697,0.7672,0.8384,0.7224,0.6697,0.6435,0.527,0.5095,0.5369,0.0,0.0,0.0,0.0,0.0,0.0,0.0,0.0,0.0,0.0,0.0,0.0,0.0,0.0,0.0,0.0,0.0,0.0,0.0,0.0,0.0,0.0,0.0,0.0,0.0,0.0,0.0,0.0,0.0,0.0,0.0,0.0,0.0,0.0,0.0,0.0,0.0,0.0,0.0,0.0,0.0067,0.0067,0.0067,0.0,0.0,0.0,0.0,0.0,0.0,0.0,0.4548,0.5921,0.3834,0.3124,0.2734,0.0626,0.0,0.0,0.0,0.0,0.0,0.0,0.0,0.0,0.0,0.0,0.0,0.0,0.0,0.0,0.0,0.0,0.0,0.0,0.0,0.0,0.0,0.0,0.0359,0.1256,0.1436,0.1256,0.0718,0.1166,0.1166,0.0718,0.1166,0.1436,0.1436,0.1436,0.1525,0.1794,0.1794,0.0806,-0.1074,-0.1163,-0.1522,-0.2149,-0.1163,-0.0985,-0.1345,-0.0716,0.0269,0.1524,0.3494,0.4832,0.5808,0.6697,0.758,0.8109,0.7132,0.7051,0.7238,0.5361,0.5095,0.5542,0.0,0.0,0.0,0.0,0.0,0.0,0.0,0.0,0.0,0.0,0.0,0.0,0.0,0.0,0.0,0.0,0.0,0.0,0.0,0.0,0.0,0.0,0.0,0.0,0.0,0.0,0.0,0.0,0.0,0.0,0.0,0.0,0.0,0.0,0.0,0.0,0.0,0.0,0.0,0.0202,0.2762,0.3777,0.3648,0.0,0.0,0.0,0.0,0.0,0.0,0.0,0.0,0.0,0.5575,0.5335,0.5257,0.4628,0.2348,0.0,0.0,0.0,0.0,0.0,0.0,0.0,0.0,0.0,0.0,0.0,0.0,0.0,0.0,0.0,0.0,0.0,0.0,0.0,0.0,0.0987,0.1076,0.1345,0.1436,0.1345,0.1166,0.1345,0.1345,0.1166,0.1345,0.1436,0.1436,0.1436,0.1436,0.1525,0.0269,-0.0716,-0.1342,-0.2684,-0.2953,-0.2238,-0.2238,-0.1254,0.0628,0.1524,0.251,0.3492,0.4741,0.5808,0.6786,0.7764,0.8204,0.8197,0.7933,0.7672,0.7418,0.6881,0.6697,0.6605,0.0,0.0,0.0,0.0,0.0,0.0,0.0,0.0,0.0,0.0,0.0,0.0,0.0,0.0,0.0,0.0,0.0,0.0,0.0,0.0,0.0,0.0,0.0,0.0,0.0,0.0,0.0,0.0,0.0,0.0,0.0,0.0,0.0,0.0,0.0,0.0,0.0,0.0,0.0808,0.236,0.4789,0.5712,0.5443,0.0,0.0,0.0,0.0,0.0,0.0,0.0,0.0,0.0,0.6285,0.6281,0.6285,0.6291,0.447,0.2118,0.0476,0.0,0.0,0.0,0.0,0.0,0.0,0.0,0.0,0.0,0.0,0.0,0.0,0.0,0.0,0.0,0.0,0.0,0.0,0.1166,0.1436,0.1436,0.1436,0.1436,0.1436,0.1436,0.1436,0.1436,0.1436,0.1436,0.1436,0.1436,0.1436,0.1436,0.0269,-0.0627,-0.1431,-0.2594,-0.2685,-0.179,-0.2059,-0.0806,0.1705,0.1973,0.2867,0.4389,0.5719,0.6786,0.7764,0.8388,0.8472,0.8201,0.8201,0.794,0.768,0.7507,0.7415,0.7234,0.0,0.0,0.0,0.0,0.0,0.0,0.0,0.0,0.0,0.0,0.0,0.0,0.0,0.0,0.0,0.0,0.0,0.0,0.0,0.0,0.0,0.0,0.0,0.0,0.0,0.0,0.0,0.0,0.0,0.0,0.0,0.0,0.0,0.0,0.0337,0.0472,0.0472,0.0338,0.2162,0.5238,0.5956,0.6084,0.5804,0.5813,0.0,0.0,0.0,0.0,0.0,0.0,0.0,0.0,0.6264,0.6338,0.6264,0.6288,0.6213,0.5288,0.0,0.0,0.0,0.0,0.0,0.0,0.0,0.0,0.0,0.0,0.0,0.0,0.0,0.0,0.0,0.0,0.0,0.0,0.0269,0.0897,0.1436,0.1436,0.1436,0.1436,0.1436,0.1436,0.1436,0.1436,0.1436,0.1436,0.1436,0.1436,0.1436,0.1436,0.1345,0.0448,-0.1342,-0.1431,-0.1342,-0.1074,-0.1074,0.009,0.2154,0.1343,0.2324,0.4654,0.6428,0.7764,0.8568,0.8568,0.8472,0.8201,0.8201,0.8116,0.7856,0.7595,0.7507,0.7507,0.0,0.0,0.0,0.0,0.0,0.0,0.0,0.0,0.0,0.0,0.0,0.0,0.0,0.0,0.0,0.0,0.0,0.0,0.0,0.0,0.0,0.0,0.0,0.0,0.0,0.0,0.0,0.0,0.0,0.0,0.0,0.0,0.0,0.0135,0.2965,0.4252,0.4188,0.2957,0.2909,0.3753,0.5364,0.6001,0.594,0.5939,0.6013,0.0,0.0,0.0,0.0,0.0,0.0,0.0,0.6338,0.6338,0.6264,0.6268,0.5553,0.4477,0.0,0.0,0.0,0.0,0.0,0.0,0.0,0.0,0.0,0.0,0.0,0.0,0.0,0.0,0.0,0.0,0.0,0.1345,0.1166,0.1256,0.1436,0.1436,0.1436,0.1436,0.1436,0.1436,0.1436,0.1436,0.1436,0.1436,0.1436,0.1436,0.1436,0.1436,0.0718,-0.0269,-0.1431,-0.1431,-0.1342,-0.1074,-0.0537,0.0628,0.2243,0.2865,0.4378,0.6609,0.7764,0.8388,0.8568,0.8568,0.8564,0.8476,0.8288,0.8201,0.8113,0.7856,0.768,0.7507,0.0,0.0,0.0,0.0,0.0,0.0,0.0,0.0,0.0,0.0,0.0,0.0,0.0,0.0,0.0,0.0,0.0,0.0,0.0,0.0,0.0,0.0,0.0,0.0,0.0,0.0,0.0,0.0,0.0,0.0,0.0,0.0,0.093,0.2695,0.4526,0.545,0.5518,0.474,0.444,0.4567,0.5722,0.6075,0.6012,0.6084,0.6139,0.6149,0.6234,0.0,0.0,0.0,0.0,0.0,0.0,0.0,0.6264,0.6268,0.5792,0.5283,0.0,0.0,0.0,0.0,0.0,0.0,0.0,0.0,0.0,0.0,0.0,0.0,0.0,0.0,0.0,0.0,0.0,0.1436,0.1436,0.1436,0.1436,0.1436,0.1436,0.1436,0.1436,0.1436,0.1436,0.1436,0.1436,0.1436,0.1436,0.1436,0.1436,0.1436,0.0897,0.0179,-0.0717,-0.0717,-0.0717,-0.0537,-0.0179,0.1254,0.358,0.4293,0.5536,0.7139,0.812,0.8568,0.8568,0.8568,0.8564,0.8384,0.8288,0.8201,0.8201,0.794,0.7852,0.7852,0.0,0.0,0.0,0.0,0.0,0.0,0.0,0.0,0.0,0.0,0.0,0.0,0.0,0.0,0.0,0.0,0.0,0.0,0.0,0.0,0.0,0.0784,0.0504,0.0392,0.0392,0.0116,0.0,0.0,0.0,0.0,0.0,0.0,0.2357,0.4928,0.5269,0.5555,0.5766,0.579,0.5877,0.6019,0.6254,0.6231,0.6084,0.6213,0.6338,0.6338,0.6338,0.6338,0.6338,0.6338,0.0,0.0,0.0,0.0,0.6264,0.6274,0.6291,0.6376,0.0,0.0,0.0,0.0,0.0,0.0,0.0,0.0,0.0,0.0,0.0,0.0,0.0,0.0,0.0,0.0,0.1436,0.1436,0.1436,0.1436,0.1436,0.1436,0.1436,0.1436,0.1436,0.1436,0.1436,0.1436,0.1436,0.1436,0.1436,0.1436,0.1436,0.1436,0.1436,0.0987,0.0,0.0179,0.0179,0.0,0.0358,0.2146,0.4999,0.5445,0.6248,0.7408,0.8212,0.8568,0.8568,0.8568,0.8472,0.8288,0.8288,0.8288,0.8292,0.8116,0.8116,0.8201,0.0,0.0,0.0,0.0,0.0,0.0,0.0,0.0,0.0,0.0,0.0,0.0,0.0,0.0,0.0,0.0,0.0,0.0,0.0,0.0,0.0,0.3884,0.2631,0.1898,0.1898,0.0635,0.0,0.0,0.0,0.0,0.0,0.0,0.0,0.3149,0.0,0.5538,0.5689,0.5803,0.5864,0.6017,0.6249,0.6307,0.6234,0.6254,0.6338,0.6338,0.6338,0.6338,0.6338,0.6338,0.6338,0.0,0.0,0.0,0.6338,0.6264,0.6349,0.0,0.0,0.0,0.0,0.0,0.0,0.0,0.0,0.0,0.0,0.0,0.0,0.0,0.0,0.0,0.0,0.1436,0.1436,0.1436,0.1436,0.1436,0.1436,0.1436,0.1436,0.1436,0.1436,0.1436,0.1436,0.1436,0.1436,0.1436,0.1436,0.1436,0.1436,0.1436,0.1436,0.0987,0.0,0.0807,0.0807,0.0,0.1878,0.3573,0.4999,0.6154,0.7224,0.8388,0.8568,0.8568,0.8568,0.8568,0.8568,0.8564,0.8564,0.8564,0.8564,0.8476,0.8384,0.8288,0.0,0.0,0.0,0.0,0.0,0.0,0.0,0.0,0.0,0.0,0.0,0.0,0.0,0.0,0.0,0.0,0.0,0.0,0.0,0.0,0.0,0.4504,0.3869,0.3559,0.3686,0.2913,0.1716,0.0,0.0,0.0,0.0,0.4919,0.4982,0.0,0.0,0.0,0.0,0.5867,0.6017,0.6166,0.6234,0.6338,0.6338,0.6338,0.6338,0.6338,0.6338,0.6338,0.6338,0.6338,0.6338,0.6338,0.6338,0.0,0.0,0.0,0.0,0.0,0.0,0.0,0.0,0.0,0.0,0.0,0.0,0.0,0.0,0.0,0.0,0.0,0.0,0.0,0.0,0.1436,0.1436,0.1436,0.1436,0.1436,0.1436,0.1436,0.1436,0.1436,0.1436,0.1436,0.1436,0.1436,0.1436,0.1436,0.1436,0.1436,0.1436,0.1436,0.1436,0.1166,0.0807,0.1166,0.1166,0.0807,0.3129,0.4465,0.5085,0.6956,0.812,0.8568,0.8568,0.8568,0.8568,0.8568,0.8568,0.8568,0.8568,0.8568,0.8568,0.8568,0.8564,0.8644,0.0,0.0,0.0,0.0,0.0,0.0,0.0,0.0,0.0,0.0,0.0,0.0,0.0,0.0,0.0,0.0,0.0,0.0,0.0,0.0,0.0,0.4551,0.4548,0.4676,0.4893,0.469,0.3283,0.0,0.0,0.0,0.342,0.4773,0.5406,0.0,0.5628,0.0,0.0,0.0,0.0,0.0,0.6338,0.6338,0.6338,0.6338,0.6338,0.6338,0.6338,0.6338,0.6338,0.6338,0.6338,0.6338,0.6338,0.6338,0.0,0.0,0.0,0.0,0.0,0.0,0.0,0.0,0.0,0.0,0.0,0.0,0.0,0.0,0.0,0.0,0.0,0.0,0.1436,0.1436,0.1436,0.1436,0.1436,0.1436,0.1436,0.1436,0.1436,0.1436,0.1436,0.1436,0.1436,0.1436,0.1436,0.1436,0.1436,0.1436,0.1436,0.1436,0.1436,0.1436,0.1436,0.1436,0.1524,0.1882,0.4018,0.5176,0.5531,0.7672,0.8568,0.8568,0.8568,0.874,0.8911,0.8652,0.874,0.8915,0.8652,0.8568,0.8568,0.8652,0.874,0.8828,0.0,0.0,0.0,0.0,0.0,0.0,0.0,0.0,0.0,0.0,0.0,0.0,0.0,0.0,0.4519,0.4519,0.4519,0.4067,0.3007,0.391,0.4604,0.4752,0.4745,0.0,0.4904,0.4889,0.3931,0.0,0.0,0.0,0.5272,0.5333,0.5535,0.5669,0.5662,0.5671,0.5813,0.0,0.0,0.0,0.0,0.6338,0.0,0.6338,0.6338,0.6338,0.0,0.6338,0.6338,0.6338,0.6338,0.6338,0.6338,0.0,0.0,0.0,0.0,0.0,0.0,0.0,0.0,0.0,0.0,0.0,0.0,0.0,0.0,0.0,0.0,0.0,0.0,0.0,0.1436,0.1436,0.1436,0.1436,0.1436,0.1436,0.1436,0.1436,0.1436,0.1436,0.1436,0.1436,0.1436,0.1436,0.1436,0.1436,0.1436,0.1436,0.1436,0.1436,0.1436,0.1436,0.1436,0.1436,0.1972,0.313,0.4376,0.562,0.6779,0.8028,0.8568,0.8568,0.8568,0.9087,0.9772,0.8915,0.9087,0.9772,0.8911,0.8568,0.8656,0.8828,0.874,0.8656,0.0,0.0,0.0,0.0,0.0,0.0,0.0,0.0,0.0,0.0,0.0,0.0,0.0,0.4519,0.4519,0.4519,0.4615,0.4502,0.4143,0.4594,0.4855,0.4843,0.484,0.4904,0.505,0.5058,0.4417,0.0,0.0,0.5399,0.5393,0.5481,0.5549,0.5672,0.5688,0.5806,0.5959,0.6112,0.0,0.0,0.0,0.0,0.0,0.0,0.0,0.0,0.0,0.0,0.0,0.6396,0.6461,0.0,0.0,0.0,0.0,0.0,0.0,0.0,0.0,0.0,0.0,0.0,0.0,0.0,0.0,0.0,0.0,0.0,0.0,0.0,0.0,0.2508,0.1436,0.1436,0.1436,0.1436,0.1436,0.1436,0.1436,0.1436,0.1436,0.1436,0.1436,0.1436,0.1436,0.1436,0.1436,0.1436,0.1436,0.1436,0.1436,0.1436,0.1436,0.1436,0.1436,0.215,0.2773,0.322,0.5176,0.6422,0.6868,0.8028,0.8568,0.8656,0.917,0.9602,0.9859,0.8999,0.9082,0.9772,0.8915,0.8652,0.8828,0.874,0.8828,0.9003,0.0,0.0,0.0,0.0,0.0,0.0,0.0,0.0,0.0,0.0,0.0,0.0,0.0,0.0,0.4558,0.4613,0.4776,0.4834,0.4769,0.4934,0.5013,0.4989,0.4989,0.5057,0.5206,0.5105,0.4825,0.0,0.0,0.0,0.0,0.5621,0.5647,0.5742,0.5837,0.5935,0.0,0.0,0.0,0.6338,0.0,0.0,0.6345,0.0,0.0,0.0,0.0,0.0,0.0,0.0,0.0,0.0,0.0,0.0,0.0,0.0,0.0,0.0,0.0,0.0,0.0,0.0,0.0,0.0,0.0,0.0,0.0,0.0,0.0,0.0,0.4914,0.3491,0.2153,0.1525,0.1436,0.1436,0.1436,0.1436,0.1436,0.1436,0.1436,0.1436,0.1436,0.1436,0.1436,0.1436,0.1436,0.0,0.1436,0.1436,0.1436,0.1436,0.1436,0.1436,0.1436,0.2596,0.3396,0.3842,0.58,0.7044,0.7404,0.8208,0.8568,0.8656,0.9515,1.012,1.0289,0.9432,0.9602,1.0289,0.9174,0.874,0.8828,0.8828,0.8911,0.8999,0.0,0.0,0.0,0.0,0.0,0.0,0.0,0.0,0.0,0.4577,0.0,0.0,0.0,0.0,0.0,0.4908,0.4921,0.4925,0.4925,0.4928,0.4992,0.5131,0.5138,0.5206,0.5425,0.5223,0.5226,0.0,0.0,0.0,0.0,0.0,0.5837,0.603,0.6034,0.6037,0.6047,0.0,0.6338,0.6338,0.0,0.6342,0.6278,0.0,0.0,0.0,0.6647,0.6705,0.0,0.6709,0.0,0.0,0.0,0.0,0.0,0.0,0.0,0.0,0.0,0.0,0.0,0.0,0.0,0.0,0.0,0.0,0.0,0.0,0.0,0.0,0.5899,0.4926,0.3678,0.1793,0.1436,0.1436,0.1346,0.1346,0.1346,0.1346,0.1346,0.1436,0.1436,0.1436,0.1436,0.1436,0.1436,0.1436,0.1436,0.1436,0.1436,0.1436,0.1436,0.1436,0.1435,0.2685,0.384,0.5085,0.6242,0.7492,0.8568,0.8568,0.8568,0.8652,0.9515,1.0463,1.1149,1.0289,1.0463,1.1068,0.9515,0.874,0.8652,0.9087,0.9003,0.8656,0.0,0.0,0.0,0.0,0.0,0.0,0.0,0.0,0.0,0.0,0.0,0.0,0.485,0.4857,0.4874,0.4914,0.5013,0.5074,0.5074,0.5176,0.5257,0.5294,0.5298,0.5318,0.5425,0.5321,0.5325,0.5432,0.0,0.0,0.5599,0.5813,0.0,0.0,0.6146,0.6196,0.62,0.6244,0.0,0.0,0.6373,0.6352,0.0,0.0,0.0,0.0,0.0,0.6773,0.6865,0.0,0.6936,0.7017,0.0,0.0,0.0,0.0,0.0,0.0,0.7139,0.0,0.0,0.0,0.0,0.0,0.0,0.0,0.0,0.0,0.0,0.6792,0.5897,0.5455,0.4919,0.3666,0.2329,0.1256,0.0897,0.0897,0.0897,0.0897,0.0987,0.1166,0.1346,0.1436,0.1436,0.0,0.1436,0.1436,0.1436,0.1436,0.1436,0.1436,0.2331,0.2777,0.2685,0.4465,0.5622,0.6331,0.7309,0.8116,0.8568,0.8568,0.8568,0.8652,1.0207,1.0636,1.0294,1.0033,1.0033,1.0202,0.9087,0.874,0.8828,0.8828,0.8915,0.9087,0.0,0.0,0.0,0.0,0.0,0.0,0.5875,0.5529,0.5192,0.0,0.0,0.0,0.4999,0.5067,0.5104,0.5104,0.5179,0.5226,0.5226,0.5311,0.5428,0.5428,0.5428,0.5428,0.5428,0.5428,0.5459,0.5457,0.5545,0.5654,0.5776,0.5949,0.6064,0.0,0.0,0.0,0.0,0.0,0.0,0.0,0.6437,0.0,0.0,0.6705,0.6742,0.0,0.0,0.0,0.7017,0.7017,0.7071,0.0,0.0,0.0,0.0,0.0,0.0,0.0,0.0,0.0,0.0,0.0,0.0,0.0,0.7753,0.7489,0.0,0.0,0.7489,0.6962,0.634,0.626,0.6086,0.5547,0.4478,0.3047,0.0985,0.0537,0.0448,0.0449,0.0538,0.0807,0.1345,0.1256,0.1166,0.1346,0.1256,0.1435,0.2152,0.2418,0.2596,0.2596,0.3312,0.3669,0.3664,0.5354,0.6331,0.6684,0.7665,0.838,0.8568,0.8907,0.9078,0.9257,1.1068,1.1154,0.9946,1.0289,1.0289,0.9859,0.917,0.8828,0.8828,0.8828,0.8999,0.9174,0.0,0.0,0.0,0.0,0.8152,0.7709,0.0,0.0,0.6078,0.0,0.5016,0.5016,0.5269,0.5343,0.5435,0.5452,0.5452,0.5459,0.5476,0.541,0.541,0.541,0.541,0.541,0.541,0.541,0.5477,0.5613,0.563,0.5772,0.603,0.6047,0.6129,0.6338,0.0,0.0,0.0,0.0,0.0,0.6498,0.6498,0.658,0.0,0.0,0.6943,0.6949,0.7088,0.7139,0.7139,0.7139,0.7139,0.0,0.0,0.0,0.0,0.0,0.7139,0.0,0.0,0.0,0.0,0.0,0.0,0.0,0.8452,0.7841,0.7401,0.0,0.0,0.7139,0.7139,0.7068,0.7081,0.7081,0.7091,0.5738,0.1968,0.0805,0.0358,0.0359,0.0538,0.0896,0.1613,0.1345,0.1255,0.1613,0.1345,0.1881,0.3315,0.4024,0.4378,0.4289,0.4467,0.4559,0.4467,0.5885,0.6505,0.6593,0.7665,0.838,0.874,0.9327,0.9758,1.0115,1.1929,1.1666,0.9946,1.1063,1.0809,0.9689,0.9345,0.8999,0.8652,0.9174,0.9262,0.9174,0.0,0.0,0.0,0.0,0.8002,0.7549,0.0,0.0,0.0,0.0,0.5645,0.5607,0.0,0.5796,0.541,0.5535,0.5545,0.5593,0.5708,0.5715,0.5715,0.5715,0.5715,0.5715,0.5715,0.5715,0.5732,0.5762,0.5884,0.5973,0.6034,0.6159,0.6234,0.6338,0.0,0.0,0.0,0.0,0.0,0.6658,0.6658,0.0,0.6729,0.6997,0.7027,0.6949,0.7088,0.7139,0.7139,0.7139,0.7139,0.7139,0.0,0.0,0.0,0.0,0.0,0.0,0.0,0.0,0.0,0.0,0.0,0.0,0.7401,0.7228,0.7139,0.0,0.7228,0.7139,0.7139,0.7143,0.7058,0.7058,0.7061,0.6799,0.6008,0.4113,0.2857,0.2858,0.3666,0.3935,0.3217,0.3395,0.3486,0.3215,0.3844,0.4293,0.4113,0.465,0.4828,0.4289,0.5727,0.6263,0.5714,0.6786,0.7408,0.7584,0.7852,0.846,0.9414,0.9579,1.0106,1.1068,1.2186,1.1666,1.0033,1.1923,1.1154,0.8823,0.874,0.874,0.8911,0.9515,0.9946,1.0313,0.0,0.0,0.0,0.0,0.9046,0.8727,0.8427,0.0,0.0,0.0,0.0,0.0,0.0,0.0,0.0,0.6448,0.5972,0.5725,0.5796,0.58,0.58,0.58,0.58,0.58,0.58,0.5878,0.5915,0.5915,0.6067,0.6146,0.6146,0.6224,0.6338,0.0,0.0,0.0,0.0,0.0,0.6675,0.6814,0.6814,0.0,0.6936,0.7085,0.7095,0.7044,0.7115,0.7139,0.7139,0.7139,0.7139,0.0,0.0,0.7139,0.7139,0.0,0.7139,0.7139,0.0,0.0,0.0,0.7139,0.0,0.0,0.0,0.7489,0.7316,0.7841,0.7492,0.7139,0.7139,0.7139,0.7139,0.7139,0.7577,0.776,0.7163,0.6086,0.5366,0.5371,0.5824,0.5916,0.5371,0.5552,0.5644,0.5371,0.5822,0.6,0.5727,0.5991,0.5985,0.5714,0.6615,0.6972,0.6602,0.7234,0.7591,0.768,0.8285,0.889,0.9579,1.0096,1.088,1.2015,1.2534,1.2186,1.1413,1.2443,1.1671,0.9951,1.012,1.012,1.0115,1.0636,1.1055,1.134,0.0,0.0,0.0,0.0,1.02,1.0034,0.9627,0.9572,0.0,0.0,0.0,0.0,0.0,0.0,0.0,0.0,0.0,0.5857,0.0,0.0,0.5891,0.5891,0.5891,0.5891,0.5891,0.601,0.6074,0.6074,0.62,0.6338,0.6338,0.6338,0.0,0.0,0.0,0.0,0.0,0.0,0.0,0.6929,0.0,0.7037,0.7139,0.7139,0.7139,0.7139,0.7139,0.7139,0.7139,0.7139,0.7139,0.7139,0.7139,0.7139,0.0,0.0,0.0,0.0,0.0,0.0,0.0,0.0,0.0,0.7312,0.0,0.0,0.0,0.0,0.0,0.0,0.0,0.7139,0.0,0.0,0.0,0.0,0.0,0.7051,0.0,0.7091,0.7531,0.7705,0.7446,0.7446,0.7446,0.7446,0.7258,0.7078,0.7078,0.7061,0.7139,0.7139,0.7139,0.7139,0.7139,0.7326,0.7507,0.7415,0.8627,0.9405,0.9836,1.0611,1.174,1.2966,1.279,1.2705,1.2705,1.2875,1.2443,1.158,1.1585,1.1499,1.1419,1.1807,1.2127,1.2314,1.012,1.0281,0.0,0.0,1.0571,1.0521,1.0491,1.0646,0.0,0.0,0.0,0.0,0.0,0.0,0.0,0.0,0.0,0.0,0.62,0.0,0.0,0.6207,0.6207,0.6207,0.6207,0.6227,0.6234,0.6234,0.6251,0.6338,0.6338,0.6338,0.0,0.0,0.6464,0.0,0.0,0.0,0.6912,0.0,0.7065,0.7126,0.0,0.7139,0.7139,0.7139,0.7139,0.7139,0.7139,0.0,0.7139,0.7139,0.0,0.7139,0.7139,0.7139,0.0,0.0,0.0,0.0,0.0,0.0,0.7139,0.0,0.0,0.0,0.7139,0.7316,0.0,0.7139,0.7139,0.0,0.0,0.0,0.0,0.0,0.697,0.7061,0.7058,0.7058,0.8969,0.984,0.8807,0.8723,0.8723,0.8723,0.7669,0.7143,0.7143,0.7143,0.7139,0.7139,0.7139,0.7139,0.7139,0.7326,0.7415,0.7143,0.8536,0.9662,1.0524,1.0869,1.2083,1.3913,1.3052,1.2705,1.279,1.3568,1.3392,1.2448,1.1671,1.1499,1.1785,1.2616,1.3073,1.3346,1.0401,1.0474,0.0,0.0,0.0,1.0815,1.0815,0.0,0.0,0.0,0.0,0.0,0.0,0.0,0.0,0.0,0.0,0.6193,0.0,0.0,0.0,0.6338,0.7403,0.748,0.6338,0.6872,0.6868,0.6338,0.6338,0.6338,0.6342,0.6346,0.0,0.0,0.6658,0.0,0.6844,0.0,0.7051,0.0,0.0,0.0,0.0,0.7139,0.7139,0.7139,0.7139,0.7139,0.7139,0.0,0.7139,0.0,0.0,0.0,0.0,0.0,0.0,0.0,0.0,0.0,0.0,0.0,0.0,0.0,0.7139,0.0,0.7139,0.0,0.0,0.0,0.0,0.0,0.0,0.0,0.7625,0.0,0.0,0.0,0.8619,0.0,0.0,0.0,0.889,0.889,0.9148,0.9836,0.8798,0.8448,0.9139,0.8536,0.8105,0.8105,0.8105,0.8105,0.8105,0.8886,0.9231,0.9135,1.0433,1.0956,1.0869,1.1655,1.2443,1.3307,1.2875,1.3045,1.3568,1.3913,1.3828,1.3483,1.3052,1.2966,1.3149,1.3525,1.3844,1.4018,1.0795,0.0,0.0,0.0,0.0,0.0,0.0,0.0,0.0,0.0,0.0,0.0,1.1527,0.9895,0.0,0.0,0.7176,0.6338,0.0,0.0,0.7099,0.0,0.0,0.0,0.0,0.7022,0.7045,0.6318,0.6318,0.6339,0.6383,0.6485,0.6556,0.0,0.0,0.6949,0.6993,0.0,0.0,0.7139,0.7139,0.7139,0.7139,0.7139,0.7139,0.7139,0.7139,0.7139,0.7139,0.7139,0.7139,0.0,0.7139,0.0,0.0,0.0,0.0,0.0,0.7139,0.0,0.0,0.0,0.0,0.0,0.0,0.0,0.0,0.0,0.0,0.0,0.0,0.0,0.7129,0.0,0.0,0.8611,0.0,0.9278,0.0,0.0,0.0,0.0,0.0,0.9065,0.9405,1.0524,0.9579,0.9405,1.0524,0.9836,0.9405,0.9405,0.9405,0.9405,0.9405,1.0183,1.0611,1.0611,1.1724,1.1986,1.1386,1.2266,1.2875,1.3045,1.279,1.3222,1.4088,1.4088,1.4088,1.4088,1.4088,1.4088,1.4095,1.4175,1.4342,1.4455,1.1396,1.1176,0.0,0.0,0.0,0.0,0.0,0.0,0.0,0.0,0.0,0.0,0.0,0.0,0.0,0.0,0.0,0.6338,0.6338,0.0,0.6338,0.0,0.0,0.6338,0.0,0.0,0.6407,0.6464,0.6464,0.6539,0.6685,0.6692,0.6773,0.6915,0.0,0.7004,0.7132,0.7139,0.7139,0.7139,0.7139,0.7139,0.7139,0.0,0.7139,0.7139,0.7139,0.0,0.0,0.7139,0.7139,0.0,0.0,0.0,0.0,0.0,0.0,0.0,0.0,0.0,0.0,0.7139,0.0,0.0,0.0,0.0,0.7139,0.0,0.0,0.0,0.7139,0.7139,0.7095,0.0,0.0,0.0,0.0,0.0,0.0,0.0,0.0,0.0,0.0,0.9579,0.9405,0.0,0.9579,0.9405,1.0524,1.0611,1.0524,1.0524,1.0524,1.0524,1.0524,1.0611,1.0611,1.0611,1.1724,1.2322,1.2242,1.2522,1.3222,1.4004,1.3052,1.3222,1.4088,1.4088,1.4088,1.4088,1.4088,1.4088,1.4122,1.4402,1.4509,1.4603,0.0,0.0,0.0,0.0,0.0,0.0,0.0,1.2151,0.0,0.0,0.0,0.0,0.0,0.8389,0.7629,0.0,0.0,0.6338,0.6338,0.7043,0.0,0.0,0.0,0.7905,0.0,0.0,0.0,0.0,0.0,0.0,0.6702,0.6803,0.6878,0.0,0.0,0.7095,0.0,0.0,0.0,0.0,0.0,0.7139,0.7139,0.0,0.7139,0.7139,0.7139,0.7139,0.0,0.7139,0.7139,0.7139,0.7139,0.7139,0.7139,0.7139,0.7139,0.7139,0.0,0.0,0.7139,0.7139,0.0,0.0,0.0,0.0,0.0,0.0,0.0,0.0,0.0,0.0,0.0,0.0,0.0,0.0,0.0,0.0,0.0,0.0,0.0,0.0,0.0,0.0,0.0,0.0,1.1821,1.1643,1.2863,1.2163,1.1724,1.1724,1.1724,1.1724,1.1724,1.2516,1.2954,1.2954,1.33,1.3209,1.2607,1.3307,1.3483,1.3222,1.3483,1.3828,1.4088,1.4088,1.4088,1.4088,1.4088,1.4088,1.4095,1.4202,1.4235,1.4262,1.1737,0.0,0.0,0.0,0.0,0.0,0.0,0.0,0.0,0.0,1.0484,0.0,0.8841,0.0,0.7725,0.0,0.6774,0.6417,0.6417,0.7137,0.0,0.6634,0.7861,0.0,0.0,0.0,0.0,0.0,0.0,0.7472,0.0,0.0,0.0,0.0,0.0,0.7139,0.7139,0.0,0.7139,0.0,0.0,0.7139,0.0,0.0,0.7139,0.7139,0.0,0.7139,0.7139,0.7139,0.7139,0.7139,0.7139,0.7139,0.7139,0.7139,0.7139,0.7139,0.7139,0.7139,0.0,0.7139,0.7139,0.0,0.7139,0.0,0.7139,0.0,0.0,0.0,0.0,0.0,0.0,0.0,0.0,0.0,0.0,1.1826,0.0,0.0,0.0,0.0,0.0,0.0,1.2163,1.3379,1.2766,1.2851,0.0,1.3379,1.2942,1.2942,1.2942,1.2942,1.2942,1.373,1.4088,1.4088,1.4088,1.3743,1.3222,1.3828,1.3737,1.3222,1.3828,1.4088,1.4088,1.4088,1.4088,1.4088,1.4088,1.4088,1.4088,1.4088,1.4155,1.4242,0.0,0.0,0.0,0.0,1.2118,0.0,0.0,0.0,1.0789,0.0,0.9836,0.8861,0.7885,0.7882,0.7589,0.6561,0.6617,0.6702,0.6702,0.6709,0.0,0.0,0.6719,0.6722,0.6722,0.0,0.0,0.0,0.0,0.0,0.0,0.0,0.0,0.0,0.7665,0.0,0.7139,0.7139,0.7139,0.7139,0.7139,0.7139,0.7139,0.7139,0.7139,0.7139,0.7139,0.7139,0.7139,0.7139,0.7139,0.7139,0.7139,0.7139,0.7139,0.7139,0.7139,0.7139,0.7143,0.7143,0.7139,0.7143,0.7139,0.0,0.0,0.0,0.7139,0.0,0.0,0.0,0.0,0.0,0.0,0.0,0.0,0.0,0.0,0.0,0.0,0.0,0.0,0.0,0.0,0.0,1.1295,1.2407,1.2492,1.3021,0.0,1.4166,1.4088,1.4166,1.4173,1.4088,1.4088,1.4088,1.4088,1.4088,1.4088,1.4088,1.4088,1.4088,1.4088,1.4088,1.4088,1.4088,1.4088,1.4088,1.4088,1.4088,1.4088,1.4088,1.4088,1.4088,1.4262,1.4496,1.2305,1.2305,1.2278,0.0,1.2251,1.2305,0.0,0.0,0.0,0.0,0.8985,0.7953,0.7057,0.7022,0.6966,0.6641,0.6678,0.0,0.0,0.0,0.0,0.6871,0.697,0.7027,0.7027,0.7027,0.0,0.7085,0.0,0.0,0.889,0.0,0.0,0.0,0.0,0.0,0.7139,0.7139,0.7139,0.7139,0.7323,0.7323,0.7139,0.0,0.7234,0.7139,0.7323,0.7234,0.7139,0.7323,0.7234,0.7139,0.7139,0.7139,0.7139,0.7139,0.7139,0.7143,0.7071,0.7064,0.7143,0.7071,0.7064,0.7139,0.0,0.0,0.0,0.0,0.0,0.0,0.0,0.0,0.0,0.0,0.0,0.0,0.0,0.0,0.0,1.4088,0.0,0.0,0.0,1.3937,1.4511,1.4768,1.4859,1.5274,1.6445,0.0,1.4496,1.5296,1.4489,1.4088,1.4088,1.4088,1.4088,1.4088,1.4088,1.4088,1.4088,1.4088,1.4088,1.4088,1.4088,1.4088,1.4088,1.4088,1.4088,1.4088,1.4088,1.4088,1.4088,1.4088,1.4135,1.4202,1.2305,0.0,0.0,1.2492,0.0,0.0,1.1746,0.0,0.0,0.903,0.8091,0.0,0.6774,0.6759,0.68,0.68,0.6858,0.0,0.6892,0.0,0.0,0.7021,0.7099,0.7139,0.7139,0.7139,0.0,0.7139,0.0,0.0,0.889,0.0,0.0,0.0,0.0,0.7139,0.0,0.7139,0.7139,0.7139,0.7234,0.7231,0.0,0.7415,0.7415,0.7323,0.7591,0.7503,0.7323,0.7591,0.7591,0.7408,0.7323,0.6962,0.6694,0.7051,0.6786,0.6612,0.6989,0.7068,0.7058,0.7084,0.7078,0.7068,0.7068,0.7068,0.7064,0.0,0.7139,0.7139,0.0,0.0,0.0,0.0,0.0,0.0,0.0,0.0,0.0,0.0,1.465,0.0,0.0,1.5462,1.6191,1.5779,1.5696,1.6191,1.7261,0.0,1.4573,1.5703,1.465,1.4088,1.4088,1.4088,1.4088,1.4088,1.4088,1.4088,1.4088,1.4088,1.4088,1.4088,1.4088,1.4088,1.4088,1.4088,1.4088,1.4088,1.4088,1.4088,1.4088,1.4088,1.4088,1.4088,0.0,0.0,0.0,0.0,0.0,0.0,0.0,1.0237,0.0,0.8362,0.0,0.6736,0.6756,0.6875,0.6956,0.6959,0.0,0.7139,0.7143,0.7139,0.7139,0.7139,0.7139,0.7139,0.7139,0.7139,0.7139,0.0,0.0,0.0,0.0,0.0,0.0,0.0,0.0,0.0,0.0,0.7139,0.7139,0.7139,0.7143,0.7139,0.7143,0.7415,0.7507,0.7507,0.7856,0.7768,0.7595,0.7856,0.7944,0.7856,0.7595,0.6874,0.6245,0.6782,0.6251,0.5722,0.6634,0.689,0.6792,0.6732,0.664,0.6539,0.6631,0.6723,0.69,0.7058,0.7058,0.7143,0.7139,0.0,0.0,0.0,0.0,0.0,0.0,0.0,0.0,0.0,0.0,0.0,0.0,1.5876,1.6764,1.5944,1.5944,1.6437,1.7658,0.0,1.4985,1.5861,1.4901,1.425,1.4088,1.4088,1.4088,1.4088,1.4088,1.4088,1.4088,1.4088,1.4088,1.4088,1.4088,1.4088,1.4088,1.4088,1.4088,1.4088,1.4088,1.4088,1.4088,1.4088,1.4088,1.4088,0.0,0.0,0.0,0.0,0.0,1.1453,1.0502,0.9306,0.8465,0.8375,0.7477,0.6936,0.7051,0.7088,0.7193,0.7376,0.7217,0.0,0.0,0.0,0.0,0.7139,0.7139,0.7139,0.7139,0.7139,0.7139,0.0,0.0,0.0,0.0,0.0,0.0,0.0,0.0,0.0,0.7139,0.7139,0.0,0.7139,0.7323,0.7323,0.7139,0.7676,0.768,0.7591,0.8028,0.8028,0.7856,0.7852,0.7944,0.7856,0.7856,0.7051,0.6157,0.6248,0.5445,0.465,0.5387,0.556,0.5369,0.4935,0.4206,0.3748,0.4107,0.4917,0.5819,0.6897,0.7078,0.7074,0.7143,0.0,0.0,0.0,0.0,0.0,0.0,0.0,0.0,0.0,0.0,1.5054,0.0,0.0,1.6273,1.6927,1.7009,1.79,1.9913,0.0,1.6854,0.0,1.5951,1.497,0.0,0.0,1.4088,1.4088,1.4088,1.4088,1.4088,1.4088,1.4088,1.4088,1.4088,1.4088,1.4088,1.4088,1.4088,1.4088,1.4088,1.4088,1.4088,1.4088,1.4088,1.4088,0.0,0.0,0.0,0.0,0.0,0.0,0.0,0.8418,0.7629,0.7711,0.7295,0.7065,0.7132,0.7139,0.7231,0.7507,0.7415,0.7326,0.7507,0.7415,0.7234,0.7139,0.7139,0.7139,0.7139,0.7139,0.7139,0.7139,0.0,0.0,0.7929,0.0,0.0,0.0,0.0,0.7139,0.0,0.0,0.0,0.7139,0.7415,0.7415,0.7323,0.7852,0.794,0.7852,0.8113,0.8204,0.83,0.83,0.8208,0.7937,0.7312,0.6419,0.5445,0.5267,0.4378,0.3671,0.4127,0.448,0.4383,0.2778,0.2686,0.304,0.3398,0.4119,0.5018,0.5911,0.6631,0.7078,0.7143,0.7139,0.0,0.0,0.0,0.0,0.0,0.0,0.0,0.0,0.0,0.0,0.0,0.0,0.0,0.0,0.0,0.0,0.0,0.0,1.7577,0.0,0.0,0.0,1.4894,0.0,1.4088,1.4088,1.4088,1.4088,1.4088,1.4088,1.4088,1.4088,1.4088,1.4088,1.4088,1.4088,1.4088,1.4088,1.4088,1.4088,1.4088,1.4088,1.4088,1.4088,0.0,1.3534,0.0,0.0,1.1601,0.0,0.9405,0.8277,0.7404,0.7139,0.7139,0.7139,0.7139,0.7139,0.7231,0.7591,0.7507,0.7507,0.768,0.7591,0.7415,0.7231,0.7139,0.7139,0.7139,0.7139,0.7139,0.0,0.0,0.0,0.0,0.0,0.0,0.0,0.0,0.0,0.0,0.0,0.7139,0.7139,0.7323,0.7415,0.7507,0.794,0.8201,0.8201,0.8288,0.8384,0.8564,0.8568,0.8296,0.7753,0.6773,0.5617,0.4552,0.4198,0.34,0.2599,0.2868,0.3312,0.322,0.1344,0.1703,0.2599,0.2868,0.3318,0.3946,0.4837,0.6094,0.7081,0.7061,0.7143,0.0,0.0,0.0,0.0,0.0,0.0,0.0,0.0,0.0,0.0,1.4088,0.0,0.0,0.0,0.0,0.0,2.0479,0.0,0.0,0.0,0.0,1.6108,1.5379,0.0,1.4334,1.4088,1.4088,1.4088,1.4088,1.4088,1.4088,1.4088,1.4088,1.4088,1.4088,1.4088,1.4088,1.4088,1.4088,1.4088,1.4088,1.4088,1.4088,1.4088,0.0,0.0,0.0,0.0,0.0,0.0,1.0611,0.9492,0.8364,0.7228,0.7139,0.7139,0.7139,0.7139,0.7319,0.7852,0.768,0.768,0.8113,0.7768,0.7507,0.7507,0.7231,0.7139,0.7139,0.7139,0.7139,0.0,0.0,0.7139,0.0,0.0,0.0,0.0,0.0,0.0,0.0,0.7139,0.7139,0.7139,0.7139,0.7323,0.7507,0.7856,0.8028,0.8201,0.8472,0.8384,0.8288,0.8476,0.7848,0.6956,0.6779,0.5176,0.3396,0.3307,0.2506,0.1524,0.1614,0.1614,0.1614,0.1436,0.1436,0.1524,0.1614,0.1614,0.2153,0.4037,0.583,0.7084,0.7081,0.7064,0.7139,0.0,0.0,0.0,0.0,0.0,1.1209,1.2328,0.0,0.0,0.0,1.4977,0.0,0.0,1.6764,0.0,0.0,0.0,0.0,1.7504,1.823,1.7253,1.425,1.5137,1.5054,1.4088,1.4088,1.4088,1.4088,1.4088,1.4088,1.4088,1.4088,1.4088,1.4088,1.4088,1.4088,1.4088,1.4088,1.4088,1.4088,1.4088,1.4088,1.4088,0.0,0.0,0.0,0.0,0.0,0.0,0.0,1.0178,0.9492,0.8364,0.7577,0.7143,0.7323,0.7231,0.7319,0.7856,0.7768,0.7856,0.8028,0.794,0.7768,0.7507,0.7415,0.7234,0.7139,0.7139,0.7139,0.0,0.0,0.0,0.0,0.0,0.0,0.0,0.0,0.7139,0.7139,0.7139,0.7139,0.7139,0.7234,0.7415,0.7507,0.794,0.8113,0.8201,0.8476,0.8564,0.8384,0.7757,0.7132,0.6505,0.5885,0.4552,0.3041,0.2329,0.1792,0.1436,0.1436,0.1436,0.1436,0.1436,0.1436,0.1436,0.1436,0.1436,0.1614,0.2422,0.3848,0.5275,0.6086,0.67,0.7139,0.7139,0.0,0.0,0.0,0.0,0.0,1.2151,0.0,1.4088,0.0,1.4496,0.0,0.0,0.0,0.0,0.0,0.0,0.0,1.7342,0.0,1.7009,1.5054,1.4817,1.4489,1.4088,1.4088,1.4088,1.4088,1.4243,1.4237,1.4237,1.4166,1.4088,1.4088,1.4088,1.4088,1.4088,1.4088,1.4088,1.4088,1.4088,1.4088,1.4088,1.4088,0.0,1.3379,0.0,1.2504,1.1895,1.0783,1.0611,1.0091,0.8536,0.7669,0.7323,0.7507,0.7411,0.7496,0.794,0.8028,0.8028,0.812,0.8204,0.8025,0.7595,0.7507,0.0,0.7139,0.7139,0.7139,0.7139,0.7139,0.0,0.0,0.0,0.0,0.0,0.7139,0.7139,0.7139,0.7139,0.7139,0.7139,0.7323,0.7503,0.768,0.8028,0.8204,0.838,0.8564,0.8568,0.8388,0.7224,0.6688,0.6328,0.5354,0.3931,0.2596,0.206,0.1704,0.1436,0.1436,0.1436,0.1436,0.1436,0.1436,0.1436,0.1436,0.1436,0.1524,0.1793,0.3398,0.509,0.5902,0.6612,0.7139,0.7139,0.0,0.0,0.0,0.9405,0.0,1.1638,1.2857,1.373,1.4088,1.4412,0.0,0.0,0.0,0.0,0.0,0.0,0.0,0.0,0.0,0.0,1.5213,1.481,1.4405,1.4166,1.4166,1.425,1.425,1.4585,1.4753,1.475,1.4593,1.4514,1.4342,1.46,1.4679,1.4679,1.4928,1.4843,1.4679,1.4679,1.4514,1.4349,1.4088,1.3118,1.2674,1.3906,1.3112,1.1895,1.0783,1.0611,0.9744,0.7401,0.7323,0.7507,0.7507,0.7768,0.794,0.8201,0.8201,0.8292,0.8568,0.838,0.8113,0.0,0.0,0.7415,0.7139,0.7139,0.7139,0.7139,0.0,0.0,0.7139,0.0,0.7139,0.7139,0.7139,0.7139,0.7139,0.7139,0.7139,0.7139,0.7139,0.7408,0.7856,0.7944,0.8212,0.8568,0.8568,0.8568,0.8388,0.7224,0.6779,0.6599,0.5354,0.3396,0.1613,0.2862,0.2329,0.1436,0.1436,0.1436,0.1436,0.1436,0.1436,0.1436,0.1436,0.1436,0.1704,0.2688,0.5369,0.7436,0.7173,0.7068,0.7139,0.7139,0.0,0.0,0.0,0.8189,0.0,1.0524,1.1638,1.2766,1.3997,1.5054,0.0,0.0,0.0,0.0,0.0,0.0,0.0,1.5779,1.6764,0.0,1.4173,1.5137,1.5213,1.4398,1.4398,1.4482,1.4748,1.5326,1.5639,1.5651,1.5651,1.539,1.5046,1.5732,1.6087,1.6168,1.6866,1.669,1.6087,1.6087,1.5651,1.495,1.3027,1.2589,1.2157,1.1821,1.1386,1.1042,1.0697,1.0611,1.0091,0.8711,0.8803,0.8719,0.8025,0.794,0.794,0.0,0.8201,0.8201,0.0,0.8384,0.8296,0.7944,0.7856,0.7588,0.7139,0.7139,0.7139,0.7139,0.0,0.0,0.0,0.7139,0.7139,0.7139,0.7139,0.7139,0.7139,0.7139,0.7139,0.7139,0.7323,0.7503,0.768,0.794,0.8204,0.838,0.8564,0.8568,0.8296,0.6425,0.5711,0.5354,0.4376,0.3398,0.2506,0.206,0.1704,0.1436,0.1436,0.1436,0.1614,0.2417,0.1971,0.1614,0.2417,0.1971,0.1524,0.1793,0.4208,0.6088,0.5366,0.6343,0.7323,0.7139,0.7139,0.0,0.7139,0.0,0.9323,1.0438,1.1638,1.2766,1.3997,1.4412,0.0,0.0,0.0,0.0,0.0,0.0,0.0,0.0,1.5628,0.0,1.4088,1.4412,1.4489,1.4166,1.4314,1.4566,1.4999,1.5014,1.512,1.5298,1.512,1.4864,1.4606,1.4857,1.5191,1.5616,1.5871,1.5871,1.5616,1.5616,1.512,1.4396,1.2083,1.1472,1.1037,1.0783,1.0269,1.0009,1.0091,1.0091,0.9749,0.8803,0.889,0.889,0.8285,0.8204,0.0,0.838,0.838,0.838,0.838,0.8476,0.8388,0.8028,0.7944,0.7676,0.7234,0.7143,0.0,0.7139,0.7139,0.7143,0.7234,0.7143,0.7143,0.7234,0.7234,0.7234,0.7234,0.7234,0.7323,0.7408,0.7503,0.7323,0.7139,0.7401,0.7309,0.7041,0.7669,0.7672,0.7228,0.6248,0.5625,0.509,0.4378,0.4109,0.3842,0.3041,0.2508,0.2329,0.2685,0.2508,0.2508,0.3575,0.2952,0.2238,0.3041,0.3307,0.3396,0.3306,0.5003,0.6346,0.5802,0.6605,0.7323,0.7234,0.7143,0.7139,0.7139,0.0,0.8623,0.0,0.0,0.0,0.0,1.3822,1.4088,0.0,0.0,0.0,0.0,0.0,1.547,1.4173,1.4734,1.4817,1.4088,1.4088,1.4166,1.4243,1.4489,1.4888,1.5423,1.5668,1.5819,1.5945,1.6085,1.5908,1.566,1.5908,1.6246,1.6676,1.6936,1.6844,1.6592,1.6254,1.5675,1.4861,1.1235,1.0106,0.9579,0.0,0.9666,0.889,0.9061,0.9148,0.8803,0.8028,0.8113,0.8201,0.8201,0.8472,0.8568,0.8568,0.0,0.0,0.8568,0.8568,0.8476,0.8201,0.8028,0.7768,0.7507,0.7234,0.7139,0.7139,0.7143,0.7231,0.7415,0.7231,0.7234,0.7415,0.7507,0.7507,0.7507,0.7507,0.768,0.7856,0.7591,0.7048,0.6505,0.6328,0.5794,0.5265,0.6334,0.6157,0.5625,0.6422,0.6248,0.5628,0.5179,0.5179,0.5359,0.5087,0.4376,0.3844,0.4732,0.4376,0.3935,0.4821,0.4196,0.3307,0.3307,0.5085,0.6596,0.6325,0.7132,0.7852,0.7764,0.7408,0.7231,0.7415,0.7323,0.7139,0.7139,0.7139,0.7577,0.0,0.0,0.0,1.2151,1.3379,1.4088,0.0,0.0,0.0,0.0,0.0,1.4088,1.4088,1.4088,1.4088,1.4088,1.4088,1.4159,1.4398,1.4831,1.5416,1.6048,1.7077,1.7515,1.7565,1.8329,1.8235,1.7699,1.8329,1.869,1.8784,1.9418,1.9316,1.8604,1.7739,1.6961,1.6271,0.0,0.0,0.9323,0.8719,0.8376,0.8113,0.8201,0.8201,0.8201,0.8113,0.8201,0.8288,0.8476,0.8564,0.8568,0.8568,0.8568,0.8568,0.8568,0.8568,0.8476,0.8201,0.8028,0.7768,0.7507,0.7415,0.7415,0.7415,0.7588,0.7143,0.6166,0.7231,0.7231,0.6425,0.7146,0.7591,0.7768,0.7595,0.768,0.7852,0.6956,0.7129,0.7573,0.5971,0.5797,0.6334,0.562,0.5888,0.6422,0.5891,0.5625,0.5447,0.5359,0.5359,0.5359,0.5087,0.4821,0.4732,0.491,0.4821,0.4732,0.491,0.4819,0.4554,0.4554,0.4999,0.5442,0.5351,0.6242,0.6956,0.6602,0.7312,0.7757,0.7319,0.7323,0.7323,0.7139,0.7234,0.776,0.0,1.0096,1.13,1.2242,1.3379,1.4088,0.0,0.0,1.4088,1.4088,1.4088,1.4088,1.4088,1.4088,1.4088,1.4088,1.4088,1.4159,1.4398,1.4657,1.5485,1.6723,1.7223,1.7684,1.8372,1.8905,1.8523,1.7613,1.8136,1.844,1.8551,1.8732,1.8732,1.8543,1.8292,1.7676,1.6999,0.9248,0.9069,0.8807,0.8113,0.794,0.794,0.8028,0.8028,0.8116,0.838,0.8384,0.8472,0.8568,0.8568,0.8568,0.8568,0.8568,0.8568,0.8568,0.8568,0.8564,0.8384,0.8204,0.794,0.7852,0.7768,0.768,0.768,0.7319,0.6959,0.6871,0.6425,0.6245,0.6242,0.6779,0.7048,0.7221,0.7672,0.7944,0.812,0.7485,0.7397,0.7401,0.6242,0.5885,0.5977,0.5885,0.5977,0.6245,0.6691,0.6248,0.5716,0.6605,0.6517,0.6248,0.6514,0.6334,0.6068,0.6511,0.6334,0.5977,0.5888,0.6242,0.6511,0.5974,0.6242,0.6688,0.6688,0.6956,0.7228,0.7132,0.7401,0.7584,0.7323,0.7323,0.7234,0.7139,0.7231,0.7496,0.8017,0.9662,1.1042,1.1466,1.3124,1.4088,1.4088,1.4088,0.0,1.4088,1.4088,1.4088,1.4088,1.4088,1.4088,1.4088,1.4088,1.4405,1.4963,1.4727,1.5558,1.7317,1.7629,1.8213,1.9076,1.9778,1.9766,1.9239,1.9022,1.9151,1.941,1.9162,1.9076,1.9076,1.8646,1.8205,1.7787,0.8568,0.8384,0.8288,0.8288,0.8116,0.8032,0.8201,0.8288,0.838,0.8564,0.8568,0.8568,0.8568,0.8568,0.8568,0.8568,0.8568,0.8568,0.8568,0.8568,0.8568,0.8568,0.838,0.8201,0.8201,0.7848,0.7672,0.7672,0.6514,0.6422,0.7397,0.5354,0.4996,0.5971,0.606,0.6239,0.6593,0.7485,0.8113,0.8296,0.7845,0.7309,0.6776,0.6419,0.5888,0.5354,0.6242,0.6157,0.5894,0.7672,0.7231,0.6254,0.8032,0.794,0.7316,0.83,0.8032,0.7496,0.8388,0.7852,0.7051,0.7044,0.7672,0.8116,0.7224,0.7848,0.8568,0.8564,0.8208,0.794,0.8113,0.758,0.7231,0.7422,0.7323,0.7143,0.7146,0.0,0.7143,0.7139,0.9052,1.0438,1.0611,1.2601,1.3906,1.4088,1.4088,1.4088,1.4088,1.4088,1.4088,1.4088,1.4088,1.4088,1.4088,1.4088,1.4657,1.5696,1.497,1.5809,1.7993,1.8391,1.905,1.9916,2.0714,2.1068,2.1059,2.0374,2.0218,2.0437,1.9938,1.9812,1.9771,1.8988,1.8675,1.863,0.8568,0.8564,0.8564,0.8564,0.8476,0.8476,0.8564,0.8564,0.8564,0.8568,0.8568,0.8568,0.8568,0.8568,0.8568,0.8568,0.8568,0.8568,0.8568,0.8568,0.8568,0.8568,0.838,0.8201,0.8201,0.7129,0.6593,0.6593,0.562,0.4645,0.3757,0.4554,0.4554,0.4022,0.4645,0.5625,0.6959,0.6773,0.6861,0.6956,0.5885,0.6062,0.6599,0.4552,0.4907,0.6419,0.562,0.58,0.6599,0.6956,0.6959,0.7051,0.8212,0.794,0.7316,0.83,0.8476,0.8388,0.8568,0.776,0.7048,0.8116,0.7672,0.7312,0.8116,0.8476,0.8564,0.8292,0.8201,0.8028,0.768,0.768,0.7683,0.7255,0.7337,0.7333,0.7166,0.0,0.7326,0.7139,0.8448,0.9749,1.0524,1.1815,1.3027,1.3997,1.4088,1.4088,1.4088,1.4088,1.4088,1.4088,1.4088,1.4088,1.4088,1.4088,1.4657,1.5696,1.5711,1.6998,1.9281,1.9516,2.0142,2.1009,2.1539,2.1347,2.0671,2.0882,2.0708,2.0174,1.9853,1.9885,2.0,1.9658,1.9758,2.0022,0.8568,0.8568,0.8568,0.8568,0.8568,0.8568,0.8568,0.8568,0.8568,0.8568,0.8568,0.8568,0.8568,0.8568,0.8568,0.8568,0.8568,0.8568,0.8568,0.8568,0.8568,0.8568,0.856,0.8376,0.7841,0.7126,0.6505,0.5888,0.4641,0.4111,0.4202,0.3578,0.3489,0.3758,0.3935,0.4559,0.5361,0.5531,0.5797,0.6068,0.5977,0.5888,0.5888,0.6065,0.6419,0.6779,0.6868,0.7312,0.776,0.776,0.7848,0.8032,0.8476,0.8296,0.8032,0.8476,0.8568,0.8568,0.8568,0.8208,0.794,0.8476,0.8208,0.794,0.8476,0.8568,0.8564,0.8472,0.8292,0.8113,0.794,0.7768,0.7595,0.734,0.733,0.7326,0.7337,0.733,0.7323,0.7496,0.8969,1.0178,1.0869,1.2498,1.3626,1.4237,1.4237,1.4243,1.4088,1.4088,1.4166,1.4237,1.4237,1.4489,1.4977,1.5061,1.5959,1.7496,1.6927,1.7912,2.0127,1.9859,2.0295,2.125,2.1445,2.138,2.1236,2.0942,2.0643,2.0286,2.0161,2.0018,1.9946,1.9966,2.0146,2.0292,0.9082,0.8995,0.8911,0.874,0.8656,0.8652,0.8652,0.8656,0.8568,0.8568,0.8568,0.8568,0.8568,0.8568,0.8568,0.8568,0.8568,0.8568,0.8568,0.8656,0.8656,0.8656,0.8644,0.8288,0.7489,0.6773,0.5974,0.5092,0.3666,0.3576,0.4648,0.2777,0.2511,0.3583,0.3403,0.358,0.4028,0.4556,0.4823,0.509,0.6068,0.5888,0.5262,0.7404,0.776,0.7312,0.8296,0.8568,0.8568,0.8568,0.8568,0.8568,0.8568,0.8568,0.8568,0.8568,0.8568,0.8568,0.8568,0.8568,0.8568,0.8568,0.8568,0.8568,0.8568,0.8568,0.8568,0.8476,0.838,0.8201,0.8025,0.7768,0.7595,0.7422,0.0,0.7234,0.7422,0.7326,0.7408,0.8025,0.9405,1.0611,1.1558,1.3105,1.4132,1.4398,1.4398,1.4314,1.4166,1.4166,1.4328,1.4727,1.4727,1.5213,1.6026,1.6198,1.7172,1.8957,1.8149,1.8709,2.0576,2.0085,2.0316,2.1074,2.1074,2.1328,2.1709,2.0943,2.0665,2.0588,2.0481,2.021,1.9825,2.0026,2.0215,2.0292,1.0356,1.0183,0.9932,0.8995,0.874,0.8652,0.8828,0.874,0.8568,0.8568,0.8568,0.8568,0.8568,0.8568,0.8568,0.8568,0.8568,0.8568,0.8568,0.874,0.8911,0.8911,0.8281,0.7749,0.7489,0.5531,0.4378,0.4028,0.2868,0.2333,0.2422,0.2243,0.2333,0.2603,0.2423,0.3048,0.4297,0.4028,0.3848,0.3846,0.5003,0.5267,0.5174,0.6422,0.758,0.8476,0.8564,0.8568,0.8568,0.8568,0.8568,0.8568,0.8568,0.8568,0.8568,0.8568,0.8568,0.8568,0.8568,0.8568,0.8568,0.8568,0.8568,0.8568,0.8568,0.8568,0.8564,0.8288,0.8201,0.8025,0.7591,0.7768,0.7683,0.717,0.0,0.0,0.717,0.7337,0.7764,0.8719,0.9148,1.0178,1.2413,1.276,1.3275,1.4307,1.4398,1.4391,1.4398,1.4159,1.4573,1.5538,1.5786,1.6281,1.718,1.718,1.7827,1.9036,1.8877,1.9441,2.0566,2.0518,2.0528,2.0615,2.0615,2.0869,2.1279,2.117,2.1079,2.0814,2.0569,2.0313,2.0018,1.9808,2.0001,2.0292,1.1472,1.1386,1.1047,1.0115,0.9859,0.9602,0.8999,0.8823,0.874,0.8652,0.8568,0.8568,0.8568,0.8568,0.8568,0.8568,0.874,0.8828,0.8828,0.8999,0.9174,0.9345,0.9074,0.8627,0.7921,0.6322,0.4996,0.4113,0.2868,0.2244,0.2424,0.2424,0.2513,0.2784,0.3314,0.3492,0.3497,0.4554,0.4639,0.42,0.5797,0.5971,0.5349,0.7221,0.776,0.758,0.8296,0.8568,0.8568,0.8568,0.8568,0.8568,0.8568,0.8568,0.8656,0.874,0.8828,0.8828,0.9003,0.8828,0.8568,0.8568,0.8568,0.8568,0.8568,0.8568,0.8568,0.8472,0.8292,0.8204,0.8212,0.8032,0.786,0.7598,0.0,0.7507,0.7598,0.7415,0.7845,0.9331,0.984,1.0869,1.293,1.362,1.4132,1.4566,1.4566,1.4566,1.4398,1.458,1.5401,1.6927,1.718,1.7585,1.831,1.8479,1.9045,2.0001,2.0001,2.0245,2.0566,2.0566,2.0566,2.0566,2.0566,2.0664,2.084,2.1123,2.0989,2.0766,2.0855,2.0668,2.0303,2.0202,2.0234,2.0292,1.2242,1.2328,1.2163,1.0977,1.089,1.0717,0.9689,0.9515,0.9257,0.8915,0.8828,0.8828,0.8828,0.8828,0.8828,0.8828,0.8915,0.8999,0.8999,0.9262,0.9432,0.9602,0.934,0.8894,0.8181,0.6587,0.5349,0.4378,0.3047,0.2513,0.2604,0.2604,0.2784,0.3051,0.3669,0.3848,0.3673,0.4905,0.5257,0.4996,0.6678,0.6766,0.6057,0.7933,0.8116,0.7492,0.8296,0.8568,0.8568,0.8568,0.8568,0.8568,0.8568,0.8656,0.874,0.8823,0.8999,0.9087,0.9262,0.9087,0.8828,0.874,0.8652,0.8568,0.8568,0.8568,0.8568,0.8476,0.8384,0.8296,0.8388,0.8212,0.8032,0.7856,0.7768,0.7852,0.8281,0.8101,0.8711,1.0539,1.1219,1.2072,1.3535,1.4391,1.4741,1.465,1.4734,1.4817,1.4887,1.556,1.6617,1.806,1.8238,1.8718,1.952,1.9608,2.001,2.0566,2.0566,2.0566,2.0566,2.0566,2.0566,2.0566,2.0566,2.0644,2.0801,2.1332,2.146,2.1364,2.1627,2.1381,2.0866,2.0685,2.0438,2.0228,1.276,1.3099,1.3112,1.1327,1.1569,1.1821,1.1068,1.0809,1.0289,0.9432,0.9349,0.9349,0.9349,0.9349,0.9262,0.9262,0.9262,0.9262,0.9349,0.9519,0.9602,0.9602,0.8899,0.8452,0.8181,0.6148,0.491,0.4559,0.3497,0.2875,0.2875,0.2875,0.3051,0.3227,0.3227,0.3848,0.4999,0.4999,0.5437,0.6231,0.7386,0.7566,0.7214,0.8464,0.874,0.8568,0.8568,0.8568,0.8568,0.8568,0.8568,0.8568,0.8568,0.874,0.8911,0.8911,0.9087,0.9262,0.9349,0.9349,0.9262,0.8999,0.874,0.8568,0.8568,0.8568,0.8564,0.8288,0.8384,0.8476,0.8032,0.83,0.8388,0.7595,0.794,0.8452,0.9126,0.9653,1.0611,1.2498,1.3105,1.362,1.4307,1.4824,1.4915,1.4482,1.4824,1.5409,1.5959,1.709,1.806,1.8957,1.9036,1.952,2.0566,2.0566,2.0566,2.0566,2.0566,2.0566,2.0566,2.0566,2.0566,2.0566,2.0566,2.082,2.1311,2.2086,2.258,2.2941,2.2965,2.2542,2.186,2.1225,2.058,2.0149,1.4566,1.4734,1.4566,1.3372,1.3366,1.3105,1.2077,1.1821,1.1649,1.1219,1.0631,1.0207,1.0207,0.9689,0.9262,0.9262,0.9432,0.9607,0.9777,0.9864,0.9864,0.9864,0.9689,0.9157,0.8452,0.765,0.6498,0.491,0.4383,0.3762,0.3139,0.3139,0.3582,0.4467,0.4648,0.5179,0.606,0.7034,0.7474,0.7647,0.8623,0.8982,0.8894,0.8907,0.8823,0.8828,0.8652,0.8568,0.8568,0.8568,0.8568,0.8656,0.874,0.8828,0.8999,0.9257,0.9432,0.9519,0.9777,0.9689,0.9432,0.8999,0.8828,0.874,0.8656,0.8568,0.8568,0.8476,0.8556,0.8556,0.8388,0.8472,0.8464,0.8028,0.8632,0.9318,0.9657,1.026,1.1209,1.3021,1.3021,1.3451,1.4741,1.4741,1.4657,1.4915,1.5575,1.6386,1.7172,1.7666,1.8318,1.9213,1.9213,1.9687,2.0566,2.0566,2.0566,2.0566,2.0566,2.0566,2.0566,2.0566,2.0566,2.0566,2.0566,2.1013,2.1696,2.2179,2.2778,2.3339,2.3174,2.2887,2.2527,2.1296,2.098,2.1175,1.4915,1.5173,1.5173,1.4398,1.4475,1.4384,1.3432,1.3184,1.293,1.2498,1.1821,1.1397,1.1397,1.0971,1.0626,1.0626,1.0463,1.0207,1.0038,1.0038,1.0038,1.0038,1.0038,0.9689,0.9069,0.8185,0.7034,0.5708,0.4736,0.3941,0.3406,0.376,0.438,0.5179,0.5711,0.6508,0.7474,0.8185,0.8715,0.9061,0.9598,0.9689,0.9602,0.9257,0.9082,0.8911,0.874,0.8656,0.8568,0.8568,0.8652,0.874,0.8823,0.8995,0.9257,0.9515,0.9951,1.0294,1.0467,1.0631,1.0712,1.0366,0.9941,0.9515,0.9345,0.9253,0.9248,0.9165,0.9157,0.924,0.9248,0.9676,0.984,0.9492,1.0009,1.0611,1.1037,1.1558,1.2413,1.388,1.388,1.4048,1.4741,1.4824,1.5075,1.565,1.6378,1.7188,1.8318,1.8798,1.9283,1.9775,1.9775,2.0089,2.0566,2.0566,2.0566,2.0566,2.0566,2.0566,2.0566,2.0566,2.0566,2.0644,2.0944,2.1308,2.1852,2.2745,2.3427,2.3952,2.346,2.3304,2.3196,2.2026,2.1712,2.1844,1.4398,1.4908,1.5257,1.465,1.5235,1.556,1.4963,1.4636,1.4216,1.3353,1.3014,1.2845,1.2845,1.276,1.276,1.2674,1.1832,1.0895,1.0038,1.0038,1.0038,1.0038,1.0038,1.0038,1.0038,0.8101,0.6953,0.6779,0.4919,0.3942,0.3942,0.4736,0.5354,0.5714,0.6511,0.7658,0.8978,0.8715,0.924,1.0294,1.0125,0.9864,0.9602,0.9602,0.9345,0.8999,0.8911,0.874,0.8656,0.8656,0.8828,0.9082,0.9087,0.9428,0.9859,0.9859,1.0631,1.1408,1.1408,1.2083,1.2674,1.2328,1.1569,1.0804,1.0549,1.0453,1.0356,1.0096,1.0265,1.0443,1.0443,1.13,1.1901,1.1386,1.1643,1.2077,1.293,1.3275,1.388,1.4999,1.5257,1.5173,1.4566,1.4999,1.5748,1.6698,1.7098,1.7989,1.9381,2.0167,2.0566,2.0566,2.0566,2.0566,2.0566,2.0634,2.0722,2.0722,2.0644,2.0644,2.0789,2.0644,2.0644,2.0867,2.1538,2.1918,2.2124,2.3526,2.4322,2.4619,2.3951,2.3785,2.3844,2.3164,2.2575,2.2367,1.5318,1.5484,1.5658,1.5748,1.5914,1.5997,1.5831,1.5575,1.5318,1.5137,1.4468,1.3964,1.3795,1.3275,1.2845,1.2674,1.1832,1.0895,1.0038,1.0038,1.0038,1.0038,1.0038,1.0038,1.0207,0.9593,0.8452,0.6779,0.7034,0.6858,0.6071,0.6334,0.6953,0.7834,0.7474,0.8356,0.9941,0.9323,0.9501,1.0294,1.0207,1.012,0.9864,0.9689,0.9515,0.9432,0.8999,0.8911,0.8823,0.8823,0.9428,1.0294,1.0467,1.1058,1.1729,1.1992,1.2169,1.2425,1.2425,1.251,1.2681,1.2437,1.2863,1.3027,1.1906,1.1477,1.1386,1.1558,1.1729,1.1815,1.1643,1.1986,1.2072,1.1643,1.2242,1.2845,1.3275,1.3964,1.465,1.5257,1.5257,1.5173,1.5173,1.5347,1.5906,1.7098,1.7585,1.8559,2.0245,2.0489,2.0566,2.0566,2.0566,2.0566,2.0566,2.1242,2.1538,2.1538,2.0867,2.1242,2.2435,2.1165,2.1318,2.2424,2.1983,2.2499,2.3599,2.3963,2.4478,2.5075,2.4728,2.457,2.45,2.3823,2.384,2.4217,1.5831,1.5906,1.5997,1.6245,1.6237,1.6245,1.6409,1.6154,1.6064,1.6064,1.5575,1.5159,1.5068,1.472,1.4294,1.3691,1.3184,1.2334,1.0885,1.0799,1.0631,1.0125,1.012,1.0207,1.0467,1.0386,0.9501,0.7834,0.783,0.7562,0.6949,0.7394,0.8013,0.8715,0.8794,0.9501,1.0564,1.0115,1.0284,1.0722,1.0467,1.0294,1.0207,0.9951,0.9946,1.0207,0.9946,1.0115,1.0366,1.0366,1.0885,1.1397,1.1569,1.1992,1.2504,1.2674,1.3021,1.3366,1.3366,1.3704,1.3971,1.3893,1.4237,1.423,1.2948,1.2681,1.2674,1.276,1.293,1.293,1.3014,1.3444,1.3613,1.319,1.362,1.4048,1.4048,1.4482,1.4999,1.5347,1.5347,1.5416,1.5982,1.6221,1.687,1.8158,1.8399,1.9116,2.0489,2.0566,2.0566,2.0566,2.0566,2.0789,2.1165,2.1614,2.2199,2.2861,2.2124,2.2209,2.2957,2.2134,2.2209,2.3032,2.2947,2.3379,2.412,2.448,2.4933,2.5253,2.4711,2.4585,2.4762,2.4348,2.4824,2.5616,1.617,1.617,1.6245,1.6394,1.6476,1.6476,1.6648,1.6566,1.6394,1.6394,1.6245,1.617,1.6087,1.6087,1.5741,1.4789,1.4699,1.3937,1.2072,1.1821,1.1397,1.0636,1.0467,1.0467,1.0733,1.0733,1.0202,0.9152,0.8352,0.7822,0.765,0.8448,0.8982,0.924,1.0033,1.0651,1.1008,1.0824,1.0987,1.116,1.0641,1.0467,1.0549,1.0381,1.0641,1.1068,1.1149,1.1569,1.2072,1.2072,1.2328,1.2583,1.2583,1.2845,1.319,1.319,1.3711,1.4314,1.4314,1.4831,1.5431,1.5347,1.5257,1.4915,1.3906,1.3802,1.3964,1.3964,1.3964,1.4048,1.4307,1.4915,1.5257,1.4824,1.4915,1.4999,1.4824,1.4999,1.5173,1.5347,1.5431,1.5748,1.6542,1.7017,1.7747,1.9134,1.9134,1.952,2.0566,2.0566,2.0566,2.0566,2.0712,2.1165,2.1756,2.2059,2.2798,2.3902,2.3537,2.3401,2.339,2.3106,2.3169,2.3401,2.3891,2.4192,2.4337,2.5004,2.5312,2.5229,2.4564,2.453,2.4849,2.4791,2.5585,2.6503,1.6319,1.6402,1.6394,1.6648,1.6648,1.6648,1.673,1.6566,1.6394,1.6394,1.6394,1.6319,1.6087,1.6087,1.5741,1.4789,1.4699,1.428,1.3178,1.2345,1.1923,1.1757,1.1068,1.0733,1.0921,1.0921,1.0651,1.0115,0.9941,0.9937,0.985,1.0028,1.0207,1.0467,1.0743,1.0921,1.1008,1.1176,1.1176,1.1008,1.0916,1.0651,1.0376,1.1154,1.1413,1.1322,1.1906,1.2157,1.2242,1.2242,1.293,1.388,1.388,1.4398,1.4999,1.4999,1.5082,1.5257,1.5257,1.5347,1.5347,1.5173,1.5257,1.5257,1.4922,1.4915,1.4999,1.5166,1.5173,1.5166,1.5257,1.534,1.534,1.5082,1.509,1.509,1.5082,1.509,1.5173,1.5347,1.5431,1.5665,1.6394,1.6624,1.7423,1.8957,1.9213,1.9608,2.0566,2.0566,2.0566,2.0566,2.1242,2.169,2.1832,2.3084,2.361,2.3169,2.4432,2.5016,2.4945,2.3621,2.3768,2.4945,2.4337,2.4492,2.5158,2.5241,2.5312,2.5312,2.5158,2.5206,2.5254,2.5512,2.5906,2.6382,1.6566,1.6566,1.6566,1.6656,1.673,1.673,1.673,1.6648,1.6566,1.6566,1.6566,1.6566,1.6409,1.6409,1.6237,1.5884,1.5801,1.5379,1.428,1.386,1.3444,1.2942,1.2095,1.1671,1.194,1.1435,1.1003,1.0651,1.0651,1.0646,1.0554,1.0554,1.0646,1.0911,1.0921,1.1094,1.1181,1.186,1.2112,1.2112,1.2363,1.2437,1.2339,1.2425,1.2687,1.3112,1.3795,1.4048,1.4048,1.4048,1.4391,1.4831,1.4831,1.509,1.5431,1.5431,1.5431,1.5431,1.5431,1.5431,1.5347,1.5264,1.534,1.5347,1.5264,1.5257,1.5264,1.5347,1.5431,1.5431,1.5431,1.5431,1.534,1.509,1.5173,1.5257,1.509,1.5173,1.5257,1.5431,1.6229,1.696,1.7277,1.823,1.9195,1.9844,2.001,2.0167,2.0566,2.0566,2.0566,2.0566,2.0944,2.1538,2.2435,2.3169,2.3756,2.4276,2.4945,2.5087,2.4636,2.442,2.4647,2.53,2.4933,2.4933,2.5312,2.5312,2.5312,2.5312,2.5312,2.5312,2.5301,2.5707,2.5905,2.6028]}]]